Date	Time of Day	Time of Run (sec)	Data PointGroup	Data Point Number	N1 Frequency (Hz)	N1 Percent	N1 RPM (51,120)	N2 Frequency (Hz)	N2 Percent	N2 RPM (35,000)	Engine TOT (F)	Air Plenum Temperature (F)	Ambient Temperature (F)	Ambient Pressure (psia)	Ambient Relative Humidity	Compressor Bleed Temperature (F)	Compressor Bleed Pressure (psig)	Bleed Temperature (F)	Bleed Pressure (in H2O)	Bleed Pressure (psia)	Bleed DP Pressure (in H2O)	Bleed Air SV	Sample	Orifice Plate	Sonic Orifice Plate Dia.	Dyno RPM	Dyno Torque (lbf*ft)	Dyno HorsePower (Hp)	Compressor Bleed Pressure (psia)	Compressor Pressure Ratio	Compressor Bleed Temperature (C)	Comp Simple Isentropic Temp Expected (C)	Bleed Air Mass Flow (lbm/min)	Bleed Air Volumetric Flow (SCFM)	Bleed Air Volumetric Flow (LPM)
9/12/2014 2:36:22 PM	14:36:22	0	A	1	-1	0	0	0	0	0	55.4943	58.63788	56.7392	14.43413	65.94	57.73972	-0.3549957	55.85357	-0.7229996	14.40782	7.699966E-02	0	3	1	0.15	-1	1	-1.522825E-04	14.07913	0.9754058	14.29984	12.794	0.2348834	3.070859	86.95689
9/12/2014 2:36:32 PM	14:36:32	0	A	1	-1	0	0	0	0	0	55.35957	58.32352	56.71356	14.43413	65.86501	57.78462	-0.3549957	55.89848	-0.7329998	14.40764	7.799911E-02	0	3	1	0.15	-1	0.7998047	-1.903997E-04	14.07413	0.9750591	14.32479	12.59208	0.234872	3.070711	86.9527
9/12/2014 2:36:42 PM	14:36:42	0	A	1	-1	0	0	0	0	0	55.35957	57.69481	56.71356	14.43413	66.17	57.6499	-0.3549957	55.89848	-0.7329998	14.40742	7.600021E-02	0	3	1	0.15	-1	1	-1.903997E-04	14.07913	0.9754058	14.24994	12.27371	0.2318889	3.031709	85.8483
9/12/2014 2:36:52 PM	14:36:52	0	A	1	-1	0	0	0	0	0	55.53921	58.05407	56.71356	14.43413	66.17	57.78462	-0.3549957	55.89848	-0.7320004	14.408	7.799911E-02	0	3	1	0.15	-1	0.7998047	-1.903997E-04	14.07913	0.9754058	14.32479	12.47191	0.234875	3.070749	86.95379
9/12/2014 2:37:02 PM	14:37:02	0	A	1	-1	0	0	0	0	0	55.58411	58.36843	56.70499	14.4345	66.375	57.6499	-0.3600006	56.0332	-0.7380009	14.40758	7.600021E-02	0	3	1	0.15	-1	0.6000977	-1.522825E-04	14.0745	0.9750597	14.24994	12.61687	0.231861	3.031344	85.83797
9/12/2014 2:37:12 PM	14:37:12	0	A	1	-1	0	0	0	0	0	55.58411	58.23371	56.70499	14.43413	66.53999	57.6499	-0.3549957	55.89848	-0.7250004	14.40814	7.600021E-02	0	3	1	0.15	-1	1	-1.903997E-04	14.07913	0.9754058	14.24994	12.57102	0.2318947	3.031785	85.85045
9/12/2014 2:37:22 PM	14:37:22	0	A	1	-1	0	0	0	0	0	55.58411	58.50316	56.70499	14.43413	66.53999	57.73972	-0.3549957	55.98829	-0.7460003	14.40742	7.999992E-02	0	3	1	0.15	-1	0.7998047	-1.522825E-04	14.07913	0.9754058	14.29984	12.71964	0.2363476	3.090002	87.49898
9/12/2014 2:37:32 PM	14:37:32	0	A	1	-1	0	0	0	0	0	55.58411	58.63788	56.70499	14.43413	66.48	57.73972	-0.3549957	55.98829	-0.7360001	14.40756	7.600021E-02	0	3	1	0.15	-1	0.7998047	-1.522825E-04	14.07913	0.9754058	14.29984	12.794	0.2333839	3.051255	86.40179
9/12/2014 2:37:42 PM	14:37:42	0	A	1	-1	0	0	0	0	0	55.44939	57.6499	56.70499	14.43412	66.09	57.69481	-0.3500061	55.94338	-0.7169991	14.40796	7.900047E-02	0	3	1	0.15	-1	0.7998047	-1.903997E-04	14.08912	0.9760982	14.27489	12.30576	0.236362	3.09019	87.50429
9/12/2014 2:37:52 PM	14:37:52	0	A	1	-2	0	0	0	0	0	55.44939	57.06609	56.70499	14.43412	66.09	57.69481	-0.3450012	55.94338	-0.7320004	14.40753	7.699966E-02	0	3	1	0.15	-1	1	-1.903997E-04	14.09413	0.976445	14.27489	12.01204	0.2333934	3.051379	86.40528
9/12/2014 2:38:02 PM	14:38:02	0	A	1	-1	0	0	0	0	0	55.4943	56.93137	56.71356	14.43413	66.015	57.69481	-0.3399963	55.94338	-0.7240009	14.40814	7.500076E-02	0	3	1	0.15	-1	1	-1.903997E-04	14.09413	0.976445	14.27489	11.93768	0.2303616	3.011742	85.28288
9/12/2014 2:38:12 PM	14:38:12	0	A	1	-1	0	0	0	0	0	55.62902	57.51517	56.70499	14.4345	66.095	57.69481	-0.3500061	55.94338	-0.7479992	14.40754	7.600021E-02	0	3	1	0.15	-1	0.7998047	-1.903997E-04	14.0895	0.9760988	14.27489	12.23146	0.2318801	3.031594	85.84505
9/12/2014 2:38:22 PM	14:38:22	0	A	1	-1	0	0	0	0	0	55.4943	57.78462	56.70499	14.4345	66.095	57.6499	-0.3549957	56.0332	-0.7509995	14.40721	7.799911E-02	0	3	1	0.15	-1	0.7998047	-1.522825E-04	14.08449	0.9757521	14.24994	12.3517	0.234839	3.070279	86.94048
9/12/2014 2:38:32 PM	14:38:32	0	A	1	-1	0	0	0	0	0	55.53921	57.38045	56.70499	14.43337	66.03	57.60499	-0.3549957	55.98829	-0.7290001	14.40725	7.699966E-02	0	3	1	0.15	-1	0.7998047	-1.522825E-04	14.07838	0.9754045	14.225	12.10017	0.2333814	3.051222	86.40083
9/12/2014 2:38:42 PM	14:38:42	0	A	1	-1	0	0	0	0	0	55.40448	57.78462	56.71356	14.43487	66.13499	57.60499	-0.3549957	55.98829	-0.743	14.40827	7.699966E-02	0	3	1	0.15	-1	1	-1.903997E-04	14.07988	0.9754071	14.225	12.32335	0.2333897	3.051331	86.40392
9/12/2014 2:38:52 PM	14:38:52	0	A	1	-1	0	0	0	0	0	55.53921	57.78462	56.71356	14.43487	66.13499	57.60499	-0.3549957	55.98829	-0.7360001	14.40831	0.0739994	0	3	1	0.15	-1	0.7998047	-1.903997E-04	14.07988	0.9754071	14.225	12.32335	0.22731	2.971846	84.15315
9/12/2014 2:39:02 PM	14:39:02	0	A	1	-1	0	0	0	0	0	55.53921	57.78462	56.73065	14.43375	65.825	57.69481	-0.3549957	56.07811	-0.7369995	14.40697	7.600021E-02	0	3	1	0.15	-1	0.7998047	-1.903997E-04	14.07875	0.9754052	14.27489	12.32322	0.2303232	3.01124	85.26868
9/12/2014 2:39:12 PM	14:39:12	0	A	1	-1	0	0	0	0	0	55.58411	58.09898	56.73065	14.4345	65.83	57.82953	-0.3600006	56.07811	-0.7210007	14.40801	0.0739994	0	3	1	0.15	-1	1	-1.903997E-04	14.0795	0.9754065	14.34974	12.49673	0.2287952	2.991263	84.703
9/12/2014 2:39:22 PM	14:39:22	0	A	1	-1	0	0	0	0	0	55.58411	58.50316	56.73065	14.4345	65.83	57.73972	-0.3549957	56.25774	-0.7439995	14.40786	7.500076E-02	0	3	1	0.15	-1	0.7998047	-1.522825E-04	14.0745	0.9750597	14.29984	12.69119	0.2318147	3.030739	85.82082
9/12/2014 2:39:32 PM	14:39:32	0	A	1	-1	0	0	0	0	0	55.71884	58.7277	56.74777	14.43413	66.14	57.69481	-0.3549957	56.07811	-0.7399998	14.40756	7.600021E-02	0	3	1	0.15	-1	1	-1.903997E-04	14.07913	0.9754058	14.27489	12.84354	0.2318512	3.031216	85.83434
9/12/2014 2:39:42 PM	14:39:42	0	A	1	-1	0	0	0	0	0	55.71884	58.90733	56.72211	14.43375	66.175	57.69481	-0.3549957	56.07811	-0.7339993	14.40697	7.600021E-02	0	3	1	0.15	-1	0.7998047	-1.522825E-04	14.07875	0.9754052	14.27489	12.94259	0.2318464	3.031153	85.83257
9/12/2014 2:39:52 PM	14:39:52	0	A	1	-1	0	0	0	0	0	55.58411	58.23371	56.72211	14.43375	66.175	57.69481	-0.3600006	56.07811	-0.7290001	14.4073	7.500076E-02	0	3	1	0.15	-1	0.7998047	-1.522825E-04	14.07375	0.9750584	14.27489	12.54247	0.2303259	3.011274	85.26965
9/12/2014 2:40:02 PM	14:40:02	0	A	1	-1	0	0	0	0	0	55.62902	57.60499	56.7392	14.43375	65.875	57.69481	-0.3549957	56.07811	-0.7350006	14.4069	7.299995E-02	0	3	1	0.15	-1	1	-1.522825E-04	14.08374	0.9757509	14.27489	12.25249	0.2256514	2.95016	83.53909
9/12/2014 2:40:12 PM	14:40:12	0	A	1	-1	0	0	0	0	0	55.62902	56.93137	56.75629	14.43337	65.69501	57.69481	-0.3450012	56.07811	-0.7369995	14.4066	7.299995E-02	0	3	1	0.15	-1	0.6000977	-1.522825E-04	14.08837	0.976097	14.27489	11.90916	0.2272404	2.970935	84.12737
9/12/2014 2:40:22 PM	14:40:22	0	A	1	-1	0	0	0	0	0	55.4943	56.79664	56.75629	14.43337	65.69501	57.78462	-0.3500061	56.16792	-0.7220001	14.40706	7.299995E-02	0	3	1	0.15	-1	0.6000977	-1.903997E-04	14.08837	0.976097	14.32479	11.83484	0.2287686	2.990915	84.69313
9/12/2014 2:40:32 PM	14:40:32	0	A	1	-1	0	0	0	0	0	55.4943	56.93137	56.75629	14.43375	65.745	57.78462	-0.3549957	56.16792	-0.7479992	14.40665	7.699966E-02	0	3	1	0.15	-1	1	-1.903997E-04	14.08374	0.9757509	14.32479	11.88082	0.2333013	3.050175	86.37119
9/12/2014 2:40:42 PM	14:40:42	0	A	1	-1	0	0	0	0	0	55.53921	56.93137	56.78195	14.43375	65.985	57.73972	-0.3549957	56.12302	-0.7390003	14.40686	7.699966E-02	0	3	1	0.15	-1	0.6000977	-1.522825E-04	14.07875	0.9754052	14.29984	11.85247	0.2333128	3.050326	86.37547
9/12/2014 2:40:52 PM	14:40:52	0	A	1	-1	0	0	0	0	0	55.53921	56.70683	56.78195	14.43375	65.985	57.73972	-0.3549957	56.12302	-0.7220001	14.4073	0.0739994	0	3	1	0.15	-1	1	-1.903997E-04	14.08374	0.9757509	14.29984	11.75691	0.22878	2.991064	84.69735
9/12/2014 2:41:02 PM	14:41:02	0	A	1	-1	0	0	0	0	0	55.53921	56.97627	56.7905	14.43375	66.33501	57.82953	-0.3549957	56.21283	-0.7259998	14.40773	0.0739994	0	3	1	0.15	-1	0.7998047	-1.903997E-04	14.07875	0.9754052	14.34974	11.87726	0.2287643	2.990858	84.69154
9/12/2014 2:41:12 PM	14:41:12	0	A	1	-1	0	0	0	0	0	55.80866	56.97627	56.80759	14.43375	66.715	57.82953	-0.3549957	56.21283	-0.7350006	14.40704	7.600021E-02	0	3	1	0.15	-1	0.7998047	-1.522825E-04	14.07875	0.9754052	14.34974	11.87726	0.2302949	3.010869	85.25817
9/12/2014 2:41:22 PM	14:41:22	0	A	1	-1	0	0	0	0	0	55.71884	57.69481	56.80759	14.43375	66.715	57.6499	-0.3600006	56.16792	-0.7290001	14.4073	0.0739994	0	3	1	0.15	-1	0.7998047	-1.522825E-04	14.07375	0.9750584	14.24994	12.24516	0.2287704	2.990939	84.69381
9/12/2014 2:41:32 PM	14:41:32	0	A	1	-1	0	0	0	0	0	55.71884	57.42536	56.8418	14.43375	66.8	57.73972	-0.3549957	56.25774	-0.7350006	14.40722	7.500076E-02	0	3	1	0.15	-1	0.7998047	-1.522825E-04	14.07875	0.9754052	14.29984	12.12502	0.2302867	3.010762	85.25514
9/12/2014 2:41:42 PM	14:41:42	0	A	1	-1	0	0	0	0	0	55.71884	57.29063	56.85037	14.43337	66.605	57.69481	-0.3549957	56.21283	-0.7329998	14.40678	0.0739994	0	3	1	0.15	-1	0.6000977	-1.142584E-04	14.07838	0.9754045	14.27489	12.05063	0.2287567	2.990759	84.68872
9/12/2014 2:41:52 PM	14:41:52	0	A	1	-1	0	0	0	0	0	55.58411	57.20082	56.85037	14.43337	66.605	57.82953	-0.3600006	56.21283	-0.7339993	14.40692	7.500076E-02	0	3	1	0.15	-1	0.7998047	-1.142584E-04	14.07838	0.9754045	14.34974	12.00109	0.2287579	2.990774	84.68915
9/12/2014 2:42:02 PM	14:42:02	0	A	1	-1	0	0	-1	0	0	55.58411	57.06609	56.85037	14.43375	66.62	57.87444	-0.3600006	56.25774	-0.7339993	14.40726	0.0739994	0	3	1	0.15	-1	0.7998047	-1.522825E-04	14.07375	0.9750584	14.37469	11.89835	0.228751	2.990684	84.6866
9/12/2014 2:42:12 PM	14:42:12	0	A	1	-1	0	0	0	0	0	55.58411	56.61701	56.88455	14.43375	66.495	57.73972	-0.3549957	56.25774	-0.7269993	14.40733	7.699966E-02	0	3	1	0.15	-1	0.7998047	-1.522825E-04	14.07875	0.9754052	14.29984	11.67906	0.2333234	3.050464	86.37936
9/12/2014 2:42:22 PM	14:42:22	0	A	1	-1	0	0	0	0	0	55.58411	56.52719	56.88455	14.43375	66.495	57.73972	-0.3500061	56.25774	-0.7320004	14.4073	7.900047E-02	0	3	1	0.15	-1	0.6000977	-1.522825E-04	14.08374	0.9757509	14.29984	11.6578	0.2362871	3.089212	87.47659
9/12/2014 2:42:32 PM	14:42:32	0	A	1	-1	0	0	0	0	0	55.71884	56.25774	56.88455	14.43375	66.35001	57.73972	-0.3500061	56.39246	-0.7099991	14.40762	7.699966E-02	0	3	1	0.15	-1	0.6000977	-1.522825E-04	14.08374	0.9757509	14.29984	11.50915	0.2332963	3.05011	86.36935
9/12/2014 2:42:42 PM	14:42:42	0	A	1	-1	0	0	0	0	0	55.62902	57.15591	56.91876	14.43412	66.295	57.73972	-0.3500061	56.25774	-0.7240009	14.40778	7.799911E-02	0	3	1	0.15	-1	0.7998047	-1.522825E-04	14.07913	0.9754058	14.29984	11.9764	0.2347944	3.069695	86.92395
9/12/2014 2:42:52 PM	14:42:52	0	A	1	-1	0	0	0	0	0	55.76375	57.56008	56.91876	14.43412	66.295	57.73972	-0.3549957	56.25774	-0.7450008	14.40662	7.799911E-02	0	3	1	0.15	-1	0.6000977	-1.522825E-04	14.07913	0.9754058	14.29984	12.19939	0.234785	3.069573	86.92047
9/12/2014 2:43:02 PM	14:43:02	0	A	1	-1	0	0	0	0	0	55.76375	57.33554	56.95297	14.43413	66.48	57.69481	-0.3600006	56.34756	-0.743	14.40753	7.799911E-02	0	3	1	0.15	-1	0.7998047	-1.522825E-04	14.07413	0.9750591	14.27489	12.04707	0.2347726	3.069411	86.9159
9/12/2014 2:43:12 PM	14:43:12	0	A	1	-1	0	0	-1	0	0	55.67393	57.82953	56.9444	14.43413	66.75	57.78462	-0.3600006	56.30265	-0.7399998	14.40713	7.699966E-02	0	3	1	0.15	-1	0.7998047	-1.142584E-04	14.07913	0.9754058	14.32479	12.34804	0.2332759	3.049843	86.36178
9/12/2014 2:43:22 PM	14:43:22	0	A	1	-1	0	0	-1	0	0	55.67393	57.82953	56.9444	14.43413	66.75	57.78462	-0.3600006	56.30265	-0.7259998	14.40767	7.799911E-02	0	3	1	0.15	-1	0.6000977	-1.903997E-04	14.07413	0.9750591	14.32479	12.31959	0.2347837	3.069556	86.91999
9/12/2014 2:43:32 PM	14:43:32	0	A	1	-1	0	0	0	0	0	55.80866	57.91935	56.97861	14.43413	66.61501	57.78462	-0.3600006	56.30265	-0.7329998	14.40774	7.900047E-02	0	3	1	0.15	-1	0.7998047	-1.522825E-04	14.07413	0.9750591	14.32479	12.3691	0.2362809	3.08913	87.47429
9/12/2014 2:43:42 PM	14:43:42	0	A	1	-1	0	0	0	0	0	55.80866	58.41334	56.97861	14.43413	66.705	57.69481	-0.3600006	56.34756	-0.7339993	14.40727	7.600021E-02	0	3	1	0.15	-1	0.7998047	-1.522825E-04	14.07413	0.9750591	14.27489	12.64162	0.2333033	3.050201	86.37193
9/12/2014 2:43:52 PM	14:43:52	0	A	1	-1	0	0	0	0	0	55.76375	58.32352	56.97861	14.43413	66.705	57.78462	-0.3600006	56.43737	-0.7280006	14.40792	7.500076E-02	0	3	1	0.15	-1	0.6000977	-1.142584E-04	14.07913	0.9754058	14.32479	12.62056	0.2302537	3.01033	85.24291
9/12/2014 2:44:02 PM	14:44:02	0	A	1	-1	0	0	0	0	0	55.80866	58.81752	56.98715	14.43413	66.27	57.87444	-0.3549957	56.39246	-0.75	14.40717	7.600021E-02	0	3	1	0.15	-1	0.7998047	-1.522825E-04	14.07913	0.9754058	14.37469	12.89308	0.2302572	3.010377	85.24424
9/12/2014 2:44:12 PM	14:44:12	0	A	1	-1	0	0	0	0	0	55.80866	58.63788	56.98715	14.43413	65.88	57.69481	-0.3549957	56.34756	-0.743	14.40731	7.900047E-02	0	3	1	0.15	-1	0.6000977	-1.522825E-04	14.07413	0.9750591	14.27489	12.76549	0.2362675	3.088955	87.46931
9/12/2014 2:44:22 PM	14:44:22	0	A	1	-1	0	0	-1	0	0	55.80866	58.41334	56.98715	14.43413	65.88	57.69481	-0.3600006	56.48228	-0.7310009	14.40745	7.799911E-02	0	3	1	0.15	-1	1	-1.522825E-04	14.07413	0.9750591	14.27489	12.64162	0.2347426	3.069018	86.90476
9/12/2014 2:44:32 PM	14:44:32	0	A	1	-1	0	0	0	0	0	55.80866	58.68279	56.98715	14.43413	65.77	57.78462	-0.3600006	56.30265	-0.7250004	14.40782	7.799911E-02	0	3	1	0.15	-1	0.7998047	-1.903997E-04	14.07413	0.9750591	14.32479	12.79024	0.2347848	3.069571	86.92043
9/12/2014 2:44:42 PM	14:44:42	0	A	1	-1	0	0	0	0	0	55.80866	58.68279	56.9957	14.43375	65.64999	57.87444	-0.3549957	56.39246	-0.7369995	14.40726	7.699966E-02	0	3	1	0.15	-1	0.6000977	-1.142584E-04	14.07875	0.9754052	14.37469	12.81869	0.2332934	3.050072	86.36828
9/12/2014 2:44:52 PM	14:44:52	0	A	1	-1	0	0	0	0	0	55.94338	58.7277	56.9957	14.43375	65.64999	57.82953	-0.3600006	56.34756	-0.7350006	14.40693	7.699966E-02	0	3	1	0.15	-1	0.7998047	-1.522825E-04	14.07875	0.9754052	14.34974	12.84348	0.2332645	3.049694	86.35758
9/12/2014 2:45:02 PM	14:45:02	0	A	1	-1	0	0	0	0	0	55.80866	58.81752	56.9957	14.4345	65.28999	57.6499	-0.3549957	56.43737	-0.7310009	14.40754	7.699966E-02	0	3	1	0.15	-1	0.7998047	-1.142584E-04	14.0795	0.9754065	14.24994	12.89315	0.2332859	3.049974	86.36549
9/12/2014 2:45:12 PM	14:45:12	0	A	1	-1	0	0	0	0	0	55.94338	58.86242	56.98715	14.43375	64.955	57.82953	-0.3549957	56.48228	-0.7310009	14.40715	7.500076E-02	0	3	1	0.15	-1	0.7998047	-1.522825E-04	14.07375	0.9750584	14.34974	12.88925	0.2317604	3.030029	85.80073
9/12/2014 2:45:22 PM	14:45:22	0	A	1	-1	0	0	0	0	0	55.80866	58.86242	56.98715	14.43375	64.955	57.6499	-0.3600006	56.43737	-0.7299995	14.40755	7.600021E-02	0	3	1	0.15	-1	0.7998047	-1.142584E-04	14.07875	0.9754052	14.24994	12.9178	0.2317733	3.030198	85.8055
9/12/2014 2:45:32 PM	14:45:32	0	A	1	-1	0	0	0	0	0	55.80866	58.90733	57.00424	14.4345	64.99001	57.69481	-0.3549957	56.34756	-0.7310009	14.40812	7.699966E-02	0	3	1	0.15	-1	0.6000977	-1.142584E-04	14.0745	0.9750597	14.27489	12.91414	0.2333101	3.050291	86.37447
9/12/2014 2:45:42 PM	14:45:42	0	A	1	-1	0	0	-1	0	0	55.94338	58.54807	56.97861	14.43337	65.175	57.6499	-0.3600006	56.43737	-0.7259998	14.40725	7.600021E-02	0	3	1	0.15	-1	0.6000977	-1.142584E-04	14.07838	0.9754045	14.24994	12.74433	0.2317709	3.030166	85.8046
9/12/2014 2:45:52 PM	14:45:52	0	A	1	-1	0	0	0	0	0	55.94338	58.45825	56.97861	14.43337	65.175	57.87444	-0.3549957	56.39246	-0.7210007	14.40746	7.699966E-02	0	3	1	0.15	-1	0.7998047	-1.522825E-04	14.07838	0.9754045	14.37469	12.69475	0.2332951	3.050093	86.36888
9/12/2014 2:46:02 PM	14:46:02	0	A	1	-1	0	0	-1	0	0	55.94338	58.14389	56.97003	14.43413	65.28999	57.78462	-0.3549957	56.43737	-0.7250004	14.40829	7.699966E-02	0	3	1	0.15	-1	0.7998047	-1.142584E-04	14.07913	0.9754058	14.32479	12.52145	0.233292	3.050053	86.36773
9/12/2014 2:46:12 PM	14:46:12	0	A	1	-1	0	0	0	0	0	56.07811	57.73972	56.95297	14.43337	65.17	57.82953	-0.3549957	56.52719	-0.7320004	14.40699	7.600021E-02	0	3	1	0.15	-1	0.6000977	-1.522825E-04	14.07838	0.9754045	14.34974	12.29836	0.2317494	3.029886	85.79666
9/12/2014 2:46:22 PM	14:46:22	0	A	1	-1	0	0	0	0	0	55.94338	57.56008	56.95297	14.43337	65.17	57.87444	-0.3549957	56.52719	-0.7299995	14.40685	7.500076E-02	0	3	1	0.15	-1	0.7998047	-1.522825E-04	14.07838	0.9754045	14.37469	12.19928	0.2302257	3.009965	85.23259
9/12/2014 2:46:32 PM	14:46:32	0	A	1	-1	0	0	0	0	0	55.94338	57.02118	56.9444	14.43413	65.28999	57.78462	-0.3549957	56.5721	-0.7220001	14.40785	7.600021E-02	0	3	1	0.15	-1	0.7998047	-1.142584E-04	14.07913	0.9754058	14.32479	11.90208	0.2317466	3.029849	85.79562
9/12/2014 2:46:42 PM	14:46:42	0	A	1	-1	0	0	0	0	0	56.07811	57.42536	56.9444	14.4345	65.52499	57.87444	-0.3549957	56.66191	-0.7409992	14.40758	0.0739994	0	3	1	0.15	-1	0.7998047	-1.522825E-04	14.0795	0.9754065	14.37469	12.12513	0.2286672	2.989588	84.65558
9/12/2014 2:46:52 PM	14:46:52	0	A	1	-1	0	0	0	0	0	55.94338	57.47026	56.9444	14.4345	65.52499	57.73972	-0.3500061	56.52719	-0.7280006	14.40833	7.699966E-02	0	3	1	0.15	-1	0.6000977	-1.142584E-04	14.08449	0.9757521	14.29984	12.17823	0.2332728	3.049802	86.36064
9/12/2014 2:47:02 PM	14:47:02	0	A	1	-1	0	0	0	0	0	55.80866	56.79664	56.9444	14.43375	65.69	57.78462	-0.3500061	56.5721	-0.7329998	14.40759	0.0739994	0	3	1	0.15	-1	0.7998047	-1.142584E-04	14.08374	0.9757509	14.32479	11.80649	0.2302219	3.009916	85.23118
9/12/2014 2:47:12 PM	14:47:12	0	A	1	-1	0	0	0	0	0	55.80866	57.15591	56.93585	14.43337	65.52	57.82953	-0.3500061	56.48228	-0.7229996	14.40739	7.500076E-02	0	3	1	0.15	-1	0.7998047	-1.522825E-04	14.08837	0.976097	14.34974	12.0331	0.2317623	3.030054	85.80143
9/12/2014 2:47:22 PM	14:47:22	0	A	1	-1	0	0	0	0	0	55.94338	57.15591	56.93585	14.43337	65.52	57.82953	-0.3500061	56.61701	-0.7280006	14.40674	0.0739994	0	3	1	0.15	-1	0.7998047	-1.142584E-04	14.08337	0.9757502	14.34974	12.00465	0.2286701	2.989627	84.65668
9/12/2014 2:47:32 PM	14:47:32	0	A	1	-1	0	0	0	0	0	55.94338	57.56008	56.9444	14.43412	65.455	57.78462	-0.3500061	56.5721	-0.7180004	14.40818	7.600021E-02	0	3	1	0.15	-1	0.6000977	-1.522825E-04	14.07913	0.9754058	14.32479	12.19939	0.2302267	3.009978	85.23293
9/12/2014 2:47:42 PM	14:47:42	0	A	1	10	11.42857	5842.286	12	17.14286	6000	57.42536	57.60499	56.92731	14.43488	65.45	57.78462	0.1199951	56.5721	-0.7399998	14.40817	7.699966E-02	0	3	1	0.15	-1	1	-2.285168E-04	14.54988	1.007967	14.32479	14.86557	0.2317491	3.029882	85.79655
9/12/2014 2:47:52 PM	14:47:52	0	A	1	27	38.57143	19717.71	28	40	14000	1127.318	57.82953	56.92731	14.43488	65.45	58.23371	7.050003	56.61701	-0.7409992	14.40846	7.500076E-02	0	3	1	0.15	335	3.799805	0.2296282	21.44487	1.485629	14.57428	48.0372	0.2302193	3.009881	85.23019
9/12/2014 2:48:02 PM	14:48:02	0	A	1	40	57.14286	29211.43	40	58.57143	20500	1045.435	58.27861	56.91019	14.43337	64.91	58.50316	17.155	56.61701	-0.7210007	14.4075	7.600021E-02	0	3	1	0.15	1439	32.7998	8.931942	31.61837	2.190643	14.72398	85.41692	0.231734	3.029684	85.79096
9/12/2014 2:48:12 PM	14:48:12	0	A	1	41	58.57143	29941.71	24	34.28572	12000	975.2985	58.54807	56.8931	14.4345	64.87	58.95224	17.89	56.52719	-0.7409992	14.40805	7.500076E-02	0	3	1	0.15	1918	48.2002	17.52896	32.5695	2.256365	14.97347	88.59126	0.2302353	3.01009	85.23612
9/12/2014 2:48:22 PM	14:48:22	0	A	1	41	58.57143	29941.71	24	34.28572	12000	972.003	58.68279	56.8931	14.4345	64.87	60.07495	18.14999	56.5721	-0.7259998	14.40837	7.799911E-02	0	3	1	0.15	2010	51.3999	19.74753	32.2945	2.237314	15.59719	87.82548	0.2317508	3.029903	85.79716
9/12/2014 2:48:32 PM	14:48:32	0	A	1	41	58.57143	29941.71	24	34.28572	12000	964.271	57.60499	56.85889	14.43375	64.83501	60.70367	18.36501	56.52719	-0.7290001	14.40715	7.299995E-02	0	3	1	0.15	2074	52.7998	20.7712	32.95375	2.283104	15.94648	89.12851	0.2271496	2.969747	84.09373
9/12/2014 2:48:42 PM	14:48:42	0	A	1	41	58.57143	29941.71	29	41.42857	14500	963.2571	57.24572	56.83325	14.43412	65.105	61.9611	18.33501	56.70683	-0.7350006	14.40818	7.799911E-02	0	3	1	0.15	2053	54.3999	21.34266	32.53912	2.254319	16.57021	87.59032	0.2376792	3.107411	87.99194
9/12/2014 2:48:52 PM	14:48:52	0	A	1	41	58.57143	29941.71	27	41.42857	14500	959.9614	57.78462	56.83325	14.43487	65.35001	63.35326	18.00999	56.61701	-0.7339993	14.40878	7.799911E-02	0	3	1	0.15	2077	51.6001	20.40578	32.54488	2.254601	17.41848	87.97908	0.2347596	3.069241	86.91107
9/12/2014 2:49:02 PM	14:49:02	0	A	1	41	58.57143	29941.71	29	34.28572	12000	949.0607	57.73972	56.83325	14.43487	65.35001	64.20652	18.12	56.66191	-0.7409992	14.40882	7.500076E-02	0	3	1	0.15	2115	52.6001	21.18181	32.66487	2.262913	17.89251	88.32081	0.2302125	3.009793	85.22769
9/12/2014 2:49:12 PM	14:49:12	0	A	1	44	62.85714	32132.57	32	45.71429	16000	973.6508	56.93137	56.80759	14.43375	65.27	65.1945	21.86	56.70683	-0.7350006	14.4078	0.0739994	0	3	1	0.15	2352	59.6001	26.69012	36.09375	2.50065	18.44139	98.01495	0.2286594	2.989487	84.65272
9/12/2014 2:49:22 PM	14:49:22	0	A	1	45	64.28571	32862.86	29	41.42857	14500	955.5251	56.34756	56.79904	14.43337	65.17	66.45193	22.815	56.61701	-0.7229996	14.40725	0.0739994	0	3	1	0.15	2516	66.7998	32.00015	37.30837	2.584868	19.13996	101.0572	0.2286741	2.98968	84.65816
9/12/2014 2:49:32 PM	14:49:32	0	A	1	45	64.28571	32862.86	30	42.85714	15000	953.2435	56.39246	56.79904	14.43337	65.17	67.43992	22.94	56.66191	-0.7579994	14.40808	7.900047E-02	0	3	1	0.15	2607	66.3999	32.95905	37.26337	2.581751	19.68884	100.9631	0.2376883	3.107531	87.99532
9/12/2014 2:49:42 PM	14:49:42	0	A	1	45	64.28571	32862.86	30	42.85714	15000	950.455	56.84155	56.79904	14.43337	65.3	68.51772	22.66499	56.79664	-0.7159996	14.40721	7.900047E-02	0	3	1	0.15	2626	68	33.89919	37.54838	2.601497	20.28762	102.0899	0.2361676	3.087649	87.43234
9/12/2014 2:49:52 PM	14:49:52	0	A	1	45	64.28571	32862.86	31	44.28571	15500	943.1033	56.97627	56.79904	14.43375	65.17999	69.55061	23.41	56.61701	-0.7099991	14.40806	7.600021E-02	0	3	1	0.15	2631	68.7998	34.36464	37.49375	2.597644	20.86145	102.0318	0.2317385	3.029743	85.79262
9/12/2014 2:50:02 PM	14:50:02	0	A	1	46	65.71429	33593.14	30	42.85714	15000	940.1879	56.84155	56.79904	14.43375	65.17999	70.44878	23.50999	56.84155	-0.7250004	14.40787	0.0720005	0	3	1	0.15	2630	69	34.45158	37.93876	2.628475	21.36043	103.1777	0.2270887	2.968951	84.07119
9/12/2014 2:50:12 PM	14:50:12	0	A	1	47	67.14285	34323.43	32	45.71429	16000	961.229	57.06609	56.77341	14.43375	65.27499	71.34694	25.22	56.79664	-0.7169991	14.40795	7.799911E-02	0	3	1	0.15	2766	70.3999	37.07579	39.81376	2.758379	21.85941	108.4717	0.233211	3.048995	86.33777
9/12/2014 2:50:22 PM	14:50:22	0	A	1	48	68.57143	35053.72	34	48.57143	17000	959.3277	58.1888	56.79904	14.43413	65.52499	72.91873	25.88499	56.61701	-0.6849995	14.40756	6.999969E-02	0	3	1	0.15	2921	74.7998	41.60047	40.37914	2.797477	22.73263	110.8141	0.2208512	2.887403	81.762
9/12/2014 2:50:32 PM	14:50:32	0	A	1	48	68.57143	35053.72	34	48.57143	17000	954.2575	58.05407	56.79904	14.43413	65.52499	74.13126	26.705	56.75173	-0.7310009	14.40727	7.099915E-02	0	3	1	0.15	2970	77.3999	43.65571	40.59912	2.812718	23.40625	111.2998	0.2192235	2.866122	81.15939
9/12/2014 2:50:42 PM	14:50:42	0	A	1	48	68.57143	35053.72	34	48.57143	17000	949.1029	57.15591	56.79904	14.43337	65.42	75.56792	26.405	56.84155	-0.7250004	14.40811	7.699966E-02	0	3	1	0.15	2965	80	45.1628	41.04838	2.84399	24.2044	112.1264	0.2332026	3.048884	86.33465
9/12/2014 2:50:52 PM	14:50:52	0	A	1	48	68.57143	35053.72	35	50	17500	949.9479	57.56008	56.78195	14.43337	65.295	76.40527	26.37	56.75173	-0.7439995	14.40735	7.299995E-02	0	3	1	0.15	2978	77.2002	43.7733	40.57337	2.81108	24.66959	110.8703	0.2271036	2.969146	84.07671
9/12/2014 2:51:02 PM	14:51:02	0	A	1	51	72.85714	37244.57	38	54.28572	19000	981.3828	57.73972	56.78195	14.43337	65.295	78.12402	29.955	56.88646	-0.7180004	14.40862	7.600021E-02	0	3	1	0.15	3303	87.3999	54.83934	45.01337	3.118701	25.62445	122.3614	0.2208038	2.886783	81.74446
9/12/2014 2:51:12 PM	14:51:12	0	A	1	51	72.85714	37244.57	39	55.71429	19500	981.5095	58.54807	56.78195	14.433	65.245	80.28348	30.05499	56.93137	-0.7099991	14.40785	7.699966E-02	0	3	1	0.15	3374	90.3999	57.94537	44.948	3.114252	26.82416	122.8207	0.2316689	3.028833	85.76685
9/12/2014 2:51:22 PM	14:51:22	0	A	1	51	72.85714	37244.57	39	55.71429	19500	986.4529	59.13187	56.79904	14.433	65.325	120.0449	29.875	56.93137	0.3050003	14.44435	1.191	1	3	1	0.15	3335	93	58.92629	44.20799	3.06298	48.91381	121.4247	0.9168341	11.98666	339.424
9/12/2014 2:51:32 PM	14:51:32	0	A	1	51	72.85714	37244.57	39	55.71429	19500	996.0861	59.62587	56.79904	14.433	65.325	189.8629	29.61501	56.97627	0.323	14.44359	1.142	1	3	1	0.15	3365	88.2002	56.38115	43.908	3.042195	87.70161	121.0466	0.8977839	11.7376	332.3713
9/12/2014 2:51:42 PM	14:51:42	0	A	1	50	71.42857	36514.29	38	54.28572	19000	991.5229	60.38931	56.76483	14.43337	65.28999	211.7299	29.94	56.52719	0.3220005	14.44226	1.141001	1	3	1	0.15	3371	89.2002	57.25201	44.10838	3.055999	99.84997	122.1279	0.8977569	11.73725	332.3614
9/12/2014 2:51:52 PM	14:51:52	0	A	1	51	72.85714	37244.57	39	55.71429	19500	992.1989	60.52403	56.77341	14.43263	64.965	219.5551	29.83	56.66191	0.2940006	14.44206	1.157	1	3	1	0.15	3377	89.2002	57.22519	44.39762	3.076198	104.1973	122.9618	0.9031017	11.80713	334.3401
9/12/2014 2:52:02 PM	14:52:02	0	A	1	51	72.85714	37244.57	40	57.14286	20000	997.8606	60.07495	56.77341	14.43263	64.965	226.8151	30.575	57.02118	0.316	14.4417	1.174	1	3	1	0.15	3411	93.6001	60.91859	45.23263	3.134054	108.2306	124.6943	0.9090998	11.88555	336.5606
9/12/2014 2:52:12 PM	14:52:12	0	A	1	52	74.28571	37974.86	42	60	21000	1011.972	60.52403	56.78195	14.43263	64.925	234.8577	31.52499	57.111	0.3430004	14.44387	1.23	1	3	1	0.15	3567	93	63.16147	46.60262	3.228977	112.6987	128.3856	0.9303845	12.16382	344.4405
9/12/2014 2:52:22 PM	14:52:22	0	A	1	53	75.71429	38705.14	43	60	21000	1005.635	59.94022	56.78195	14.433	64.955	239.0705	33.17	57.38045	0.4880009	14.44865	1.290001	1	3	1	0.15	3719	97.2002	68.82711	47.853	3.315526	115.0392	130.9227	0.9537833	12.46974	353.103
9/12/2014 2:52:32 PM	14:52:32	0	A	1	53	75.71429	38705.14	43	62.85714	22000	1008.55	59.49114	56.78195	14.433	64.955	244.6273	33.59	57.6499	0.441	14.44789	1.287001	1	3	1	0.15	3741	100.2002	71.51336	47.578	3.296474	118.1263	129.9212	0.952424	12.45197	352.5998
9/12/2014 2:52:42 PM	14:52:42	0	A	1	53	75.71429	38705.14	43	61.42857	21500	1006.776	59.08696	56.7905	14.43225	65	249.1698	33.28999	58.09898	0.4330006	14.44768	1.278999	1	3	1	0.15	3759	97.7998	69.99653	47.97224	3.323961	120.6499	130.5468	0.9501458	12.42218	351.7564
9/12/2014 2:52:52 PM	14:52:52	0	A	1	53	75.71429	38705.14	44	62.85714	22000	1005.001	58.63788	56.75629	14.43263	64.92	253.4917	33.685	58.32352	0.3869991	14.44614	1.299999	1	3	1	0.15	3774	100.3999	72.00069	48.29263	3.346073	123.051	130.9484	0.9565265	12.5056	354.1186
9/12/2014 2:53:02 PM	14:53:02	0	A	1	53	75.71429	38705.14	44	62.85714	22000	1003.86	58.32352	56.75629	14.43263	64.92	256.1819	33.78	58.50316	0.3880005	14.44885	1.295	1	3	1	0.15	3790	101.2002	73.17167	48.16763	3.337412	124.5455	130.4097	0.9524059	12.45173	352.5931
9/12/2014 2:53:12 PM	14:53:12	0	A	1	53	75.71429	38705.14	44	62.85714	22000	1004.283	58.14389	56.75629	14.43337	64.66	258.4752	33.39	58.68279	0.4020004	14.44942	1.281	1	3	1	0.15	3791	100.3999	72.18052	48.48837	3.359462	125.8196	131.0159	0.9492903	12.411	351.4397
9/12/2014 2:53:22 PM	14:53:22	0	A	1	53	75.71429	38705.14	44	62.85714	22000	1003.522	58.05407	56.76483	14.43263	64.62	261.8269	33.64999	58.86242	0.4279995	14.44987	1.273001	1	3	1	0.15	3801	100	72.0815	48.18763	3.338798	127.6816	130.2468	0.9461845	12.37039	350.2899
9/12/2014 2:53:32 PM	14:53:32	0	A	1	53	75.71429	38705.14	44	62.85714	22000	1004.79	57.91935	56.76483	14.43263	64.62	263.8997	33.655	58.95224	0.4020004	14.4465	1.267	1	3	1	0.15	3793	100.2002	72.5074	48.05262	3.329444	128.8332	129.8245	0.9404249	12.29509	348.1576
9/12/2014 2:53:42 PM	14:53:42	0	A	1	53	75.71429	38705.14	43	61.42857	21500	998.9592	57.29063	56.73065	14.43225	64.815	265.5315	33.87	59.2666	0.4060001	14.44494	1.271	1	3	1	0.15	3795	100.2002	72.54563	48.17226	3.33782	129.6662	129.6189	0.9449257	12.35393	349.8239
9/12/2014 2:53:52 PM	14:53:52	0	A	1	53	75.71429	38705.14	44	62.85714	22000	1000.734	57.29063	56.74777	14.43263	64.97	267.1632	33.50999	59.31151	0.4039993	14.44582	1.26	1	3	1	0.15	3785	100.3999	72.49875	48.16262	3.337065	130.6463	129.5933	0.9408203	12.30026	348.304
9/12/2014 2:54:02 PM	14:54:02	0	A	1	53	75.71429	38705.14	44	62.85714	22000	999.0013	56.88646	56.74777	14.43263	64.97	268.2216	34.25	59.44623	0.4389992	14.44925	1.281	1	3	1	0.15	3813	101	73.32539	48.81263	3.382103	131.2343	130.7949	0.9486033	12.40201	351.1854
9/12/2014 2:54:12 PM	14:54:12	0	A	1	54	77.14286	39435.43	45	65.71429	23000	1010.789	57.15591	56.72211	14.43263	65.03	271.6616	35.36	59.58096	0.5	14.45034	1.332001	1	3	1	0.15	3951	101.6001	76.43062	49.44262	3.425753	133.1453	132.4624	0.9671318	12.64426	358.0449
9/12/2014 2:54:22 PM	14:54:22	0	A	1	54	77.14286	39435.43	46	65.71429	23000	1014.719	58.14389	56.71356	14.43413	65.185	276.4687	36.255	59.76059	0.5389996	14.45154	1.360001	1	3	1	0.15	4033	105.3999	81.39548	50.22913	3.479887	135.8159	135.0294	0.9760086	12.76031	361.3312
9/12/2014 2:54:32 PM	14:54:32	0	A	1	55	78.57143	40165.71	47	68.57143	24000	1014.127	58.27861	56.71356	14.43413	65.185	281.8049	37.36501	59.67077	0.5839996	14.45516	1.417999	1	3	1	0.15	4102	110	86.0685	51.38913	3.560252	138.7805	137.7595	0.9978511	13.04588	369.4176
9/12/2014 2:54:42 PM	14:54:42	0	A	1	55	78.57143	40165.71	49	70	24500	1017.423	58.00917	56.69644	14.43225	64.955	288.2842	37.985	59.85041	0.6149998	14.45383	1.441	1	3	1	0.15	4256	109.7998	88.97528	52.14725	3.613244	142.3801	139.4664	1.007051	13.16615	372.8233
9/12/2014 2:54:52 PM	14:54:52	0	A	1	55	80	40896	50	71.42857	25000	1018.31	58.41334	56.70499	14.43337	65.015	292.7169	38.24001	59.98513	0.6189995	14.45462	1.452	1	3	1	0.15	4327	110.7998	90.95399	52.47337	3.635558	144.8427	140.2873	1.009025	13.19196	373.5542
9/12/2014 2:55:02 PM	14:55:02	0	A	1	56	78.57143	40165.71	50	71.42857	25000	1019.873	58.09898	56.70499	14.43337	65.015	296.254	38.175	60.29949	0.6119995	14.4526	1.450001	1	3	1	0.15	4340	112.3999	92.87992	53.05837	3.676089	146.8078	141.3237	1.008279	13.18221	373.2779
9/12/2014 2:55:12 PM	14:55:12	0	A	1	56	80	40896	50	71.42857	25000	1019.24	58.45825	56.67081	14.43337	65.38	300.4181	38.55	60.43422	0.6210003	14.45484	1.457001	1	3	1	0.15	4305	111	91.14753	52.80837	3.658768	149.1212	141.0621	1.014461	13.26303	375.5667
9/12/2014 2:55:22 PM	14:55:22	0	A	1	55	78.57143	40165.71	50	71.42857	25000	1016.578	58.50316	56.66223	14.4345	65.53999	302.0747	38.91	60.74857	0.5359993	14.45586	1.459	1	3	1	0.15	4373	112.2002	93.25319	52.95451	3.668607	150.0415	141.4102	1.011095	13.21902	374.3204
9/12/2014 2:55:32 PM	14:55:32	0	A	1	55	78.57143	40165.71	51	72.85714	25500	1012.395	58.00917	56.66223	14.4345	65.53999	303.597	38.69	60.92821	0.5909996	14.45669	1.459	1	3	1	0.15	4384	111.6001	92.98685	53.2295	3.687658	150.8873	141.6174	1.007832	13.17637	373.1125
9/12/2014 2:55:42 PM	14:55:42	0	A	1	56	80	40896	50	71.42857	25000	1009.902	57.02118	56.66223	14.433	65.36	304.9403	38.955	61.06293	0.5410004	14.45132	1.465	1	3	1	0.15	4369	114.3999	95.16427	52.798	3.658145	151.6335	139.8935	1.012691	13.2399	374.9117
9/12/2014 2:55:52 PM	14:55:52	0	A	1	55	78.57143	40165.71	51	72.85714	25500	1004.621	56.07811	56.66223	14.433	65.37	305.6119	38.88499	60.92821	0.6380005	14.45432	1.443001	1	3	1	0.15	4385	111.3999	93.17521	53.00301	3.672348	152.0066	139.5881	1.009128	13.19331	373.5923
9/12/2014 2:56:02 PM	14:56:02	0	A	1	56	80	40896	50	72.85714	25500	1003.987	55.26976	56.66223	14.433	65.37	306.0149	38.92	60.92821	0.6639996	14.45342	1.469	1	3	1	0.15	4411	112.3999	94.39939	53.203	3.686205	152.2305	139.3769	1.01013	13.20641	373.9634
9/12/2014 2:56:12 PM	14:56:12	0	A	1	55	78.57143	40165.71	51	72.85714	25500	1003.776	55.35957	56.6366	14.433	65.56	306.4626	38.685	60.83839	0.5970001	14.45653	1.441	1	3	1	0.15	4388	114.2002	95.24401	53.20799	3.686551	152.4792	139.4597	1.0048	13.13673	371.9901
9/12/2014 2:56:22 PM	14:56:22	0	A	1	55	78.57143	40165.71	50	71.42857	25000	1011.043	55.44939	56.64517	14.433	65.59	307.8506	38.855	60.8833	0.5540009	14.45577	1.436001	1	3	1	0.15	4313	113.7998	93.78049	52.993	3.671655	153.2504	139.0631	1.002971	13.11282	371.3131
9/12/2014 2:56:32 PM	14:56:32	0	A	1	55	78.57143	40165.71	50	71.42857	25000	1013.198	56.52719	56.64517	14.433	65.59	309.5521	38.63	60.74857	0.5410004	14.45421	1.441999	1	3	1	0.15	4361	111.2002	92.33319	53.153	3.682741	154.1956	140.2752	1.005151	13.14132	372.1201
9/12/2014 2:56:42 PM	14:56:42	0	A	1	55	78.57143	40165.71	51	71.42857	25000	1006.015	56.21283	56.64517	14.43337	65.855	309.6416	39.14999	60.92821	0.6110001	14.45336	1.438	1	3	1	0.15	4376	112.7998	94.15035	52.85337	3.661886	154.2453	139.3656	1.003549	13.12037	371.5268
9/12/2014 2:56:52 PM	14:56:52	0	A	1	55	78.57143	40165.71	51	71.42857	25000	1006.057	56.34756	56.65369	14.433	65.985	310.4923	38.52499	60.97312	0.5049992	14.45338	1.434	1	3	1	0.15	4359	113.3999	94.1165	53.173	3.684127	154.718	140.175	1.002117	13.10165	370.9967
9/12/2014 2:57:02 PM	14:57:02	0	A	1	55	78.57143	40165.71	51	72.85714	25500	1005.804	56.25774	56.65369	14.433	65.985	310.9401	38.72	61.01802	0.6399994	14.45523	1.448	1	3	1	0.15	4365	110.6001	91.75275	53.623	3.715305	154.9667	141.0813	1.006988	13.16533	372.8
9/12/2014 2:57:12 PM	14:57:12	0	A	1	55	80	40896	51	72.85714	25500	1005.466	55.98829	56.64517	14.433	66.005	310.9401	39.035	60.8833	0.5890007	14.45382	1.452999	1	3	1	0.15	4402	113.2002	95.04492	53.168	3.68378	154.9667	139.8763	1.00882	13.18929	373.4783
9/12/2014 2:57:22 PM	14:57:22	0	A	1	56	80	40896	51	72.85714	25500	1011.55	56.07811	56.67081	14.433	66.245	313.1788	39.33	60.83839	0.6060009	14.45266	1.478001	1	3	1	0.15	4444	115	97.30566	53.873	3.732626	156.2104	141.4778	1.017409	13.30158	376.6581
9/12/2014 2:57:32 PM	14:57:32	0	A	1	56	80	40896	51	72.85714	25500	1011.465	56.52719	56.67081	14.433	66.245	315.2384	39.61501	60.8833	0.6240005	14.45461	1.471001	1	3	1	0.15	4425	120.6001	101.4391	54.573	3.781126	157.3547	143.3448	1.015048	13.27071	375.7841
9/12/2014 2:57:42 PM	14:57:42	0	A	1	56	80	40896	52	74.28571	26000	1012.606	56.66191	56.66223	14.43338	66.425	317.5219	39.765	60.8833	0.6529999	14.45611	1.469	1	3	1	0.15	4506	114.2002	98.14836	54.41838	3.770315	158.6233	143.1189	1.014418	13.26247	375.5507
9/12/2014 2:57:52 PM	14:57:52	0	A	1	56	80	40896	52	74.28571	26000	1016.705	57.33554	56.67935	14.433	66.395	319.9397	40.17999	60.8833	0.6119995	14.45617	1.472	1	3	1	0.15	4520	115.6001	99.65807	54.653	3.786669	159.9665	144.1684	1.020589	13.34316	377.8355
9/12/2014 2:58:02 PM	14:58:02	0	A	1	56	80	40896	52	74.28571	26000	1015.733	57.42536	56.67935	14.433	66.395	321.5068	39.515	60.97312	0.5620003	14.45721	1.469999	1	3	1	0.15	4518	116.2002	99.78619	54.248	3.758609	160.8371	143.3708	1.015381	13.27507	375.9073
9/12/2014 2:58:12 PM	14:58:12	0	A	1	56	80	40896	52	74.28571	26000	1013.451	57.111	56.6879	14.43263	66.265	322.6262	40.235	61.15275	0.6299992	14.45511	1.492001	1	3	1	0.15	4500	114.6001	97.84656	54.26263	3.759719	161.459	143.1521	1.02199	13.36147	378.354
9/12/2014 2:58:22 PM	14:58:22	0	A	1	56	80	40896	53	75.71429	26500	1019.662	57.73972	56.6879	14.43337	66.495	323.3874	39.7	60.97312	0.566	14.45733	1.447001	1	3	1	0.15	4533	115	99.25439	54.32838	3.76408	161.8819	143.7942	1.006431	13.15805	372.5939
9/12/2014 2:58:32 PM	14:58:32	0	A	1	56	80	40896	52	74.28571	26000	1015.395	57.91935	56.6879	14.43337	66.495	324.6858	40.455	61.19766	0.6149998	14.45676	1.462999	1	3	1	0.15	4539	116.2002	100.5956	54.62337	3.784519	162.6032	144.5731	1.01619	13.28564	376.2068
9/12/2014 2:58:42 PM	14:58:42	0	A	1	56	80	40896	52	74.28571	26000	1010.578	56.84155	56.71356	14.43375	66.49001	324.7306	39.67999	61.37729	0.6399994	14.45569	1.454	1	3	1	0.15	4481	121.2002	103.5761	54.52875	3.777864	162.6281	143.7148	1.01013	13.20641	373.9632
9/12/2014 2:58:52 PM	14:58:52	0	A	1	56	80	40896	52	74.28571	26000	1010.494	56.30265	56.71356	14.43375	66.36501	324.5067	40.075	61.4222	0.6270008	14.4571	1.465	1	3	1	0.15	4540	115.3999	99.58072	54.43375	3.771283	162.5037	142.8592	1.012527	13.23775	374.8506
9/12/2014 2:59:02 PM	14:59:02	0	A	1	56	80	40896	52	74.28571	26000	1009.015	55.94338	56.71356	14.43375	66.36501	324.1933	40.245	61.37729	0.6049995	14.45673	1.48	1	3	1	0.15	4536	116	100.3566	54.60375	3.78306	162.3296	142.9334	1.017731	13.30579	376.7775
9/12/2014 2:59:12 PM	14:59:12	0	A	1	56	80	40896	52	74.28571	26000	1007.156	55.67393	56.76483	14.433	66.41	323.5665	40.22501	61.28748	0.5629997	14.45711	1.462999	1	3	1	0.15	4503	117.6001	100.8268	53.968	3.739209	161.9814	141.3578	1.011968	13.23045	374.644
9/12/2014 2:59:22 PM	14:59:22	0	A	1	55	78.57143	40165.71	51	72.85714	25500	1008.339	55.89848	56.76483	14.43337	66.59	322.9844	39.57001	61.37729	0.5779991	14.45542	1.424999	1	3	1	0.15	4441	113.6001	96.05626	54.39338	3.768584	161.658	142.4498	0.999369	13.06572	369.9795
9/12/2014 2:59:32 PM	14:59:32	0	A	1	56	80	40896	52	74.28571	26000	1007.578	56.0332	56.76483	14.43337	66.59	322.5814	39.31	61.37729	0.6200008	14.45636	1.436001	1	3	1	0.15	4488	113	96.73112	53.86337	3.731862	161.4341	141.4179	1.005635	13.14765	372.2993
9/12/2014 2:59:42 PM	14:59:42	0	A	1	55	78.57143	40165.71	52	74.28571	26000	1009.86	56.61701	56.76483	14.43337	66.61	322.4919	39.49001	61.28748	0.5879993	14.45387	1.417999	1	3	1	0.15	4471	115.2002	97.89685	53.86337	3.731862	161.3844	141.8872	0.995895	13.02031	368.6934
9/12/2014 2:59:52 PM	14:59:52	0	A	1	56	80	40896	51	74.28571	26000	1009.057	56.93137	56.79904	14.433	66.86	322.3575	39.92999	61.15275	0.5760002	14.45226	1.434999	1	3	1	0.15	4440	117.2002	99.07806	54.16299	3.752719	161.3098	142.7898	1.002244	13.10332	371.0439
9/12/2014 3:00:02 PM	15:00:02	0	A	1	56	80	40896	52	74.28571	26000	1008.846	56.66191	56.79904	14.433	66.86	322.5814	39.73	61.24257	0.6730003	14.45765	1.440001	1	3	1	0.15	4469	112.7998	95.98092	53.903	3.734705	161.4341	142.012	1.004102	13.12761	371.7318
9/12/2014 3:00:12 PM	15:00:12	0	A	1	56	80	40896	51	72.85714	25500	1009.353	57.20082	56.80759	14.43262	66.82001	322.5814	38.995	61.24257	0.6369991	14.45391	1.414	1	3	1	0.15	4462	115	97.69978	54.01763	3.742745	161.4341	142.6962	0.9948937	13.00721	368.3227
9/12/2014 3:00:22 PM	15:00:22	0	A	1	56	78.57143	40165.71	51	72.85714	25500	1010.578	57.29063	56.83325	14.433	66.2	323.0291	39.24001	61.28748	0.5690002	14.45414	1.427999	1	3	1	0.15	4445	115.6001	97.666	54.108	3.748909	161.6829	142.9605	0.999733	13.07048	370.1142
9/12/2014 3:00:32 PM	15:00:32	0	A	1	56	80	40896	51	72.85714	25500	1011.846	57.78462	56.83325	14.433	66.2	323.6112	39.71001	61.33238	0.5930004	14.45559	1.427999	1	3	1	0.15	4416	111.3999	93.49767	53.953	3.738169	162.0063	143.023	0.9987018	13.057	369.7325
9/12/2014 3:00:42 PM	15:00:42	0	A	1	56	80	40896	52	74.28571	26000	1010.24	57.56008	56.85037	14.43263	65.845	322.9396	39.55	61.46711	0.6030006	14.45164	1.417999	1	3	1	0.15	4473	112.7998	96.23733	54.05262	3.745168	161.6331	143.0608	0.9959832	13.02146	368.726
9/12/2014 3:00:52 PM	15:00:52	0	A	1	56	80	40896	51	72.85714	25500	1011.043	57.82953	56.86743	14.43263	65.35001	323.7903	39.66	61.64674	0.5209999	14.45138	1.400999	1	3	1	0.15	4460	114.3999	97.1464	53.77763	3.726115	162.1058	142.6821	0.9898635	12.94145	366.4604
9/12/2014 3:01:02 PM	15:01:02	0	A	1	56	80	40896	51	72.85714	25500	1015.733	58.41334	56.86743	14.43263	65.35001	323.9694	39.285	61.69165	0.5680008	14.45229	1.422001	1	3	1	0.15	4437	114.7998	96.98325	54.32763	3.764223	162.2052	144.3415	0.9972144	13.03756	369.1819
9/12/2014 3:01:12 PM	15:01:12	6	A	1	56	80	40896	52	74.28571	26000	1011.846	58.59297	56.86743	14.43263	65.24001	324.3724	39.36501	61.69165	0.5139999	14.45413	1.431	1	3	1	0.15	4431	111.7998	94.49003	53.80762	3.728194	162.4291	143.3607	1.000407	13.07929	370.3636
9/12/2014 3:01:22 PM	15:01:22	16	A	1	56	80	40896	52	74.28571	26000	1007.832	58.54807	56.86743	14.43263	65.24001	324.4172	39.39	61.73656	0.559	14.45482	1.426001	1	3	1	0.15	4462	113.2002	96.3404	53.87763	3.733044	162.454	143.4766	0.9979594	13.0473	369.4576
9/12/2014 3:01:32 PM	15:01:32	26	A	1	56	80	40896	51	72.85714	25500	1008.254	57.56008	56.90164	14.43337	65.13499	323.7008	39.66499	61.9611	0.573	14.45394	1.429001	1	3	1	0.15	4463	114	96.70181	53.95338	3.738099	162.056	142.8402	0.9994509	13.06679	370.0098
9/12/2014 3:01:42 PM	15:01:42	36	A	1	56	80	40896	51	72.85714	25500	1009.902	57.56008	56.93585	14.43375	64.94501	323.7008	39.145	62.09583	0.5639992	14.45558	1.400999	1	3	1	0.15	4389	117.2002	98.10689	53.91375	3.735255	162.056	142.7514	0.9871051	12.90539	365.4392
9/12/2014 3:01:52 PM	15:01:52	46	A	1	55	78.57143	40165.71	51	72.85714	25500	1011.339	58.00917	56.93585	14.43375	64.94501	323.4321	39.24001	61.82637	0.5359993	14.4558	1.402	1	3	1	0.15	4446	111.7998	94.64043	53.88375	3.733177	161.9068	143.0475	0.9923024	12.97333	367.3633
9/12/2014 3:02:02 PM	15:02:02	56	A	1	55	78.57143	40165.71	51	72.85714	25500	1010.874	58.7277	56.97003	14.43337	64.8	323.3426	38.715	62.00601	0.5450001	14.45311	1.386	1	3	1	0.15	4415	113.3999	95.32561	53.42338	3.701378	161.857	142.626	0.9842885	12.86856	364.3965
9/12/2014 3:02:12 PM	15:02:12	66	A	1	56	80	40896	51	72.85714	25500	1007.705	58.41334	56.9957	14.43263	64.86	323.3874	38.925	62.18564	0.5690002	14.45496	1.412001	1	3	1	0.15	4399	114.7998	96.15266	53.64762	3.717107	161.8819	142.8686	0.9985616	13.05517	369.6806
9/12/2014 3:02:22 PM	15:02:22	76	A	1	56	80	40896	51	72.85714	25500	1010.156	58.41334	56.9957	14.43263	64.86	323.1635	38.66499	62.09583	0.5440006	14.45424	1.386	1	3	1	0.15	4408	110.7998	92.82464	53.28263	3.691818	161.7575	142.0725	0.9842289	12.86778	364.3744
9/12/2014 3:02:32 PM	15:02:32	86	A	1	56	80	40896	51	71.42857	25000	1015.606	59.22169	57.05557	14.43337	64.83501	323.2978	38.985	62.23055	0.5970001	14.45495	1.378	1	3	1	0.15	4404	112	93.74639	53.25338	3.6896	161.8321	142.6503	0.9802429	12.81567	362.8987
9/12/2014 3:02:42 PM	15:02:42	96	A	1	56	78.57143	40165.71	51	72.85714	25500	1011.972	59.2666	57.07263	14.43263	64.5	323.4769	38.98	62.41018	0.5799999	14.45388	1.388	1	3	1	0.15	4403	112.6001	94.39601	53.15763	3.683157	161.9316	142.4823	0.9877902	12.91434	365.6928
9/12/2014 3:02:52 PM	15:02:52	106	A	1	55	78.57143	40165.71	50	71.42857	25000	1010.705	59.31151	57.07263	14.43263	64.5	323.7903	38.89	62.58982	0.5610008	14.45362	1.386999	1	3	1	0.15	4349	111.7998	92.74139	53.35262	3.696668	162.1058	142.9456	0.9841025	12.86613	364.3276
9/12/2014 3:03:02 PM	15:03:02	116	A	1	56	80	40896	51	72.85714	25500	1013.029	58.59297	57.0983	14.43263	64.10001	323.4321	38.955	62.63472	0.684	14.45738	1.396999	1	3	1	0.15	4421	112.2002	94.6134	53.30762	3.69355	161.9068	142.2711	0.9877067	12.91325	365.6619
9/12/2014 3:03:12 PM	15:03:12	126	A	1	55	78.57143	40165.71	51	72.85714	25500	1011.212	58.63788	57.1496	14.433	63.72	323.3874	38.955	62.72454	0.5149994	14.45118	1.393999	1	3	1	0.15	4413	112.2002	94.27439	53.073	3.677198	161.8819	141.7903	0.9863477	12.89548	365.1588
9/12/2014 3:03:22 PM	15:03:22	136	A	1	56	80	40896	50	71.42857	25000	1012.479	58.99715	57.18381	14.433	63.505	323.8351	38.745	62.90417	0.5249996	14.45324	1.382	1	3	1	0.15	4378	113.2002	94.19338	53.23799	3.688629	162.1306	142.4396	0.9791725	12.80167	362.5024
9/12/2014 3:03:32 PM	15:03:32	146	A	1	55	78.57143	40165.71	51	72.85714	25500	1015.437	58.95224	57.18381	14.433	63.505	324.059	38.72	62.99399	0.6219997	14.45624	1.402	1	3	1	0.15	4386	110.3999	92.19418	53.158	3.683088	162.255	142.2284	0.9866277	12.89914	365.2625
9/12/2014 3:04:34 PM	15:04:34	0	A	1	55	78.57143	40165.71	49	71.42857	25000	1008.128	58.54807	57.34625	14.43225	62.94501	320.9695	38.325	63.39816	0.5680008	14.45646	1.35	1	3	1	0.15	4311	111.6001	91.76673	52.95724	3.669368	160.5387	141.4703	0.970277	12.68538	359.2092
9/12/2014 3:04:44 PM	15:04:44	0	A	1	55	78.57143	40165.71	49	70	24500	1008.254	58.45825	57.39755	14.4315	63.10001	320.6113	38.035	63.44307	0.5599995	14.45087	1.367001	1	3	1	0.15	4285	108.2002	88.2765	52.7865	3.657728	160.3396	141.029	0.9761081	12.76161	361.368
9/12/2014 3:04:54 PM	15:04:54	8	B	2	56	80	40896	50	71.42857	25000	1010.198	58.27861	57.43176	14.4315	63.33501	320.4323	37.925	63.39816	0.5869999	14.45174	1.349001	1	3	1	0.15	4320	111	91.62938	52.2915	3.623428	160.2401	139.7924	0.9701038	12.68311	359.1451
9/12/2014 3:05:04 PM	15:05:04	18	B	2	55	78.57143	40165.71	50	71.42857	25000	1013.409	59.76059	57.43176	14.4315	63.33501	320.6561	37.715	63.48798	0.5760002	14.45261	1.360001	1	3	1	0.15	4288	111	90.7876	52.3815	3.629664	160.3645	141.1738	0.9689887	12.66853	358.7323
9/12/2014 3:05:14 PM	15:05:14	28	B	2	55	78.57143	40165.71	49	70	24500	1010.832	60.47912	57.48303	14.43188	63.625	320.7457	37.905	63.5778	0.5550003	14.45179	1.353001	1	3	1	0.15	4278	110.6001	90.24974	52.40188	3.630982	160.4143	141.7891	0.9710207	12.6951	359.4846
9/12/2014 3:05:24 PM	15:05:24	38	B	2	55	78.57143	40165.71	50	71.42857	25000	1016.198	60.8833	57.51724	14.43188	63.495	321.0143	37.67999	63.98197	0.5340004	14.45081	1.334	1	3	1	0.15	4273	108.2002	87.8664	52.32688	3.625785	160.5635	141.9447	0.9637995	12.60069	356.8112
9/12/2014 3:05:34 PM	15:05:34	48	B	2	55	78.57143	40165.71	50	71.42857	25000	1012.057	60.38931	57.51724	14.43188	63.495	320.7009	38.325	64.07179	0.5799999	14.45414	1.360001	1	3	1	0.15	4286	111.3999	90.74525	52.84687	3.661816	160.3894	142.703	0.9731604	12.72307	360.2767
9/12/2014 3:05:44 PM	15:05:44	58	B	2	56	78.57143	40165.71	50	71.42857	25000	1009.226	60.03004	57.57709	14.43263	63.44501	320.2084	38.36501	64.1167	0.5869999	14.45507	1.351	1	3	1	0.15	4296	110.6001	90.30237	52.63763	3.647127	160.1158	141.9474	0.9699223	12.68074	359.0779
9/12/2014 3:05:54 PM	15:05:54	68	B	2	55	78.57143	40165.71	50	71.42857	25000	1012.057	59.71568	57.6113	14.43263	63.2	320.2531	38.16499	64.29633	0.5580006	14.45319	1.344999	1	3	1	0.15	4304	111.3999	91.29002	52.59762	3.644355	160.1406	141.6077	0.9675331	12.6495	358.1934
9/12/2014 3:06:04 PM	15:06:04	78	B	2	55	78.57143	40165.71	50	71.42857	25000	1008.677	59.17678	57.6113	14.43263	63.2	320.2084	38.55	64.38615	0.6000004	14.45608	1.363001	1	3	1	0.15	4290	108	88.05245	53.05762	3.676228	160.1158	142.1909	0.9757544	12.75699	361.2371
9/12/2014 3:06:14 PM	15:06:14	88	B	2	55	78.57143	40165.71	50	71.42857	25000	1008.466	58.59297	57.67117	14.43225	63.19	319.6711	37.7	64.38615	0.5849991	14.4543	1.364	1	3	1	0.15	4337	111.3999	91.82505	52.43225	3.632992	159.8173	140.3488	0.9742797	12.73771	360.6911
9/12/2014 3:06:24 PM	15:06:24	98	B	2	55	78.57143	40165.71	50	71.42857	25000	1007.705	58.81752	57.67969	14.4315	63.24001	319.895	38.545	64.61069	0.5879993	14.45336	1.362	1	3	1	0.15	4330	110.7998	91.18211	52.80149	3.658767	159.9417	141.3493	0.9711794	12.69717	359.5433
9/12/2014 3:06:34 PM	15:06:34	108	B	2	55	78.57143	40165.71	50	71.42857	25000	1005.762	58.09898	57.67969	14.4315	63.24001	319.0443	38.125	64.43106	0.6070004	14.45044	1.354	1	3	1	0.15	4341	111.2002	92.0748	52.3515	3.627585	159.469	139.782	0.9705557	12.68902	359.3124
9/12/2014 3:06:44 PM	15:06:44	118	B	2	55	78.57143	40165.71	50	71.42857	25000	1013.536	58.90733	57.7139	14.43263	63.045	319.895	38.02499	64.61069	0.559	14.4542	1.354	1	3	1	0.15	4303	108.7998	89.13857	52.71763	3.65267	159.9417	141.2271	0.970502	12.68832	359.2925
9/12/2014 3:06:54 PM	15:06:54	128	B	2	55	78.57143	40165.71	49	70	24500	1015.564	60.16476	57.7652	14.43188	63.27	320.3875	38.17999	64.56578	0.6369991	14.45417	1.336	1	3	1	0.15	4281	111.3999	90.96535	52.32688	3.625785	160.2153	141.3718	0.9680439	12.65618	358.3825
9/12/2014 3:07:04 PM	15:07:04	138	B	2	55	78.57143	40165.71	49	70	24500	1015.564	60.65876	57.7652	14.43188	63.27	320.7009	37.485	64.61069	0.6140003	14.4528	1.348	1	3	1	0.15	4274	110.6001	90.32827	52.15688	3.614006	160.3894	141.3871	0.9647267	12.61281	357.1544
9/12/2014 3:07:14 PM	15:07:14	148	B	2	55	78.57143	40165.71	49	70	24500	1012.141	60.20967	57.79941	14.43262	63.17	320.4323	37.735	64.88014	0.5709991	14.45438	1.334999	1	3	1	0.15	4275	112	91.16336	52.49763	3.637428	160.2401	141.7807	0.9641758	12.60561	356.9505
9/12/2014 3:07:34 PM	15:07:34	0	B	2	55	78.57143	40165.71	49	70	24500	1010.578	60.25458	57.8165	14.43225	63.125	320.2084	38.255	64.92505	0.5820007	14.45397	1.361	1	3	1	0.15	4283	111.3999	90.84459	52.39725	3.630567	160.1158	141.5968	0.972708	12.71716	360.1093
9/12/2014 3:07:44 PM	15:07:44	0	B	2	55	78.57143	40165.71	49	71.42857	25000	1012.395	60.11986	57.85925	14.43188	63.125	319.9845	37.545	64.96996	0.5100002	14.45334	1.336	1	3	1	0.15	4281	112.3999	91.78046	52.51188	3.638604	159.9914	141.7466	0.964057	12.60406	356.9065
9/12/2014 3:07:54 PM	15:07:54	0	B	2	55	78.57143	40165.71	49	70	24500	1007.114	60.3444	57.87637	14.43225	62.825	320.4323	38.33501	65.14959	0.6790009	14.4548	1.364	1	3	1	0.15	4243	110.6001	89.6731	52.51225	3.638535	160.2401	141.9236	0.9736016	12.72884	360.4401
9/12/2014 3:08:04 PM	15:08:04	0	B	2	55	78.57143	40165.71	50	71.42857	25000	1004.705	58.50316	57.87637	14.43225	62.825	319.1786	38.205	65.23941	0.6210003	14.45516	1.357	1	3	1	0.15	4336	109.7998	90.64775	52.56226	3.642	159.5437	140.5644	0.9710344	12.69528	359.4897
9/12/2014 3:08:14 PM	15:08:14	0	B	2	56	80	40896	50	71.42857	25000	1009.099	58.50316	57.90201	14.43188	62.55	319.089	38.325	65.14959	0.6730003	14.45511	1.357	1	3	1	0.15	4323	111	91.36385	52.88187	3.664241	159.4939	141.2718	0.9735995	12.72881	360.4393
9/12/2014 3:08:24 PM	15:08:24	0	B	2	55	78.57143	40165.71	50	71.42857	25000	1007.874	58.54807	57.93619	14.43188	62.545	319.2681	38.095	65.1945	0.5970001	14.45182	1.364	1	3	1	0.15	4316	110.7998	91.21591	52.71188	3.652462	159.5934	140.9334	0.9659563	12.62889	357.6097
9/12/2014 3:08:34 PM	15:08:34	0	B	2	56	80	40896	49	70	24500	1006.945	58.09898	57.93619	14.43188	62.545	319.2681	38.11501	65.1945	0.5900002	14.45193	1.358999	1	3	1	0.15	4295	107.7998	88.31879	52.39687	3.630635	159.5934	139.8794	0.9716815	12.70374	359.7292
9/12/2014 3:08:44 PM	15:08:44	0	B	2	55	78.57143	40165.71	50	71.42857	25000	1010.24	59.2666	57.9704	14.43263	62.89	319.6263	37.88499	65.14959	0.5470009	14.45164	1.344999	1	3	1	0.15	4315	111.3999	91.68781	52.20263	3.616987	159.7924	140.3736	0.9667019	12.63863	357.8857
9/12/2014 3:08:54 PM	15:08:54	0	B	2	55	78.57143	40165.71	50	71.42857	25000	1011.339	59.22169	57.95331	14.43263	62.71001	319.8054	37.89	65.32922	0.5699997	14.45366	1.336	1	3	1	0.15	4301	111.2002	90.8989	52.36262	3.628073	159.8919	140.693	0.9658988	12.62813	357.5883
9/12/2014 3:09:04 PM	15:09:04	0	B	2	55	78.57143	40165.71	50	70	24500	1010.451	59.44623	57.95331	14.43263	62.71001	319.9397	38.11501	65.1945	0.6049995	14.4533	1.353001	1	3	1	0.15	4295	110.2002	89.95432	52.79263	3.657867	159.9665	141.8233	0.9695925	12.67643	358.9559
9/12/2014 3:09:14 PM	15:09:14	7	B	3	55	78.57143	40165.71	50	70	24500	1008.592	59.2666	57.97897	14.43225	62.41	319.7606	37.88499	65.41904	0.5580006	14.4544	1.339001	1	3	1	0.15	4296	108	88.17561	52.45226	3.634378	159.867	140.9305	0.9644142	12.60873	357.0388
9/12/2014 3:09:24 PM	15:09:24	17	B	3	55	78.57143	40165.71	50	71.42857	25000	1005.973	58.77261	57.97897	14.43112	62.325	319.7606	38.5	65.55376	0.6240005	14.45555	1.351	1	3	1	0.15	4335	110.6001	91.12215	52.91612	3.666806	159.867	141.5687	0.968618	12.66369	358.5951
9/12/2014 3:09:34 PM	15:09:34	27	B	3	55	78.57143	40165.71	50	71.42857	25000	1005.762	58.54807	57.97897	14.43112	62.325	319.4024	38.625	65.32922	0.6229992	14.45273	1.371	1	3	1	0.15	4342	110.7998	91.5999	52.83612	3.661262	159.668	141.2131	0.9758422	12.75813	361.2695
9/12/2014 3:09:44 PM	15:09:44	37	B	3	55	78.57143	40165.71	50	71.42857	25000	1002.001	57.82953	57.96185	14.4315	62.53	318.686	38.19	65.28432	0.5799999	14.45358	1.357	1	3	1	0.15	4348	110.3999	91.39542	52.9215	3.667083	159.27	140.8231	0.9709197	12.69378	359.4472
9/12/2014 3:09:54 PM	15:09:54	47	B	3	55	78.57143	40165.71	50	71.42857	25000	1005.339	57.47026	57.98749	14.43112	62.69	318.9547	38.715	65.28432	0.5900002	14.45357	1.371	1	3	1	0.15	4318	107.7998	88.62716	52.66112	3.649135	159.4193	139.9665	0.9759063	12.75897	361.2933
9/12/2014 3:10:04 PM	15:10:04	57	B	3	55	78.57143	40165.71	50	71.42857	25000	1007.916	57.73972	57.98749	14.43112	62.69	318.8204	38.38	65.14959	0.5930004	14.45198	1.362	1	3	1	0.15	4355	109.7998	91.21096	53.10112	3.679625	159.3447	141.1479	0.9727936	12.71828	360.1409
9/12/2014 3:10:14 PM	15:10:14	67	B	3	55	78.57143	40165.71	50	72.85714	25500	1000.227	56.97627	57.99603	14.43075	63.045	318.3279	38.31	65.1945	0.6240005	14.45493	1.357	1	3	1	0.15	4363	111.7998	92.87364	52.55074	3.641581	159.071	139.3321	0.9717662	12.70485	359.7606
9/12/2014 3:10:24 PM	15:10:24	77	B	3	55	78.57143	40165.71	51	72.85714	25500	1003.057	57.20082	58.01315	14.43113	62.875	318.3279	38.75999	65.05978	0.6170006	14.45519	1.367001	1	3	1	0.15	4349	111.7998	92.41026	52.98113	3.671309	159.071	140.4538	0.9747426	12.74376	360.8625
9/12/2014 3:10:34 PM	15:10:34	87	B	3	56	80	40896	50	71.42857	25000	1001.579	56.97627	58.01315	14.43113	62.875	318.507	38.78	65.05978	0.6739998	14.45566	1.377001	1	3	1	0.15	4341	109.2002	90.25669	52.95113	3.669231	159.1705	140.2084	0.9783306	12.79067	362.1908
9/12/2014 3:10:44 PM	15:10:44	97	B	3	56	78.57143	40165.71	51	72.85714	25500	1003.015	56.39246	58.03024	14.43038	62.735	318.0144	38.78999	65.14959	0.6049995	14.45506	1.358999	1	3	1	0.15	4390	110.2002	92.27826	53.24538	3.689812	158.8969	140.3898	0.9718193	12.70554	359.7802
9/12/2014 3:10:54 PM	15:10:54	107	B	3	55	80	40896	50	71.42857	25000	1001.41	56.79664	58.05591	14.43075	62.61	318.0144	38.785	64.88014	0.5869999	14.45167	1.368999	1	3	1	0.15	4376	112	93.31716	53.18075	3.685238	158.8969	140.5697	0.9730155	12.72118	360.2231
9/12/2014 3:11:04 PM	15:11:04	117	B	3	55	78.57143	40165.71	51	72.85714	25500	1002.381	56.70683	58.05591	14.43075	62.61	317.7905	38.905	64.79032	0.6989994	14.45569	1.357	1	3	1	0.15	4360	111.3999	92.31201	53.06075	3.676923	158.7725	140.2356	0.9714694	12.70096	359.6507
9/12/2014 3:11:14 PM	15:11:14	127	B	3	55	78.57143	40165.71	50	71.42857	25000	1005.466	57.33554	58.03879	14.43113	62.41499	318.5517	38.855	64.74541	0.5900002	14.45386	1.343	1	3	1	0.15	4324	109	89.57359	52.67113	3.649828	159.1954	139.8809	0.9678649	12.65384	358.3163
9/12/2014 3:11:24 PM	15:11:24	137	B	3	55	78.57143	40165.71	50	71.42857	25000	1007.536	57.96426	58.03879	14.43112	62.00999	318.5517	38.75999	64.74541	0.6289997	14.45472	1.351	1	3	1	0.15	4342	110.3999	91.4348	53.05612	3.676507	159.1954	141.2291	0.9693424	12.67316	358.8632
9/12/2014 3:11:34 PM	15:11:34	147	B	3	55	78.57143	40165.71	50	71.42857	25000	1006.48	57.96426	58.03879	14.43112	62.00999	318.5517	38.235	64.74541	0.618	14.45223	1.354	1	3	1	0.15	4344	110.6001	91.47691	52.77612	3.657104	159.1954	140.6144	0.9703066	12.68576	359.2202
9/12/2014 3:12:43 PM	15:12:43	0	B	3	55	78.57143	40165.71	50	71.42857	25000	1005.55	58.41334	57.99603	14.43038	61.37	319.089	38.09	64.88014	0.5760002	14.45271	1.349001	1	3	1	0.15	4345	110	91.16714	52.87038	3.663825	159.4939	141.1868	0.9684352	12.66129	358.5273
9/12/2014 3:12:53 PM	15:12:53	0	B	3	55	78.57143	40165.71	50	71.42857	25000	1005.212	58.32352	57.99603	14.43038	61.345	319.089	38.83501	64.88014	0.6599998	14.45116	1.372999	1	3	1	0.15	4343	111.3999	92.11723	53.18037	3.685308	159.4939	141.795	0.9761988	12.7628	361.4016
9/12/2014 3:13:03 PM	15:13:03	0	B	3	55	78.57143	40165.71	50	71.42857	25000	1002.086	57.78462	57.99603	14.43038	61.345	319.1338	38.705	64.92505	0.7350006	14.45495	1.375	1	3	1	0.15	4337	113.3999	93.47658	53.26538	3.691198	159.5188	141.5491	0.9752291	12.75012	361.0426
9/12/2014 3:13:13 PM	15:13:13	0	B	3	56	78.57143	40165.71	51	72.85714	25500	1001.621	57.15591	58.00461	14.43	61.295	318.9099	38.94	64.83523	0.6809998	14.4528	1.382	1	3	1	0.15	4367	110.2002	91.62875	52.93	3.668053	159.3944	140.3149	0.9801967	12.81507	362.8816
9/12/2014 3:13:23 PM	15:13:23	0	B	3	55	78.57143	40165.71	51	72.85714	25500	999.6351	56.52719	57.98749	14.43	61.425	318.4622	38.895	64.79032	0.6930008	14.45031	1.391001	1	3	1	0.15	4390	111	92.77985	53.18999	3.68607	159.1456	140.38	0.9833418	12.85618	364.046
9/12/2014 3:13:33 PM	15:13:33	0	B	3	55	78.57143	40165.71	51	71.42857	25000	999.8041	56.48228	57.98749	14.43	61.425	317.4324	38.72501	64.56578	0.6459999	14.45266	1.365	1	3	1	0.15	4377	111.7998	93.17165	53.105	3.68018	158.5735	140.1585	0.9744253	12.73961	360.745
9/12/2014 3:13:43 PM	15:13:43	0	B	3	55	78.57143	40165.71	50	71.42857	25000	1001.029	56.43737	58.00461	14.42962	61.825	317.7458	38.86501	64.47597	0.6550007	14.45286	1.365	1	3	1	0.15	4333	116.2002	95.86536	53.41463	3.701734	158.7477	140.8003	0.9784026	12.79161	362.2174
9/12/2014 3:13:53 PM	15:13:53	0	B	3	56	78.57143	40165.71	50	71.42857	25000	1002.846	56.34756	58.00461	14.42962	62.2	317.9696	38.69	64.43106	0.5939999	14.45196	1.368999	1	3	1	0.15	4377	109.3999	91.00519	53.08963	3.679211	158.872	140.0201	0.9759394	12.75941	361.3055
9/12/2014 3:14:03 PM	15:14:03	0	B	3	55	78.57143	40165.71	51	72.85714	25500	999.6351	56.43737	58.00461	14.42962	62.2	317.9696	38.55499	64.43106	0.684	14.45283	1.368999	1	3	1	0.15	4391	111.3999	92.80099	52.92462	3.667775	158.872	139.7313	0.9759647	12.75974	361.3149
9/12/2014 3:14:13 PM	15:14:13	9	B	4	55	78.57143	40165.71	50	71.42857	25000	1001.748	56.75173	58.03024	14.42962	62.52	318.2383	38.63	64.43106	0.6350002	14.45214	1.361	1	3	1	0.15	4369	111.3999	92.6687	53.42963	3.702773	159.0213	141.085	0.9730871	12.72212	360.2496
9/12/2014 3:14:23 PM	15:14:23	19	B	4	55	78.57143	40165.71	50	71.42857	25000	1001.241	56.70683	58.0217	14.42925	62.48	318.3279	38.825	64.25143	0.6259995	14.45408	1.370001	1	3	1	0.15	4323	115.6001	94.82102	53.07425	3.678241	159.071	140.2772	0.9708392	12.69273	359.4174
9/12/2014 3:14:33 PM	15:14:33	29	B	4	55	78.57143	40165.71	50	71.42857	25000	1002.508	56.93137	58.0217	14.42925	62.48	318.5517	38.735	64.29633	0.6529999	14.45306	1.375999	1	3	1	0.15	4380	110	91.40106	53.30925	3.694527	159.1705	140.97	0.9761021	12.76153	361.3658
9/12/2014 3:14:43 PM	15:14:43	39	B	4	56	80	40896	50	71.42857	25000	1001.283	56.66191	58.03879	14.42962	62.205	318.3726	38.345	64.43106	0.6040001	14.45214	1.365	1	3	1	0.15	4371	109.7998	91.21326	53.03963	3.675745	159.0959	140.1626	0.9698943	12.68037	359.0676
9/12/2014 3:14:53 PM	15:14:53	49	B	4	55	78.57143	40165.71	50	72.85714	25500	1003.649	57.33554	58.03879	14.42962	62.205	318.5517	38.27	64.34124	0.6599998	14.45564	1.368999	1	3	1	0.15	4358	111.3999	92.26967	52.98462	3.671933	159.1954	140.5813	0.9761455	12.7621	361.3818
9/12/2014 3:15:03 PM	15:15:03	59	B	4	56	80	40896	50	72.85714	25500	1004.874	57.51517	58.04736	14.42962	62.47501	318.9099	38.75999	64.29633	0.6270008	14.45322	1.362	1	3	1	0.15	4350	111.7998	92.59691	52.89963	3.666043	159.3944	140.5387	0.9736112	12.72897	360.4436
9/12/2014 3:15:13 PM	15:15:13	69	B	4	56	80	40896	50	72.85714	25500	1002.339	57.69481	58.05591	14.43038	62.67	319.1786	38.44501	64.29633	0.5849991	14.44993	1.358999	1	3	1	0.15	4355	109	90.87937	53.23038	3.688773	159.5437	141.4006	0.9724362	12.71361	360.0086
9/12/2014 3:15:23 PM	15:15:23	79	B	4	55	78.57143	40165.71	51	71.42857	25000	1004.452	58.05407	58.09009	14.43075	62.875	319.089	38.355	64.20652	0.6359997	14.45482	1.377001	1	3	1	0.15	4363	110.2002	91.54482	53.12576	3.681427	159.4939	141.4566	0.9790729	12.80037	362.4656
9/12/2014 3:15:33 PM	15:15:33	89	B	4	55	78.57143	40165.71	51	71.42857	25000	1006.311	58.14389	58.09009	14.43075	62.875	319.4472	38.75999	64.43106	0.6229992	14.45565	1.358	1	3	1	0.15	4357	110.7998	91.91634	52.65575	3.648858	159.6929	140.4959	0.9760737	12.76116	361.3553
9/12/2014 3:15:43 PM	15:15:43	99	B	4	55	78.57143	40165.71	50	71.42857	25000	1005.339	58.23371	58.073	14.43	62.205	319.6263	38.55499	64.34124	0.6130009	14.45414	1.379999	1	3	1	0.15	4335	113	93.26823	52.93	3.668053	159.7924	141.1771	0.9799963	12.81244	362.8074
9/12/2014 3:15:53 PM	15:15:53	109	B	4	55	80	40896	50	71.42857	25000	1003.776	58.27861	58.073	14.42962	61.825	320.074	38.48	64.38615	0.6779995	14.45247	1.367001	1	3	1	0.15	4358	107.6001	89.28245	53.42963	3.702773	160.0411	142.3098	0.9802507	12.81577	362.9017
9/12/2014 3:16:03 PM	15:16:03	119	B	4	55	78.57143	40165.71	50	72.85714	25500	1003.776	57.78462	58.073	14.42962	61.825	319.5368	38.845	64.38615	0.7000008	14.4525	1.354	1	3	1	0.15	4373	111.3999	92.42057	53.20963	3.687527	159.7427	141.4333	0.9706445	12.69018	359.3453
9/12/2014 3:16:13 PM	15:16:13	129	B	4	55	80	40896	50	71.42857	25000	1001.917	57.69481	58.10721	14.43112	61.815	319.7159	38.95	64.43106	0.677	14.45393	1.361	1	3	1	0.15	4372	110.3999	92.23279	53.02112	3.674081	159.8422	140.9367	0.9717302	12.70438	359.7473
9/12/2014 3:16:23 PM	15:16:23	139	B	4	56	80	40896	50	71.42857	25000	1003.86	57.24572	58.10721	14.43112	61.815	319.6263	38.375	64.47597	0.6310005	14.4544	1.351	1	3	1	0.15	4361	112.6001	93.66139	53.07613	3.677893	159.7924	140.6977	0.9695541	12.67593	358.9416
9/12/2014 3:16:33 PM	15:16:33	149	B	4	56	80	40896	51	72.85714	25500	1001.072	57.111	58.10721	14.43038	61.995	319.7606	39.12	64.47597	0.6529999	14.45387	1.374001	1	3	1	0.15	4382	108.2002	90.27482	53.01038	3.673527	159.867	140.4519	0.9777369	12.78291	361.971
9/12/2014 3:16:43 PM	15:16:43	0	B	4	55	80	40896	51	72.85714	25500	999.8464	56.75173	58.10721	14.43075	62.05499	318.686	38.715	64.47597	0.6749992	14.45373	1.385	1	3	1	0.15	4407	111	93.30712	52.95075	3.6693	159.27	140.0309	0.9816307	12.83381	363.4125
9/12/2014 3:16:53 PM	15:16:53	0	B	4	55	78.57143	40165.71	51	72.85714	25500	1001.917	56.66191	58.11575	14.43112	62.53999	318.3279	38.495	64.25143	0.6469994	14.45266	1.385	1	3	1	0.15	4392	110.2002	92.1533	53.37613	3.698681	159.071	140.8845	0.9786186	12.79443	362.2974
9/12/2014 3:17:03 PM	15:17:03	0	B	4	56	80	40896	50	71.42857	25000	999.0013	56.52719	58.11575	14.43112	62.53999	319.089	39	64.34124	0.6380005	14.45414	1.372999	1	3	1	0.15	4365	112.3999	93.58133	53.29613	3.693138	159.4939	140.6023	0.9775228	12.78011	361.8917
9/12/2014 3:17:13 PM	15:17:13	0	B	4	56	80	40896	52	74.28571	26000	1010.282	56.66191	58.14139	14.43038	62.62	319.492	40.73	64.34124	0.7229996	14.45744	1.487	1	3	1	0.15	4474	112.2002	95.23645	54.98537	3.81039	159.7178	144.3556	1.014176	13.25931	375.4611
9/12/2014 3:17:23 PM	15:17:23	0	B	4	58	82.85715	42356.57	56	80	28000	1028.07	55.94338	58.15851	14.43038	62.42	327.9991	43.685	64.38615	0.8139992	14.46153	1.591999	1	3	1	0.15	4845	120.6001	111.252	58.56038	4.058133	164.444	151.2088	1.0525	13.76035	389.6491
9/12/2014 3:17:33 PM	15:17:33	0	B	4	59	84.28571	43086.86	59	84.28571	29500	1054.984	56.16792	58.15851	14.43038	62.42	338.7978	45.95	64.16161	0.9890003	14.4659	1.716999	1	3	1	0.15	5146	124.2002	122.0828	59.93538	4.153418	170.4432	154.0555	1.09325	14.29312	404.7353
9/12/2014 3:17:43 PM	15:17:43	0	B	4	58	82.85715	42356.57	61	87.14285	30500	1055.956	56.12302	58.15851	14.43038	62.3	345.101	45.38	64.1167	0.9629993	14.46608	1.691999	1	3	1	0.15	5258	129.6001	129.3451	60.22537	4.173514	173.945	154.709	1.084406	14.1775	401.4614
9/12/2014 3:17:53 PM	15:17:53	0	B	4	58	82.85715	42356.57	61	87.14285	30500	1054.35	56.21283	58.14996	14.43	62.2	349.6034	44.89	64.02689	0.9360008	14.46354	1.658001	1	3	1	0.15	5270	124.6001	125.0245	59.24	4.105336	176.4463	152.8104	1.074441	14.04721	397.772
9/12/2014 3:18:03 PM	15:18:03	0	B	4	58	84.28571	43086.86	61	87.14285	30500	1060.688	56.70683	58.14996	14.43	62.2	351.6745	45.5	63.93707	0.9470005	14.46549	1.663	1	3	1	0.15	5267	125	125.5552	59.91	4.151767	177.5969	154.5658	1.076227	14.07057	398.4335
9/12/2014 3:18:13 PM	15:18:13	0	B	4	59	84.28571	43086.86	62	88.57143	31000	1075.095	57.15591	58.18417	14.43075	62.325	353.7005	46.875	63.93707	0.9610004	14.46797	1.739	1	3	1	0.15	5341	127.6001	130.1664	61.51575	4.262825	178.7225	158.1202	1.102096	14.40877	408.0104
9/12/2014 3:18:23 PM	15:18:23	0	B	4	59	84.28571	43086.86	63	88.57143	31000	1072.096	57.29063	58.16705	14.43075	62.125	356.8521	46.80499	63.84725	1.007	14.46548	1.711	1	3	1	0.15	5377	127.6001	130.8387	60.85575	4.217089	180.4734	156.929	1.091662	14.27236	404.1476
9/12/2014 3:18:33 PM	15:18:33	0	B	4	61	87.14285	44547.43	64	91.42857	32000	1113.671	57.47026	58.16705	14.43075	62.125	361.0844	48.175	63.89216	0.9619999	14.46873	1.782	1	3	1	0.15	5531	128.6001	135.0077	62.87576	4.357068	182.8246	161.0383	1.116851	14.60168	413.4729
9/12/2014 3:18:43 PM	15:18:43	0	B	4	59	84.28571	43086.86	63	90	31500	1073.321	57.51517	58.1756	14.43075	61.77	362.7502	46.61501	64.07179	0.9890003	14.46544	1.683001	1	3	1	0.15	5426	128.2002	132.651	60.82075	4.214663	183.7501	157.0464	1.083478	14.16536	401.1177
9/12/2014 3:18:53 PM	15:18:53	0	B	4	60	85.71429	43817.14	64	91.42857	32000	1074.969	57.51517	58.16705	14.43	61.45	363.7407	46.39	63.84725	0.9829998	14.46433	1.686001	1	3	1	0.15	5467	129.3999	134.6943	60.92001	4.221761	184.3004	157.2495	1.083667	14.16784	401.1877
9/12/2014 3:19:03 PM	15:19:03	0	B	4	60	85.71429	43817.14	64	91.42857	32000	1074.377	57.60499	58.16705	14.43	61.45	364.1459	46.755	63.84725	0.8999996	14.4648	1.697001	1	3	1	0.15	5452	130.7998	135.7779	61.48499	4.260914	184.5255	158.4407	1.089422	14.24307	403.3181
9/12/2014 3:19:13 PM	15:19:13	0	B	4	60	85.71429	43817.14	64	91.42857	32000	1085.658	57.24572	58.15851	14.43038	61.255	366.217	48.535	63.89216	1.044001	14.46735	1.77	1	3	1	0.15	5467	139	143.8547	62.56038	4.335326	185.6761	160.2411	1.108704	14.49517	410.4568
9/12/2014 3:19:23 PM	15:19:23	0	B	4	60	85.71429	43817.14	64	91.42857	32000	1072.856	57.47026	58.14139	14.43075	61.315	367.7478	47.19501	63.93707	0.8920002	14.4644	1.688	1	3	1	0.15	5492	126.2002	132.1732	61.50076	4.261785	186.5266	158.353	1.084215	14.175	401.3907
9/12/2014 3:19:33 PM	15:19:33	0	B	4	60	84.28571	43086.86	63	90	31500	1069.603	57.47026	58.14139	14.43075	61.315	367.9279	47.345	64.1167	1.040001	14.46577	1.698999	1	3	1	0.15	5481	129.2002	135.4566	61.51075	4.262478	186.6266	158.3727	1.086951	14.21077	402.4034
9/12/2014 3:19:43 PM	15:19:43	0	B	4	59	85.71429	43817.14	64	91.42857	32000	1069.392	57.15591	58.14996	14.43075	61.36	367.6577	46.405	63.98197	0.9249992	14.46693	1.663	1	3	1	0.15	5490	130.3999	136.5155	60.92574	4.221939	186.4765	156.9557	1.075917	14.06651	398.3185
9/12/2014 3:19:53 PM	15:19:53	0	B	4	59	84.28571	43086.86	64	91.42857	32000	1076.743	56.66191	58.11575	14.43038	61.52	368.5132	46.85001	64.02689	1.044001	14.46388	1.708	1	3	1	0.15	5486	134.3999	138.9228	61.32037	4.249395	186.9518	157.3268	1.089195	14.24011	403.2343
9/12/2014 3:20:03 PM	15:20:03	0	B	4	61	87.14285	44547.43	64	90	31500	1095.798	56.25774	58.11575	14.43038	61.52	371.1696	48.375	63.84725	0.9519997	14.46727	1.76	1	3	1	0.15	5465	141	146.9236	63.46037	4.397694	188.4275	161.1497	1.107497	14.47938	410.0097
9/12/2014 3:20:13 PM	15:20:13	0	B	4	60	85.71429	43817.14	63	91.42857	32000	1097.573	56.30265	58.08157	14.43	61.535	373.2406	48.19501	63.75743	1.058001	14.46737	1.777	1	3	1	0.15	5473	140.7998	146.7215	63.02	4.36729	189.5781	160.3429	1.116628	14.59877	413.3904
9/12/2014 3:20:23 PM	15:20:23	0	B	4	61	87.14285	44547.43	64	91.42857	32000	1104.08	56.16792	58.08157	14.43	61.625	375.4017	49.985	63.62271	1.040001	14.46867	1.836	1	3	1	0.15	5462	145.3999	151.4187	63.575	4.405752	190.7787	161.2973	1.130106	14.77497	418.38
9/12/2014 3:20:33 PM	15:20:33	0	B	4	61	87.14285	44547.43	64	90	31500	1109.953	56.16792	58.08157	14.43	61.625	377.2927	49.67	63.62271	1.114	14.46975	1.808001	1	3	1	0.15	5467	145.6001	151.1411	64.01	4.435897	191.8293	162.1293	1.123989	14.69501	416.1156
9/12/2014 3:20:43 PM	15:20:43	0	B	4	61	87.14285	44547.43	64	91.42857	32000	1109.108	55.89848	58.073	14.43112	61.565	378.4183	48.89	63.66762	1.121	14.47102	1.834999	1	3	1	0.15	5468	147.3999	153.6673	64.17612	4.447063	192.4546	162.2088	1.131667	14.79538	418.9579
9/12/2014 3:20:53 PM	15:20:53	0	B	4	61	87.14285	44547.43	63	90	31500	1108.727	55.76375	58.04736	14.43188	61.395	379.0937	49.625	63.53289	0.9510002	14.46458	1.833	1	3	1	0.15	5477	145.2002	151.8345	64.20188	4.448617	192.8298	162.1377	1.13003	14.77399	418.352
9/12/2014 3:21:03 PM	15:21:03	0	B	4	61	87.14285	44547.43	64	90	31500	1110.882	55.80866	58.04736	14.43188	61.395	379.4989	49.88	63.53289	1.096001	14.47185	1.823	1	3	1	0.15	5478	144.6001	150.6105	63.99688	4.434412	193.0549	161.7852	1.127236	14.73745	417.3174
9/12/2014 3:21:13 PM	15:21:13	0	B	4	61	87.14285	44547.43	64	91.42857	32000	1112.023	55.80866	58.06445	14.43225	61.33	380.4894	49.625	63.35326	1.115	14.4672	1.827999	1	3	1	0.15	5490	146.6001	153.6582	63.98225	4.433283	193.6052	161.7542	1.128483	14.75376	417.7792
9/12/2014 3:21:23 PM	15:21:23	0	B	4	62	88.57143	45277.71	65	92.85714	32500	1118.994	55.67393	58.0217	14.43075	61.205	381.1197	50.13499	63.39816	1.094	14.46837	1.861	1	3	1	0.15	5579	145.7998	155.087	65.20075	4.518182	193.9554	163.9607	1.138886	14.88977	421.6307
9/12/2014 3:21:33 PM	15:21:33	0	B	4	61	87.14285	44547.43	65	92.85714	32500	1126.473	56.39246	58.0217	14.43075	61.205	383.551	50.44	63.12872	1.113001	14.46913	1.85	1	3	1	0.15	5620	146	156.2267	64.62075	4.47799	195.3061	163.4742	1.141049	14.91805	422.4313
9/12/2014 3:21:43 PM	15:21:43	0	B	4	61	88.57143	45277.71	66	94.28571	33000	1121.656	56.5721	58.00461	14.43112	60.77	384.9017	50.825	63.12872	1.106001	14.47214	1.854	1	3	1	0.15	5650	146.6001	158.3518	64.62112	4.4779	196.0565	163.6237	1.13995	14.90367	422.0242
9/12/2014 3:21:53 PM	15:21:53	0	B	4	61	88.57143	45277.71	66	94.28571	33000	1124.698	56.84155	57.98749	14.43038	60.55	386.1623	50.50999	63.30835	1.087999	14.47071	1.851999	1	3	1	0.15	5674	144.7998	156.6475	64.64537	4.479812	196.7569	163.904	1.136333	14.85639	420.6854
9/12/2014 3:22:03 PM	15:22:03	0	B	4	61	87.14285	44547.43	66	94.28571	33000	1124.529	56.5721	57.98749	14.43038	60.55	386.9277	50.255	63.26344	1.096001	14.47212	1.851999	1	3	1	0.15	5687	145.7998	157.6562	65.20038	4.518273	197.1821	164.725	1.140713	14.91366	422.307
9/12/2014 3:22:13 PM	15:22:13	0	B	4	62	87.14285	44547.43	66	94.28571	33000	1128.247	56.5721	57.99603	14.43112	60.485	387.3329	50.33	63.26344	1.121	14.4725	1.858999	1	3	1	0.15	5706	146	159.2694	64.99112	4.503538	197.4072	164.3239	1.138594	14.88595	421.5223
9/12/2014 3:22:23 PM	15:22:23	0	B	4	62	88.57143	45277.71	66	94.28571	33000	1131.923	57.29063	57.9704	14.43075	60.755	389.0888	50.965	63.26344	1.097	14.47423	1.870001	1	3	1	0.15	5724	146.6001	159.1178	65.03574	4.506747	198.3827	165.0203	1.141991	14.93036	422.7801
9/12/2014 3:22:33 PM	15:22:33	0	B	4	61	88.57143	45277.71	66	95.71428	33500	1127.106	57.20082	57.9704	14.43075	60.755	389.7192	50.72	63.21853	1.070999	14.46819	1.853001	1	3	1	0.15	5737	146	159.2605	65.66575	4.550405	198.7329	166.1309	1.136631	14.86028	420.7955
9/12/2014 3:22:43 PM	15:22:43	4	C	5	62	88.57143	45277.71	67	94.28571	33000	1126.388	56.39246	57.94476	14.43	60.75999	389.6292	50.52499	63.39816	1.049999	14.47051	1.829	1	3	1	0.15	5746	145.6001	158.8543	65.23	4.520443	198.6829	164.6316	1.136528	14.85893	420.7574
9/12/2014 3:22:53 PM	15:22:53	14	C	5	62	88.57143	45277.71	67	95.71428	33500	1126.473	56.25774	57.94476	14.43	60.75999	389.6292	50.795	63.12872	1.103001	14.47026	1.851999	1	3	1	0.15	5753	147.3999	160.8	65.425	4.533957	198.6829	164.884	1.136507	14.85866	420.7497
9/12/2014 3:23:03 PM	15:23:03	24	C	5	62	88.57143	45277.71	67	95.71428	33500	1129.937	56.07811	57.93619	14.43038	60.87	389.6292	50.87	63.12872	1.105	14.47194	1.862	1	3	1	0.15	5776	145.7998	158.3638	65.12538	4.513076	198.6829	164.1648	1.139631	14.89951	421.9064
9/12/2014 3:23:13 PM	15:23:13	34	C	5	62	88.57143	45277.71	67	95.71428	33500	1128.796	56.70683	57.93619	14.43075	61.14	390.2144	51.25	63.0389	1.108	14.46895	1.868	1	3	1	0.15	5763	147.2002	160.6407	65.55575	4.542782	199.008	165.5046	1.141431	14.92304	422.5726
9/12/2014 3:23:23 PM	15:23:23	44	C	5	61	87.14285	44547.43	67	95.71428	33500	1132.092	56.97627	57.93619	14.43075	61.14	391.7452	50.55	63.08381	1.098	14.47133	1.861	1	3	1	0.15	5763	144.3999	158.885	65.78574	4.55872	199.8585	166.165	1.139348	14.89581	421.8017
9/12/2014 3:23:33 PM	15:23:33	54	C	5	62	88.57143	45277.71	67	95.71428	33500	1127.782	56.39246	57.9191	14.43038	61.08501	391.4751	51.22	63.08381	0.9960003	14.46923	1.820999	1	3	1	0.15	5767	145.2002	159.2151	65.55037	4.542527	199.7084	165.2307	1.129159	14.7626	418.0295
9/12/2014 3:23:43 PM	15:23:43	64	C	5	62	88.57143	45277.71	68	95.71428	33500	1128.67	56.21283	57.9191	14.43	61.125	391.205	50.53	63.08381	1.007999	14.46979	1.848	1	3	1	0.15	5768	144.6001	158.5836	65.29	4.524601	199.5583	164.5922	1.13928	14.89491	421.7762
9/12/2014 3:23:53 PM	15:23:53	74	C	5	62	88.57143	45277.71	68	97.14286	34000	1128.585	56.66191	57.9191	14.43	61.125	391.4751	51.11501	62.94909	1.125999	14.46715	1.844999	1	3	1	0.15	5773	145	160.2598	65.20499	4.518711	199.7084	164.8131	1.134432	14.83153	419.9816
9/12/2014 3:24:03 PM	15:24:03	84	C	5	61	87.14285	44547.43	67	95.71428	33500	1130.529	56.79664	57.91055	14.43112	61.44501	392.1955	51.36	62.99399	1.070999	14.46961	1.826	1	3	1	0.15	5773	146.3999	160.6999	64.89113	4.49661	200.1086	164.3252	1.132644	14.80815	419.3195
9/12/2014 3:24:13 PM	15:24:13	94	C	5	62	88.57143	45277.71	67	95.71428	33500	1131.67	56.93137	57.91055	14.43075	61.39999	392.5557	50.94501	62.94909	1.121	14.4675	1.844999	1	3	1	0.15	5770	146	160.3965	65.92075	4.568075	200.3087	166.3796	1.134461	14.83191	419.9922
9/12/2014 3:24:23 PM	15:24:23	104	C	5	62	88.57143	45277.71	67	95.71428	33500	1128.585	57.02118	57.91055	14.43075	61.39999	392.8708	50.815	63.12872	1.097	14.46866	1.853001	1	3	1	0.15	5774	146.7998	160.7278	65.56574	4.543474	200.4838	165.7904	1.136765	14.86204	420.8453
9/12/2014 3:24:33 PM	15:24:33	114	C	5	62	88.57143	45277.71	67	95.71428	33500	1135.47	56.66191	57.90201	14.43075	61.37	392.2855	51.2	63.08381	1.164	14.47191	1.875999	1	3	1	0.15	5776	145.6001	160.3431	65.74075	4.555602	200.1586	165.8134	1.144539	14.96367	423.7233
9/12/2014 3:24:43 PM	15:24:43	124	C	5	62	88.57143	45277.71	67	95.71428	33500	1129.726	56.70683	57.90201	14.43038	61.355	392.7357	50.705	62.99399	1.108	14.46988	1.863001	1	3	1	0.15	5772	145.7998	160.4521	65.64038	4.548764	200.4088	165.6666	1.13999	14.9042	422.0392
9/12/2014 3:24:53 PM	15:24:53	134	C	5	62	88.57143	45277.71	67	95.71428	33500	1132.937	57.51517	57.89343	14.43038	61.28999	394.2215	51.065	63.12872	1.113001	14.47002	1.851999	1	3	1	0.15	5775	145.7998	159.8757	65.60538	4.546339	201.2342	166.2878	1.142586	14.93814	423.0004
9/12/2014 3:25:03 PM	15:25:03	144	C	5	62	87.14285	44547.43	68	95.71428	33500	1126.177	57.56008	57.89343	14.43038	61.28999	394.2215	51.00999	63.26344	1.094999	14.46886	1.83	1	3	1	0.15	5776	146.6001	161.0031	64.85037	4.494018	201.2342	164.901	1.126797	14.73172	417.1551
9/12/2014 3:26:51 PM	15:26:51	0	C	5	62	88.57143	45277.71	67	95.71428	33500	1127.022	56.25774	57.85071	14.43038	61.255	392.6907	51.42	63.08381	1.124001	14.47067	1.849001	1	3	1	0.15	5783	147.2002	161.859	65.36037	4.52936	200.3837	164.7594	1.135649	14.84745	420.4323
9/12/2014 3:27:01 PM	15:27:01	0	C	5	62	88.57143	45277.71	67	95.71428	33500	1129.726	56.25774	57.82504	14.43	61.39	392.6457	50.535	63.17362	1.076	14.4686	1.834	1	3	1	0.15	5779	146.2002	160.867	64.76	4.487873	200.3587	163.6303	1.129655	14.76908	418.2131
9/12/2014 3:27:11 PM	15:27:11	0	C	5	62	88.57143	45277.71	67	95.71428	33500	1127.529	56.5721	57.82504	14.43113	61.64	392.7357	50.81	63.0389	1.122999	14.46951	1.855	1	3	1	0.15	5779	145.3999	160.4264	65.42113	4.533335	200.4338	165.1341	1.137484	14.87144	421.1115
9/12/2014 3:27:21 PM	15:27:21	2	C	6	61	87.14285	44547.43	67	95.71428	33500	1126.515	56.5721	57.82504	14.43113	61.64	392.6007	51.06	63.12872	1.089001	14.47186	1.875999	1	3	1	0.15	5781	145.2002	160.0417	65.79112	4.558974	200.3337	165.8282	1.143586	14.95121	423.3703
9/12/2014 3:27:31 PM	15:27:31	12	C	6	61	87.14285	44547.43	67	95.71428	33500	1131.712	56.43737	57.83359	14.43038	61.745	392.7357	51.25999	63.12872	1.118	14.47107	1.851999	1	3	1	0.15	5784	146.6001	162.3273	65.96037	4.570939	200.4088	166.0365	1.13655	14.85922	420.7657
9/12/2014 3:27:41 PM	15:27:41	22	C	6	62	88.57143	45277.71	67	95.71428	33500	1127.022	56.30265	57.83359	14.43	61.60001	392.9609	50.88	63.08381	1.035999	14.46939	1.826	1	3	1	0.15	5783	145.7998	161.859	65.04	4.507277	200.5338	164.1973	1.128555	14.7547	417.806
9/12/2014 3:27:51 PM	15:27:51	32	C	6	62	88.57143	45277.71	68	95.71428	33500	1132.726	56.30265	57.83359	14.43	61.60001	392.3305	50.995	63.12872	1.051001	14.46914	1.834999	1	3	1	0.15	5793	146.3999	160.815	65.325	4.527027	200.1836	164.7342	1.131262	14.79009	418.8081
9/12/2014 3:28:01 PM	15:28:01	42	C	6	62	88.57143	45277.71	67	95.71428	33500	1129.177	56.34756	57.83359	14.43	61.855	392.2855	51.405	63.08381	1.087999	14.47012	1.85	1	3	1	0.15	5782	146.7998	161.831	65.52	4.54054	200.1586	165.1387	1.135934	14.85118	420.5378
9/12/2014 3:28:11 PM	15:28:11	52	C	6	62	88.57143	45277.71	67	95.71428	33500	1125.628	56.34756	57.83359	14.43	62.17999	392.6007	51.11501	63.12872	1.121	14.47022	1.851	1	3	1	0.15	5785	144.7998	160.1525	65.76501	4.557519	200.3337	165.5979	1.138962	14.89076	421.6586
9/12/2014 3:28:21 PM	15:28:21	62	C	6	61	87.14285	44547.43	67	95.71428	33500	1128.036	56.16792	57.83359	14.43	62.17999	392.2855	51.28999	63.21853	1.1	14.46993	1.870001	1	3	1	0.15	5784	147.3999	161.6665	65.84	4.562717	200.1586	165.5855	1.141871	14.92879	422.7354
9/12/2014 3:28:31 PM	15:28:31	72	C	6	62	88.57143	45277.71	67	95.71428	33500	1127.782	56.07811	57.85925	14.42962	62.645	391.7903	51.80499	62.99399	1.136	14.46978	1.868999	1	3	1	0.15	5781	146.3999	161.5826	66.18463	4.586719	199.8835	166.1553	1.147884	15.00741	424.9618
9/12/2014 3:28:41 PM	15:28:41	82	C	6	62	88.57143	45277.71	67	95.71428	33500	1125.036	55.98829	57.87637	14.43	62.66	391.5201	51.235	62.99399	1.202999	14.47087	1.856001	1	3	1	0.15	5782	144.7998	159.6292	65.715	4.554054	199.7334	165.1989	1.140947	14.91671	422.3934
9/12/2014 3:28:51 PM	15:28:51	92	C	6	62	88.57143	45277.71	68	95.71428	33500	1127.825	55.85357	57.87637	14.43	62.66	391.4301	50.44	62.90417	1.194	14.46889	1.867001	1	3	1	0.15	5783	145.7998	160.9783	65.87	4.564795	199.6834	165.3741	1.141268	14.92091	422.5124
9/12/2014 3:29:01 PM	15:29:01	102	C	6	61	87.14285	44547.43	67	95.71428	33500	1124.783	55.58411	57.87637	14.43	62.255	390.8448	51.315	62.85926	1.039	14.47015	1.889	1	3	1	0.15	5786	144.7998	159.9602	65.805	4.560291	199.3582	165.0236	1.145325	14.97395	424.0145
9/12/2014 3:29:11 PM	15:29:11	112	C	6	61	87.14285	44547.43	67	95.71428	33500	1126.304	55.4943	57.85071	14.4315	61.69	390.8448	50.995	62.72454	1.171	14.47501	1.860001	1	3	1	0.15	5789	145.7998	160.704	65.3965	4.531511	199.3582	164.1697	1.13622	14.85491	420.6435
9/12/2014 3:29:21 PM	15:29:21	122	C	6	62	88.57143	45277.71	67	95.71428	33500	1128.543	55.58411	57.85071	14.4315	61.69	391.1599	50.81	62.76945	1.052999	14.47263	1.889	1	3	1	0.15	5789	145.6001	159.8224	65.76651	4.55715	199.5333	164.9389	1.148251	15.0122	425.0976
9/12/2014 3:29:31 PM	15:29:31	132	C	6	62	88.57143	45277.71	67	95.71428	33500	1128.247	55.71884	57.85071	14.43113	61.125	391.5651	51.905	62.76945	1.117001	14.46828	1.868	1	3	1	0.15	5785	144.6001	159.051	65.83612	4.562092	199.7584	165.1867	1.141709	14.92667	422.6756
9/12/2014 3:29:41 PM	15:29:41	142	C	6	62	88.57143	45277.71	67	95.71428	33500	1127.318	55.85357	57.84216	14.43	61.425	392.1054	51.21001	62.90417	1.110001	14.46993	1.878	1	3	1	0.15	5786	145.3999	160.1802	65.425	4.533957	200.0586	164.5409	1.144646	14.96507	423.7628
9/12/2014 3:30:44 PM	15:30:44	0	C	6	62	88.57143	45277.71	67	95.71428	33500	1132.134	56.66191	57.85071	14.43	62.39999	393.6362	50.97501	62.94909	1.111	14.46878	1.862	1	3	1	0.15	5791	146.6001	161.201	65.605	4.546431	200.909	165.5653	1.136048	14.85266	420.5798
9/12/2014 3:30:54 PM	15:30:54	0	C	6	62	87.14285	44547.43	67	95.71428	33500	1134.067	56.97627	57.85071	14.43038	62.655	394.2215	51.33	62.85926	1.152	14.4728	1.834999	1	3	1	0.15	5789	146.6001	161.5861	65.40038	4.532133	201.2342	165.4446	1.131706	14.7959	418.9724
9/12/2014 3:31:04 PM	15:31:04	0	C	6	61	88.57143	45277.71	67	95.71428	33500	1129.515	56.84155	57.85071	14.43038	62.655	394.2665	50.89999	62.72454	1.118	14.46991	1.856001	1	3	1	0.15	5789	147	162.2475	65.14537	4.514461	201.2592	164.8498	1.13541	14.84432	420.3436
9/12/2014 3:31:14 PM	15:31:14	0	C	6	62	88.57143	45277.71	67	95.71428	33500	1130.824	56.52719	57.87637	14.43038	62.28	394.2215	51.00999	62.85926	1.132999	14.47002	1.879	1	3	1	0.15	5787	146.3999	160.6485	65.74538	4.55604	201.2342	165.7107	1.140447	14.91017	422.2083
9/12/2014 3:31:24 PM	15:31:24	0	C	6	62	88.57143	45277.71	67	95.71428	33500	1136.448	56.84155	57.87637	14.43038	62.12	394.4016	50.74001	62.76945	1.018	14.46843	1.839001	1	3	1	0.15	5788	145	160.4562	65.54037	4.541834	201.3342	165.5934	1.131308	14.79069	418.8249
9/12/2014 3:31:34 PM	15:31:34	0	C	6	62	88.57143	45277.71	68	97.14286	34000	1130.951	57.20082	57.87637	14.43038	62.12	395.077	51.345	62.90417	1.103001	14.4693	1.837999	1	3	1	0.15	5786	145.3999	160.8413	65.53038	4.541142	201.7094	165.8798	1.132431	14.80537	419.2408
9/12/2014 3:31:44 PM	15:31:44	0	C	6	62	88.57143	45277.71	67	95.71428	33500	1131.881	57.47026	57.88489	14.43263	62.105	395.8874	51.25999	62.76945	1.065001	14.4731	1.855	1	3	1	0.15	5789	145.3999	160.0431	65.29263	4.52396	202.1597	165.6417	1.13792	14.87714	421.273
9/12/2014 3:31:54 PM	15:31:54	3	C	7	62	88.57143	45277.71	67	95.71428	33500	1132.895	57.38045	57.89343	14.43075	61.895	396.0225	50.71001	62.90417	1.125	14.46927	1.839001	1	3	1	0.15	5787	146.3999	160.8691	65.39574	4.531694	202.2347	165.7758	1.132735	14.80934	419.3532
9/12/2014 3:32:04 PM	15:32:04	13	C	7	61	87.14285	44547.43	67	95.71428	33500	1138.956	57.51517	57.89343	14.43075	61.895	396.4276	51.315	63.0389	1.17	14.4662	1.796	1	3	1	0.15	5789	145.6001	161.1453	65.57075	4.543821	202.4598	166.2195	1.11923	14.63278	414.3535
9/12/2014 3:32:14 PM	15:32:14	23	C	7	62	88.57143	45277.71	68	95.71428	33500	1128.458	56.70683	57.89343	14.42962	61.66499	395.5722	51.78999	62.99399	1.169001	14.46956	1.878	1	3	1	0.15	5780	146.7998	161.775	65.99963	4.573898	201.9846	166.3456	1.144547	14.96377	423.7261
9/12/2014 3:32:24 PM	15:32:24	33	C	7	62	88.57143	45277.71	68	95.71428	33500	1131.923	56.34756	57.89343	14.43075	61.72	394.6267	50.83	62.99399	1.047001	14.47105	1.830999	1	3	1	0.15	5790	146.7998	161.1732	65.85575	4.563571	201.4593	165.7613	1.130255	14.77692	418.435
9/12/2014 3:32:34 PM	15:32:34	43	C	7	62	88.57143	45277.71	68	95.71428	33500	1130.656	56.61701	57.89343	14.43075	61.72	394.7618	50.83	62.99399	1.184	14.47394	1.862	1	3	1	0.15	5785	146	161.034	65.30074	4.525111	201.5343	164.949	1.139856	14.90245	421.9897
9/12/2014 3:32:44 PM	15:32:44	53	C	7	62	88.57143	45277.71	67	95.71428	33500	1128.754	57.02118	57.89343	14.43188	61.78999	395.8423	51.30499	62.85926	1.08	14.47203	1.834	1	3	1	0.15	5786	145.2002	160.6207	65.36187	4.528994	202.1346	165.3975	1.133507	14.81943	419.6389
9/12/2014 3:32:54 PM	15:32:54	63	C	7	62	88.57143	45277.71	68	95.71428	33500	1127.825	57.15591	57.87637	14.43112	61.785	396.0225	51.22501	63.0389	1.096001	14.47008	1.834	1	3	1	0.15	5787	145.2002	159.9878	65.63612	4.548234	202.2347	166.0339	1.131099	14.78796	418.7478
9/12/2014 3:33:04 PM	15:33:04	73	C	7	62	88.57143	45277.71	67	95.71428	33500	1128.332	56.34756	57.87637	14.43112	61.785	395.3471	51.52499	63.0389	1.139	14.46947	1.861	1	3	1	0.15	5790	147.3999	161.8342	65.99112	4.572833	201.8595	166.0111	1.137786	14.87539	421.2233
9/12/2014 3:33:14 PM	15:33:14	83	C	7	61	87.14285	44547.43	67	95.71428	33500	1119.459	55.94338	57.89343	14.43038	61.375	394.8068	49.91	63.17362	0.9880009	14.46847	1.768999	1	3	1	0.15	5806	141.3999	156.312	64.75537	4.487435	201.5594	163.3522	1.110768	14.52215	411.2208
9/12/2014 3:33:24 PM	15:33:24	93	C	7	62	88.57143	45277.71	67	95.71428	33500	1111.896	55.67393	57.89343	14.43038	61.375	392.9158	50.155	63.17362	1.103001	14.46771	1.816	1	3	1	0.15	5795	140.3999	154.2504	64.74538	4.486742	200.5088	163.1051	1.125315	14.71234	416.6064
9/12/2014 3:33:34 PM	15:33:34	103	C	7	62	88.57143	45277.71	68	95.71428	33500	1110.713	55.85357	57.90201	14.43038	61.16499	392.0154	50.75999	62.94909	1.103001	14.47212	1.833	1	3	1	0.15	5794	141.3999	155.9889	65.05037	4.507878	200.0086	163.8331	1.130972	14.7863	418.7008
9/12/2014 3:33:44 PM	15:33:44	113	C	7	62	88.57143	45277.71	68	97.14286	34000	1114.304	55.98829	57.89343	14.43038	61.31	391.6101	50.30499	62.94909	1.087999	14.46865	1.812	1	3	1	0.15	5794	141.2002	156.4301	64.94037	4.500255	199.7834	163.7398	1.12437	14.69998	416.2564
9/12/2014 3:33:54 PM	15:33:54	123	C	7	61	87.14285	44547.43	67	95.71428	33500	1121.191	56.48228	57.9191	14.43038	61.67999	391.4751	50.785	62.81436	1.066999	14.46709	1.815001	1	3	1	0.15	5792	143.3999	157.4789	64.67537	4.481891	199.7084	163.6568	1.125361	14.71294	416.6232
9/12/2014 3:34:04 PM	15:34:04	133	C	7	62	88.57143	45277.71	68	97.14286	34000	1104.249	56.79664	57.9191	14.43038	61.67999	392.0604	50.82001	62.72454	1.122999	14.47132	1.865	1	3	1	0.15	5810	141.2002	156.4197	65.31537	4.526242	200.0336	165.1321	1.140968	14.91698	422.4012
9/12/2014 3:34:14 PM	15:34:14	143	C	7	62	87.14285	44547.43	67	95.71428	33500	1118.107	57.29063	57.9191	14.4315	61.785	392.6007	50.645	62.99399	1.056999	14.47187	1.82	1	3	1	0.15	5793	141.7998	156.4031	64.3465	4.458753	200.3337	163.7061	1.126904	14.73312	417.1947
9/12/2014 3:34:26 PM	15:34:26	0	C	7	62	88.57143	45277.71	67	95.71428	33500	1116.628	57.15591	57.94476	14.4315	61.66499	392.7808	50.265	63.0389	1.125999	14.47161	1.797001	1	3	1	0.15	5793	142.7998	157.065	64.9565	4.501022	200.4338	164.75	1.120365	14.64763	414.774
9/12/2014 3:34:36 PM	15:34:36	0	C	7	62	88.57143	45277.71	68	95.71428	33500	1129.599	58.1888	57.94476	14.4315	61.66499	393.0509	49.74001	63.0389	1.009001	14.47082	1.790001	1	3	1	0.15	5794	140.2002	154.8858	64.7065	4.483699	200.5838	165.1507	1.11755	14.61082	413.7315
9/12/2014 3:34:46 PM	15:34:46	0	C	7	63	88.57143	45277.71	67	95.71428	33500	1139.976	58.05407	57.9191	14.43112	61.765	393.5912	52.02	63.0389	1.051001	14.47048	1.879	1	3	1	0.15	5782	147.7998	163.1522	66.87112	4.633813	200.884	169.1041	1.146334	14.98715	424.388
9/12/2014 3:34:56 PM	15:34:56	0	C	7	61	88.57143	45277.71	68	97.14286	34000	1126.895	58.00917	57.9191	14.4315	61.825	394.2215	49.63499	63.12872	0.9909992	14.46533	1.749001	1	3	1	0.15	5806	140.2002	154.9858	64.3615	4.459793	201.2342	164.3419	1.10441	14.43903	408.8672
9/12/2014 3:35:06 PM	15:35:06	0	C	7	62	88.57143	45277.71	68	95.71428	33500	1120.558	57.6499	57.9191	14.4315	61.825	393.5912	50.69501	63.17362	1.031	14.46706	1.792	1	3	1	0.15	5797	139.7998	154.9659	65.0365	4.506566	200.884	165.3199	1.11787	14.615	413.85
9/12/2014 3:35:16 PM	15:35:16	0	C	7	62	88.57143	45277.71	67	95.71428	33500	1120.219	58.05407	57.92764	14.43112	61.67999	394.2665	50.16	63.30835	1.079	14.46864	1.797001	1	3	1	0.15	5803	141	156.0106	64.89113	4.49661	201.2592	165.3903	1.119348	14.63433	414.3974
9/12/2014 3:35:26 PM	15:35:26	0	C	7	61	88.57143	45277.71	68	97.14286	34000	1119.586	57.91935	57.92764	14.43	60.92999	394.3566	50.38	63.26344	1.110001	14.46957	1.792	1	3	1	0.15	5799	141.3999	156.1236	64.53001	4.471934	201.3092	164.5998	1.117868	14.61498	413.8494
9/12/2014 3:35:36 PM	15:35:36	0	C	7	62	88.57143	45277.71	68	97.14286	34000	1134.407	58.05407	57.92764	14.43	60.92999	395.3021	50.59	63.26344	1.167999	14.46726	1.84	1	3	1	0.15	5854	135.3999	150.2478	65.34	4.528067	201.8345	166.2489	1.129197	14.76309	418.0434
9/12/2014 3:35:46 PM	15:35:46	0	C	7	61	87.14285	44547.43	67	95.71428	33500	1110.079	57.82953	57.9191	14.43113	60.13499	395.077	50.535	63.44307	1.048	14.47066	1.812	1	3	1	0.15	5789	139.6001	153.6499	65.19112	4.517396	201.7094	165.7677	1.123915	14.69404	416.0882
9/12/2014 3:35:56 PM	15:35:56	6	C	8	61	87.14285	44547.43	67	97.14286	34000	1123.895	58.09898	57.88489	14.4315	59.535	395.032	50.41	63.39816	1.087	14.46872	1.799	1	3	1	0.15	5800	139.7998	154.8256	64.96651	4.501716	201.6844	165.568	1.119875	14.64121	414.5922
9/12/2014 3:36:06 PM	15:36:06	16	C	8	62	88.57143	45277.71	67	95.71428	33500	1126.853	58.63788	57.88489	14.4315	59.535	396.2476	50.17999	63.53289	1.059	14.46926	1.785999	1	3	1	0.15	5801	141	155.9568	64.51651	4.470534	202.3598	165.169	1.115713	14.5868	413.0514
9/12/2014 3:36:16 PM	15:36:16	26	C	8	61	87.14285	44547.43	68	97.14286	34000	1119.755	58.14389	57.85071	14.43075	58.95	396.2476	50.81	63.66762	1.02	14.47029	1.764	1	3	1	0.15	5805	141.2002	155.4011	64.64574	4.479722	202.3598	165.0035	1.108744	14.49569	410.4714
9/12/2014 3:36:26 PM	15:36:26	36	C	8	61	87.14285	44547.43	69	98.57143	34500	1124.487	57.29063	57.80795	14.43075	58.44	396.2476	49.55499	63.66762	1.098	14.46779	1.752001	1	3	1	0.15	5875	136	152.1293	64.09075	4.441263	202.3598	163.2246	1.104886	14.44525	409.0434
9/12/2014 3:36:36 PM	15:36:36	46	C	8	62	88.57143	45277.71	68	97.14286	34000	1102.305	56.34756	57.80795	14.43075	58.44	394.4916	51.035	63.80234	1.080999	14.47025	1.841999	1	3	1	0.15	5800	139.3999	153.5002	65.68575	4.551791	201.3842	165.4432	1.131189	14.78913	418.7808
9/12/2014 3:36:46 PM	15:36:46	56	C	8	62	87.14285	44547.43	67	95.71428	33500	1113.671	56.25774	57.79083	14.43	58.38499	393.9514	50.175	63.66762	1.082001	14.46769	1.797001	1	3	1	0.15	5806	140.6001	155.4279	64.31499	4.457034	201.0841	162.786	1.118904	14.62853	414.2331
9/12/2014 3:36:56 PM	15:36:56	66	C	8	62	87.14285	44547.43	67	95.71428	33500	1112.445	55.85357	57.77377	14.43	58.48	393.186	51.145	63.71252	1.077	14.46957	1.799999	1	3	1	0.15	5799	140.6001	155.682	64.93999	4.500346	200.6589	163.6281	1.119877	14.64124	414.5929
9/12/2014 3:37:06 PM	15:37:06	76	C	8	62	88.57143	45277.71	67	97.14286	34000	1115.234	55.71884	57.77377	14.43	58.48	392.2405	50.58	63.5778	1.156	14.46878	1.813999	1	3	1	0.15	5798	142.3999	157.2006	65.12501	4.513167	200.1336	163.8626	1.124318	14.69931	416.2374
9/12/2014 3:37:16 PM	15:37:16	86	C	8	62	88.57143	45277.71	67	97.14286	34000	1097.404	56.39246	57.75665	14.43075	58.795	392.5107	50.98	63.44307	1.083	14.46794	1.865	1	3	1	0.15	5818	142.3999	157.5216	65.61575	4.546939	200.2837	165.3501	1.13942	14.89674	421.828
9/12/2014 3:37:26 PM	15:37:26	96	C	8	61	88.57143	45277.71	68	97.14286	34000	1120.177	57.06609	57.75665	14.43038	58.935	393.4111	50.25999	63.39816	1.087	14.47017	1.812	1	3	1	0.15	5803	141.7998	156.2312	64.98038	4.503027	200.859	164.7286	1.124559	14.70245	416.3264
9/12/2014 3:37:36 PM	15:37:36	106	C	8	62	88.57143	45277.71	68	97.14286	34000	1119.121	56.75173	57.75665	14.43038	58.935	393.321	50.235	63.44307	1.09	14.47046	1.809	1	3	1	0.15	5801	140.7998	156.1774	64.79037	4.489861	200.7339	164.1028	1.121737	14.66556	415.2818
9/12/2014 3:37:46 PM	15:37:46	116	C	8	62	87.14285	44547.43	67	95.71428	33500	1116.375	56.79664	57.69681	14.43038	59.16499	393.4111	50.735	63.39816	1.114	14.47082	1.789	1	3	1	0.15	5804	139.7998	154.9324	65.24037	4.521044	200.7839	164.9909	1.117771	14.6137	413.8134
9/12/2014 3:37:56 PM	15:37:56	126	C	8	62	88.57143	45277.71	67	97.14286	34000	1121.318	56.66191	57.67969	14.43075	59.14	393.5462	52.05	63.53289	1.233999	14.4704	1.862	1	3	1	0.15	5791	144	159.4367	66.64075	4.617969	200.859	167.4912	1.139113	14.89274	421.7146
9/12/2014 3:38:06 PM	15:38:06	136	C	8	62	88.57143	45277.71	68	97.14286	34000	1133.317	56.39246	57.67969	14.43075	59.14	393.141	50.765	63.53289	1.096001	14.47021	1.794001	1	3	1	0.15	5826	141.7998	157.7382	65.10575	4.511599	200.6339	164.3912	1.118236	14.61979	413.9857
9/12/2014 3:38:16 PM	15:38:16	146	C	8	61	87.14285	44547.43	67	97.14286	34000	1115.952	55.98829	57.64551	14.43	59.00999	392.3305	50.655	63.66762	1.046	14.47008	1.815001	1	3	1	0.15	5805	140.7998	156.0643	64.34	4.458766	200.1836	162.6059	1.121176	14.65823	415.0741
9/12/2014 3:40:54 PM	15:40:54	0	C	8	64	91.42857	46738.29	67	95.71428	33500	1195.754	56.48228	57.31204	14.43	60	412.7711	54.91	63.71252	1.351	14.47583	2.02	1	3	1	0.15	5771	170.7998	186.7954	69.68501	4.829175	211.5395	172.8998	1.188563	15.53924	440.0215
9/12/2014 3:41:04 PM	15:41:04	0	C	8	64	91.42857	46738.29	67	95.71428	33500	1196.222	56.48228	57.31204	14.43	60	413.8967	54.75	63.48798	1.202999	14.47492	2.015999	1	3	1	0.15	5771	171.2002	188.1142	69.74	4.832986	212.1649	172.9986	1.185275	15.49625	438.8043
9/12/2014 3:41:14 PM	15:41:14	0	C	8	64	91.42857	46738.29	67	95.71428	33500	1195.712	56.5721	57.29495	14.43038	60.09	414.7072	55.16	63.62271	1.259001	14.47526	2.028	1	3	1	0.15	5770	171.2002	188.301	68.83037	4.769825	212.6151	171.4323	1.184866	15.4909	438.6528
9/12/2014 3:41:24 PM	15:41:24	5	D	9	64	91.42857	46738.29	67	95.71428	33500	1195.499	56.70683	57.29495	14.43038	60.09	415.2474	55.02499	63.62271	1.291	14.47794	2.005001	1	3	1	0.15	5769	170	187.1699	69.72037	4.831501	212.9153	173.1542	1.182038	15.45393	437.6058
9/12/2014 3:41:34 PM	15:41:34	15	D	9	63	90	46008	67	95.71428	33500	1193.161	56.48228	57.2522	14.42962	60.16499	414.8422	54.75	63.62271	1.264	14.47324	2.025002	1	3	1	0.15	5765	170.7998	187.2599	69.71962	4.8317	212.6901	172.9653	1.18244	15.45918	437.7546
9/12/2014 3:41:44 PM	15:41:44	25	D	9	63	90	46008	67	95.71428	33500	1196.647	56.88646	57.24365	14.42962	60.24001	415.3825	54.58	63.48798	1.305	14.47433	2.016998	1	3	1	0.15	5770	170.6001	187.6417	69.64462	4.826503	212.9903	173.1798	1.185561	15.49999	438.9102
9/12/2014 3:41:54 PM	15:41:54	35	D	9	64	91.42857	46738.29	67	95.71428	33500	1194.606	56.79664	57.20944	14.42887	60.56	415.5626	54.86501	63.53289	1.441	14.47336	2.021999	1	3	1	0.15	5770	172.3999	189.1802	69.16388	4.793436	213.0903	172.2423	1.186912	15.51766	439.4105
9/12/2014 3:42:04 PM	15:42:04	45	D	9	63	91.42857	46738.29	67	95.71428	33500	1195.627	56.66191	57.20944	14.42887	60.56	415.4275	55.235	63.53289	1.278	14.47517	2.015999	1	3	1	0.15	5769	171.2002	188.4882	69.22388	4.797594	213.0153	172.2344	1.185243	15.49584	438.7924
9/12/2014 3:42:14 PM	15:42:14	55	D	9	64	90	46008	67	95.71428	33500	1196.009	56.75173	57.16669	14.42962	60.875	415.6976	54.825	63.66762	1.223	14.47668	2.002998	1	3	1	0.15	5766	171	188.3902	69.37463	4.807792	213.1654	172.5774	1.181354	15.44499	437.3525
9/12/2014 3:42:24 PM	15:42:24	65	D	9	64	91.42857	46738.29	66	94.28571	33000	1191.333	56.66191	57.16669	14.42962	60.875	415.6976	54.61501	63.66762	1.358999	14.4748	1.992001	1	3	1	0.15	5765	170.6001	188.1378	69.46463	4.814029	213.1654	172.6619	1.177157	15.39012	435.7989
9/12/2014 3:42:34 PM	15:42:34	75	D	9	64	91.42857	46738.29	67	95.71428	33500	1197.37	57.06609	57.1496	14.43	61.02	415.8327	55.16499	63.62271	1.298	14.47424	1.986	1	3	1	0.15	5770	171	186.983	69.365	4.806999	213.2404	172.828	1.176294	15.37884	435.4795
9/12/2014 3:42:44 PM	15:42:44	85	D	9	64	91.42857	46738.29	67	95.71428	33500	1195.244	57.33554	57.14105	14.42962	61.02	416.6432	55.09	63.80234	1.283001	14.47505	2.015999	1	3	1	0.15	5768	170.2002	187.3573	70.07962	4.856649	213.6907	174.349	1.186974	15.51847	439.4334
9/12/2014 3:42:54 PM	15:42:54	95	D	9	64	91.42857	46738.29	67	95.71428	33500	1194.606	57.33554	57.10684	14.43	61.14999	416.373	54.89999	63.66762	1.214001	14.47496	1.981001	1	3	1	0.15	5769	171	187.8291	69.50001	4.816355	213.5406	173.3041	1.174798	15.35928	434.9257
9/12/2014 3:43:04 PM	15:43:04	105	D	9	64	91.42857	46738.29	67	95.71428	33500	1198.05	57.73972	57.10684	14.43	61.14999	417.0034	55.03	63.62271	1.214001	14.47481	1.983	1	3	1	0.15	5771	171.6001	188.1142	69.355	4.806306	213.8908	173.3914	1.171592	15.31737	433.7388
9/12/2014 3:43:14 PM	15:43:14	115	D	9	63	91.42857	46738.29	67	95.71428	33500	1189.42	57.06609	57.08121	14.43112	61.38	416.463	55.36	63.75743	1.222	14.47597	2.014999	1	3	1	0.15	5770	170.6001	187.6417	69.70612	4.830263	213.5906	173.4325	1.187948	15.53121	439.794
9/12/2014 3:43:24 PM	15:43:24	125	D	9	64	91.42857	46738.29	67	95.71428	33500	1186.997	55.98829	57.08121	14.43	61.50999	415.1124	54.765	63.75743	1.273001	14.47785	1.999001	1	3	1	0.15	5770	171.7998	188.301	69.26501	4.80007	212.8402	171.7178	1.183349	15.47107	438.0911
9/12/2014 3:43:34 PM	15:43:34	135	D	9	64	90	46008	67	95.71428	33500	1188.059	55.58411	57.08121	14.43	61.50999	414.6171	55.27499	63.80234	1.343	14.47452	2.032001	1	3	1	0.15	5772	170.6001	187.4873	70.09499	4.857588	212.5651	172.8572	1.189593	15.5527	440.4027
9/12/2014 3:43:44 PM	15:43:44	145	D	9	64	90	46008	67	95.71428	33500	1187.422	55.31467	57.03845	14.42925	61.675	413.9417	55.375	63.66762	1.299	14.47916	2.026001	1	3	1	0.15	5770	171.2002	187.8616	69.79426	4.836998	212.1899	172.093	1.188165	15.53404	439.8742
9/12/2014 3:44:29 PM	15:44:29	0	D	9	64	91.42857	46738.29	67	95.71428	33500	1185.594	54.82067	56.96149	14.42925	61.985	412.4109	55.41	63.35326	1.308001	14.47638	2.023998	1	3	1	0.15	5773	170.6001	187.9593	69.54925	4.820018	211.3394	171.2272	1.187841	15.5298	439.7542
9/12/2014 3:44:39 PM	15:44:39	0	D	9	63	90	46008	67	95.71428	33500	1188.229	54.73086	56.96149	14.43075	61.97	412.1408	55.425	63.21853	1.372	14.48163	2.042999	1	3	1	0.15	5771	171.2002	187.6742	69.43075	4.811306	211.1893	170.9242	1.194609	15.61829	442.2599
9/12/2014 3:44:49 PM	15:44:49	0	D	9	63	91.42857	46738.29	67	95.71428	33500	1187.337	55.00031	56.96149	14.43075	61.97	412.1859	55.35001	63.12872	1.296	14.47589	2.026001	1	3	1	0.15	5773	170.7998	187.7393	69.33575	4.804722	211.2144	170.9861	1.18865	15.54038	440.0538
9/12/2014 3:44:59 PM	15:44:59	0	D	9	64	91.42857	46738.29	67	95.71428	33500	1184.488	54.86558	56.91876	14.43037	61.94501	411.6456	55.315	62.99399	1.24	14.47468	2.025002	1	3	1	0.15	5772	172	188.3663	69.65038	4.826651	210.9142	171.4375	1.188458	15.53786	439.9826
9/12/2014 3:45:09 PM	15:45:09	0	D	9	64	90	46008	67	95.71428	33500	1187.804	54.86558	56.91876	14.42963	61.88	411.5555	55.285	63.0389	1.294001	14.47795	2.012001	1	3	1	0.15	5772	171.3999	187.2673	69.76463	4.834819	210.8642	171.6485	1.184742	15.48929	438.6071
9/12/2014 3:45:19 PM	15:45:19	0	D	9	64	90	46008	67	95.71428	33500	1184.658	54.9554	56.91876	14.42963	61.88	411.6006	54.85001	63.08381	1.237	14.47444	2.050999	1	3	1	0.15	5773	171.7998	188.3989	69.08463	4.787693	210.8892	170.5052	1.19592	15.63543	442.7454
9/12/2014 3:45:29 PM	15:45:29	6	D	10	64	91.42857	46738.29	67	95.71428	33500	1187.422	54.9554	56.88455	14.42962	62.06	411.6456	54.735	63.12872	1.351	14.47382	1.992001	1	3	1	0.15	5779	170.7998	187.9344	68.95963	4.779031	210.9142	170.2798	1.178609	15.40911	436.3365
9/12/2014 3:45:39 PM	15:45:39	16	D	10	64	91.42857	46738.29	67	95.71428	33500	1186.741	54.64104	56.8931	14.43	62.2	411.2404	55.47	62.99399	1.327	14.47882	2.054001	1	3	1	0.15	5773	169.7998	186.6401	69.95499	4.847886	210.6891	171.7911	1.19127	15.57463	441.0237
9/12/2014 3:45:49 PM	15:45:49	26	D	10	64	91.42857	46738.29	67	95.71428	33500	1182.32	54.68595	56.8931	14.43	62.2	411.0152	55.39	62.90417	1.271999	14.47622	2.007	1	3	1	0.15	5771	168.7998	186.356	69.4	4.809425	210.564	170.8367	1.183366	15.4713	438.0977
9/12/2014 3:45:59 PM	15:45:59	36	D	10	63	91.42857	46738.29	67	95.71428	33500	1186.019	54.73086	56.86743	14.43	62.30499	410.8802	55.24001	62.90417	1.360001	14.47752	2.028999	1	3	1	0.15	5773	170.2002	187.0802	69.45499	4.813236	210.489	170.9742	1.189853	15.55611	440.4993
9/12/2014 3:46:09 PM	15:46:09	46	D	10	63	91.42857	46738.29	67	95.71428	33500	1187.294	54.82067	56.86743	14.43	62.30499	410.655	55.095	62.67963	1.353001	14.47962	2.084999	1	3	1	0.15	5772	170.7998	187.2673	69.95	4.84754	210.3639	171.9376	1.206414	15.77263	446.6304
9/12/2014 3:46:19 PM	15:46:19	56	D	10	63	90	46008	67	95.71428	33500	1185.509	54.73086	56.86743	14.43	61.92999	410.3849	55.49001	62.67963	1.308001	14.47687	2.080002	1	3	1	0.15	5774	172	189.3113	69.15	4.7921	210.2139	170.4261	1.204867	15.7524	446.0575
9/12/2014 3:46:29 PM	15:46:29	66	D	10	64	91.42857	46738.29	67	95.71428	33500	1186.359	54.68595	56.86743	14.43	61.67999	410.1147	55.30499	62.54491	1.319	14.47615	2.056999	1	3	1	0.15	5773	171.2002	188.8384	69.46999	4.814275	210.0638	170.9622	1.198341	15.66708	443.6415
9/12/2014 3:46:39 PM	15:46:39	76	D	10	64	91.42857	46738.29	67	95.71428	33500	1187.082	54.82067	56.86743	14.43037	61.705	409.7095	55.405	62.54491	1.219999	14.47522	2.035	1	3	1	0.15	5773	172.3999	189.2785	69.22537	4.797199	209.8386	170.6359	1.191927	15.58322	441.2669
9/12/2014 3:46:49 PM	15:46:49	86	D	10	64	90	46008	67	95.71428	33500	1189.037	54.9554	56.86743	14.43037	61.705	410.4299	55.17999	62.45509	1.287001	14.47952	2.055	1	3	1	0.15	5774	170.2002	187.7718	69.78038	4.83566	210.2389	171.7478	1.198017	15.66284	443.5214
9/12/2014 3:46:59 PM	15:46:59	96	D	10	64	91.42857	46738.29	67	95.71428	33500	1186.231	54.82067	56.85889	14.42887	61.73	410.1598	55.235	62.32036	1.315001	14.47531	2.007999	1	3	1	0.15	5772	170.3999	186.8278	69.20387	4.796207	210.0888	170.6102	1.18692	15.51776	439.4134
9/12/2014 3:47:09 PM	15:47:09	106	D	10	64	90	46008	67	95.71428	33500	1185.551	54.9554	56.85889	14.42887	61.73	410.4749	54.97	62.23055	1.372999	14.47625	2.042999	1	3	1	0.15	5772	170.6001	187.4873	69.37389	4.80799	210.2639	171.0321	1.194651	15.61884	442.2755
9/12/2014 3:47:19 PM	15:47:19	116	D	10	64	91.42857	46738.29	67	95.71428	33500	1187.932	55.09012	56.82471	14.42962	61.64999	410.4299	55.22	62.18564	1.313	14.47606	2.028	1	3	1	0.15	5773	171	188.3989	70.30463	4.872242	210.2389	172.8063	1.190326	15.56229	440.6744
9/12/2014 3:47:29 PM	15:47:29	126	D	10	64	90	46008	67	95.71428	33500	1189.037	55.09012	56.83325	14.42887	61.715	410.0697	55.42	62.23055	1.26	14.47513	2.015999	1	3	1	0.15	5774	170.2002	187.5522	69.81888	4.83883	210.0388	171.9461	1.186714	15.51506	439.3369
9/12/2014 3:47:39 PM	15:47:39	136	D	10	64	91.42857	46738.29	67	95.71428	33500	1192.736	55.53921	56.83325	14.43038	61.77	411.0152	55.145	62.09583	1.209	14.47812	2.051998	1	3	1	0.15	5772	171.3999	187.9268	69.29538	4.80205	210.564	171.3818	1.19806	15.66341	443.5375
9/12/2014 3:47:49 PM	15:47:49	146	D	10	63	90	46008	67	97.14286	34000	1192.056	55.94338	56.83325	14.43038	61.77	411.6906	55.55499	62.23055	1.295	14.47551	2.028	1	3	1	0.15	5772	171.7998	188.8057	69.93037	4.846054	210.9392	172.8705	1.190233	15.56108	440.64
9/12/2014 3:49:15 PM	15:49:15	0	D	10	64	91.42857	46738.29	67	95.71428	33500	1186.104	55.35957	56.85037	14.4285	61.98	412.0958	54.89999	62.23055	1.325001	14.4736	2.032001	1	3	1	0.15	5774	170.2002	186.8925	69.8335	4.83997	211.1643	172.2085	1.19163	15.57934	441.157
9/12/2014 3:49:25 PM	15:49:25	2	D	11	64	91.42857	46738.29	68	97.14286	34000	1189.675	55.09012	56.85889	14.4285	62.05499	411.6006	54.47501	62.27546	1.278	14.47425	2.008999	1	3	1	0.15	5776	171.6001	188.9366	69.4335	4.812247	210.8892	171.2587	1.186932	15.51792	439.4178
9/12/2014 3:49:35 PM	15:49:35	12	D	11	64	91.42857	46738.29	67	95.71428	33500	1183.85	55.31467	56.85889	14.4285	62.05499	411.4655	55.75	62.27546	1.337999	14.47393	2.041	1	3	1	0.15	5772	171	188.5863	69.81349	4.838583	210.8141	172.1339	1.193903	15.60906	441.9985
9/12/2014 3:49:45 PM	15:49:45	22	D	11	63	91.42857	46738.29	68	97.14286	34000	1190.865	55.22485	56.86743	14.42887	62.3	411.8257	55.13	62.23055	1.247	14.47568	2.026001	1	3	1	0.15	5775	171	187.5847	69.84888	4.840909	211.0143	172.1163	1.189087	15.54609	440.2155
9/12/2014 3:49:55 PM	15:49:55	32	D	11	63	90	46008	67	97.14286	34000	1189.632	55.26976	56.87601	14.42887	62.13	412.501	54.995	62.23055	1.188999	14.47405	2.035	1	3	1	0.15	5776	170.3999	187.397	69.19388	4.795515	211.3894	170.9795	1.191645	15.57954	441.1626
9/12/2014 3:50:05 PM	15:50:05	42	D	11	63	91.42857	46738.29	67	95.71428	33500	1189.717	55.35957	56.87601	14.42887	62.13	411.9607	55.38499	62.09583	1.285	14.47719	2.027	1	3	1	0.15	5775	172.2002	189.124	69.93388	4.846801	211.0893	172.3848	1.190182	15.56041	440.621
9/12/2014 3:50:15 PM	15:50:15	52	D	11	64	91.42857	46738.29	67	95.71428	33500	1191.588	55.40448	56.90164	14.4285	62.395	412.1408	55.33	62.27546	1.205999	14.47104	2.036999	1	3	1	0.15	5771	170.6001	187.4548	70.1535	4.862148	211.1893	172.8191	1.195253	15.62671	442.4984
9/12/2014 3:50:25 PM	15:50:25	62	D	11	63	90	46008	67	95.71428	33500	1190.483	55.58411	56.90164	14.42887	62.55	412.1859	55.32001	62.18564	1.205999	14.47347	2.021	1	3	1	0.15	5774	171.2002	187.5522	69.18887	4.795167	211.2144	171.2417	1.188174	15.53416	439.8777
9/12/2014 3:50:35 PM	15:50:35	72	D	11	63	91.42857	46738.29	67	95.71428	33500	1188.825	55.31467	56.90164	14.42887	62.55	411.9157	54.83501	62.18564	1.202999	14.47383	1.986	1	3	1	0.15	5775	170.6001	187.8043	69.37888	4.808336	211.0643	171.3511	1.177896	15.39979	436.0726
9/12/2014 3:50:45 PM	15:50:45	82	D	11	64	91.42857	46738.29	68	95.71428	33500	1190.653	55.44939	56.91019	14.4285	62.745	411.8257	54.78999	62.09583	1.179001	14.47653	2.041	1	3	1	0.15	5774	171.3999	188.8712	69.64349	4.826801	211.0143	171.9458	1.194217	15.61316	442.1147
9/12/2014 3:50:55 PM	15:50:55	92	D	11	64	91.42857	46738.29	67	95.71428	33500	1191.46	55.44939	56.92731	14.4285	63.105	411.7806	54.715	62.14073	1.278999	14.47382	2.037998	1	3	1	0.15	5774	171.3999	188.6516	69.42349	4.811553	210.9892	171.5508	1.19319	15.59973	441.7345
9/12/2014 3:51:05 PM	15:51:05	102	D	11	64	91.42857	46738.29	67	95.71428	33500	1194.947	55.76375	56.92731	14.4285	63.105	412.1859	55.12	62.18564	1.297001	14.47443	2.032001	1	3	1	0.15	5776	170.7998	187.8368	69.7935	4.837198	211.2144	172.4864	1.19346	15.60326	441.8344
9/12/2014 3:51:15 PM	15:51:15	112	D	11	64	91.42857	46738.29	67	95.71428	33500	1198.135	56.0332	56.9444	14.42925	63.015	412.8612	54.71001	62.18564	1.250999	14.47493	1.989	1	3	1	0.15	5773	171	187.7393	69.42425	4.811355	211.5896	172.0497	1.178845	15.41218	436.4237
9/12/2014 3:51:25 PM	15:51:25	122	D	11	64	91.42857	46738.29	67	95.71428	33500	1196.052	56.70683	56.97861	14.4285	62.5	413.9417	55.31	62.18564	1.26	14.47385	2.021999	1	3	1	0.15	5773	170.7998	187.7393	69.4335	4.812247	212.1899	172.6544	1.18847	15.53802	439.9871
9/12/2014 3:51:35 PM	15:51:35	132	D	11	64	91.42857	46738.29	67	95.71428	33500	1190.057	56.25774	56.97861	14.4285	62.5	413.5815	55.13499	62.23055	1.194	14.47624	1.997	1	3	1	0.15	5773	170.7998	187.5197	69.5085	4.817445	211.9898	172.4017	1.181195	15.44292	437.294
9/12/2014 3:51:45 PM	15:51:45	142	D	11	64	91.42857	46738.29	67	95.71428	33500	1190.44	55.85357	56.97003	14.42887	62.605	412.546	54.795	62.27546	1.247	14.47741	2.027	1	3	1	0.15	5775	171	188.4642	69.45888	4.81388	211.4145	171.9602	1.189977	15.55772	440.545
9/12/2014 3:52:08 PM	15:52:08	0	D	11	64	91.42857	46738.29	67	97.14286	34000	1190.057	55.4943	57.01279	14.42887	62.63499	411.6456	55.05	62.18564	1.318001	14.47607	2.015999	1	3	1	0.15	5775	170.3999	187.145	68.66388	4.758782	210.9142	170.2156	1.186812	15.51635	439.3734
9/12/2014 3:52:18 PM	15:52:18	0	D	11	63	91.42857	46738.29	68	97.14286	34000	1191.928	55.40448	57.01279	14.42887	62.63499	411.8257	54.87	62.23055	1.259001	14.47499	2.014	1	3	1	0.15	5773	169.7998	186.4206	70.01888	4.852691	211.0143	172.5756	1.186137	15.50752	439.1234
9/12/2014 3:52:28 PM	15:52:28	0	D	11	63	90	46008	67	95.71428	33500	1192.481	55.80866	57.02136	14.42925	62.60001	412.4109	55.37	62.14073	1.306	14.47468	2.02	1	3	1	0.15	5774	170.7998	187.9919	69.88425	4.843235	211.3394	172.6813	1.187984	15.53166	439.807
9/12/2014 3:52:38 PM	15:52:38	0	D	11	64	90	46008	67	95.71428	33500	1190.398	55.40448	57.02136	14.42925	62.60001	411.8707	55.33	62.27546	1.207001	14.47377	2.033001	1	3	1	0.15	5776	171.6001	188.9366	69.47425	4.81482	211.0393	171.5968	1.19157	15.57855	441.1348
9/12/2014 3:52:48 PM	15:52:48	0	D	11	63	91.42857	46738.29	68	97.14286	34000	1189.207	55.17994	57.03845	14.42813	62.36	411.5105	55.35001	62.18564	1.299999	14.47352	2.033001	1	3	1	0.15	5775	170.7998	187.145	69.77312	4.835911	210.8392	171.9484	1.191676	15.57994	441.174
9/12/2014 3:52:58 PM	15:52:58	0	D	11	63	90	46008	67	97.14286	34000	1188.74	54.91049	57.047	14.42962	62.22	411.4204	55.36	62.23055	1.209	14.47498	2.048	1	3	1	0.15	5778	172.2002	188.3424	69.05463	4.785615	210.7891	170.4124	1.193429	15.60286	441.8232
9/12/2014 3:53:08 PM	15:53:08	0	D	11	64	91.42857	46738.29	67	95.71428	33500	1187.251	54.91049	57.06409	14.43075	62.07001	411.1503	55.49001	62.23055	1.302	14.47465	2.039001	1	3	1	0.15	5775	170.7998	187.5847	69.75963	4.834473	210.6391	171.6783	1.193426	15.60283	441.8221
9/12/2014 3:53:18 PM	15:53:18	0	D	11	63	91.42857	46738.29	67	95.71428	33500	1194.394	55.35957	57.06409	14.43075	62.07001	411.1953	54.52499	62.14073	1.253	14.47871	2.055	1	3	1	0.15	5772	170.7998	188.3663	69.63575	4.825511	210.6641	171.8348	1.198344	15.66712	443.6426
9/12/2014 3:53:28 PM	15:53:28	0	D	11	64	91.42857	46738.29	67	95.71428	33500	1189.377	55.94338	57.06409	14.42962	61.855	412.0057	55.205	62.00601	1.146	14.47144	2.015999	1	3	1	0.15	5778	171.6001	188.7823	69.72963	4.832394	211.1143	172.5175	1.188591	15.53961	440.0319
9/12/2014 3:53:38 PM	15:53:38	0	D	11	64	90	46008	67	95.71428	33500	1190.228	55.31467	57.07263	14.42887	61.605	411.5105	55.33501	62.18564	1.332001	14.47452	1.993	1	3	1	0.15	5775	171.2002	188.2446	69.57388	4.821851	210.8392	171.7013	1.179983	15.42707	436.8453
9/12/2014 3:53:48 PM	15:53:48	6	D	12	64	91.42857	46738.29	67	95.71428	33500	1196.605	56.21283	57.07263	14.42887	61.605	411.7806	55.33	61.91619	1.278999	14.47434	2.035	1	3	1	0.15	5773	171.3999	188.3989	69.44388	4.812841	210.9892	172.2434	1.190264	15.56149	440.6515
9/12/2014 3:53:58 PM	15:53:58	16	D	12	64	91.42857	46738.29	67	95.71428	33500	1196.86	56.88646	57.07263	14.42887	61.77	413.2664	54.815	62.05092	1.253	14.4756	2.033001	1	3	1	0.15	5773	171.3999	187.7393	69.11888	4.790317	211.8147	172.2384	1.191921	15.58315	441.2648
9/12/2014 3:54:08 PM	15:54:08	26	D	12	64	91.42857	46738.29	67	95.71428	33500	1199.878	57.29063	57.07263	14.42887	61.77	413.8517	54.855	62.05092	1.289	14.47394	2.022999	1	3	1	0.15	5774	170	186.8925	69.14388	4.792049	212.1398	172.6321	1.188925	15.54398	440.1557
9/12/2014 3:54:18 PM	15:54:18	36	D	12	64	91.42857	46738.29	67	95.71428	33500	1194.862	57.15591	57.07263	14.42962	61.57001	414.6621	54.86501	62.36527	1.325001	14.4753	2.014999	1	3	1	0.15	5774	171	188.212	69.57463	4.821652	212.5901	173.2867	1.18629	15.50952	439.18
9/12/2014 3:54:28 PM	15:54:28	46	D	12	64	91.42857	46738.29	66	95.71428	33500	1201.749	57.38045	57.06409	14.42887	61.16499	414.482	54.82001	62.32036	1.243999	14.47325	1.987	1	3	1	0.15	5778	170.3999	187.6822	69.09888	4.78893	212.49	172.6281	1.185655	15.50122	438.945
9/12/2014 3:54:38 PM	15:54:38	56	D	12	64	91.42857	46738.29	67	95.71428	33500	1195.499	57.56008	57.06409	14.42887	61.16499	415.0673	55.03999	62.5	1.193001	14.47513	2.007999	1	3	1	0.15	5776	171.3999	188.2772	70.10388	4.858582	212.8152	174.5933	1.18406	15.48037	438.3546
9/12/2014 3:54:48 PM	15:54:48	66	D	12	64	91.42857	46738.29	68	97.14286	34000	1200.388	58.05407	57.06409	14.42962	61.045	415.8327	54.85001	62.58982	1.283001	14.47241	2.004002	1	3	1	0.15	5773	171.2002	187.9593	69.01962	4.783189	213.2404	172.7877	1.182689	15.46244	437.8468
9/12/2014 3:54:58 PM	15:54:58	76	D	12	64	91.42857	46738.29	67	95.71428	33500	1202.004	57.91935	57.06409	14.42887	61.09	416.5081	54.905	62.72454	1.285	14.4756	2.015999	1	3	1	0.15	5775	170.7998	188.0244	69.79887	4.837444	213.6156	174.3564	1.18502	15.49292	438.7099
9/12/2014 3:55:08 PM	15:55:08	86	D	12	63	90	46008	67	97.14286	34000	1196.732	57.73972	57.03845	14.42963	61.155	416.6432	54.935	62.85926	1.281	14.47885	2.011002	1	3	1	0.15	5777	171	188.3097	69.79962	4.837244	213.6907	174.196	1.188782	15.5421	440.1027
9/12/2014 3:55:18 PM	15:55:18	96	D	12	64	91.42857	46738.29	67	95.71428	33500	1193.586	56.75173	57.03845	14.42963	61.155	415.8327	54.98	63.12872	1.233999	14.47538	2.030998	1	3	1	0.15	5775	171	188.0244	69.67963	4.828928	213.2404	173.1263	1.187465	15.52489	439.6152
9/12/2014 3:55:28 PM	15:55:28	106	D	12	64	91.42857	46738.29	67	95.71428	33500	1195.499	56.21283	57.01279	14.42962	61.535	414.7522	55.315	62.99399	1.233	14.4774	2.022999	1	3	1	0.15	5776	172.2002	188.4968	69.43962	4.812296	212.6401	172.2293	1.188004	15.53193	439.8146
9/12/2014 3:55:38 PM	15:55:38	116	D	12	64	91.42857	46738.29	67	95.71428	33500	1199.325	56.75173	57.01279	14.42962	61.535	415.5626	55.39999	62.99399	1.223	14.47487	2.012001	1	3	1	0.15	5772	170.6001	186.6078	69.34962	4.806059	213.0903	172.5323	1.184685	15.48854	438.5859
9/12/2014 3:55:48 PM	15:55:48	126	D	12	64	91.42857	46738.29	68	95.71428	33500	1202.174	57.29063	57.01279	14.43075	61.56	416.328	55.2	63.08381	1.193001	14.47542	2.023998	1	3	1	0.15	5774	170.7998	187.1126	69.45075	4.812692	213.5156	173.17	1.18811	15.53332	439.8538
9/12/2014 3:55:58 PM	15:55:58	136	D	12	63	91.42857	46738.29	67	95.71428	33500	1189.76	56.34756	56.97003	14.43	61.065	415.5175	54.86	63.21853	1.25	14.4759	2.015999	1	3	1	0.15	5776	170.7998	187.8368	69.48	4.814969	213.0653	172.415	1.18562	15.50076	438.9319
9/12/2014 3:56:08 PM	15:56:08	146	D	12	64	90	46008	67	95.71428	33500	1188.867	55.67393	56.95297	14.42963	60.795	414.0318	55.21001	63.21853	1.263	14.4739	2.013	1	3	1	0.15	5779	170.7998	187.7147	68.90962	4.775565	212.2399	170.8085	1.18468	15.48847	438.5839
9/12/2014 3:56:20 PM	15:56:20	0	D	12	64	91.42857	46738.29	67	95.71428	33500	1195.372	55.44939	56.95297	14.42963	60.795	414.0318	55.16499	63.21853	1.347	14.47617	2.011002	1	3	1	0.15	5777	171.3999	188.7496	69.15463	4.792545	212.2399	171.0572	1.184186	15.48202	438.4012
9/12/2014 3:56:30 PM	15:56:30	0	D	12	63	91.42857	46738.29	68	97.14286	34000	1187.974	55.17994	56.91876	14.42962	60.795	413.6266	55.14	63.35326	1.282	14.47621	2.035	1	3	1	0.15	5778	171.2002	189.002	69.61963	4.82477	212.0148	171.6605	1.192493	15.59063	441.4766
9/12/2014 3:56:40 PM	15:56:40	0	D	12	64	90	46008	67	95.71428	33500	1189.25	54.91049	56.90164	14.42925	61.05499	413.1313	55.315	63.35326	1.332001	14.4784	2.056999	1	3	1	0.15	5777	171.3999	188.3097	69.87425	4.842543	211.7396	171.8866	1.197519	15.65633	443.3372
9/12/2014 3:56:50 PM	15:56:50	0	D	12	64	91.42857	46738.29	67	95.71428	33500	1192.268	55.04522	56.90164	14.42925	61.05499	413.5365	55.25999	63.39816	1.257999	14.47637	2.028	1	3	1	0.15	5776	170.7998	187.8368	69.55925	4.820712	211.9648	171.4391	1.188951	15.54431	440.1651
9/12/2014 3:57:00 PM	15:57:00	0	D	12	64	90	46008	67	95.71428	33500	1188.017	55.04522	56.88455	14.43	60.98	413.2664	55.005	63.26344	1.348	14.47651	2.070999	1	3	1	0.15	5780	170.6001	187.7471	69.57	4.821206	211.8147	171.4518	1.201584	15.70947	444.842
9/12/2014 3:57:10 PM	15:57:10	0	D	12	64	91.42857	46738.29	67	95.71428	33500	1187.337	55.04522	56.85037	14.43	60.87	413.1313	55.00999	63.26344	1.332001	14.47604	2.046001	1	3	1	0.15	5781	172	188.8803	69.38	4.808039	211.7396	171.1108	1.194621	15.61844	442.2643
9/12/2014 3:57:20 PM	15:57:20	0	D	12	64	91.42857	46738.29	67	95.71428	33500	1187.974	55.09012	56.85037	14.43	60.87	413.0863	55.22	63.35326	1.278	14.47264	2.049	1	3	1	0.15	5780	171.7998	189.2877	69.74	4.832986	211.7146	171.7952	1.199001	15.67571	443.8859
9/12/2014 3:57:30 PM	15:57:30	0	D	12	64	91.42857	46738.29	67	95.71428	33500	1196.094	55.17994	56.82471	14.43	60.95	413.0863	55.28999	63.21853	1.281	14.47149	2.050999	1	3	1	0.15	5780	171.7998	189.2877	69.68999	4.829521	211.7146	171.7833	1.195628	15.63161	442.6371
9/12/2014 3:57:40 PM	15:57:40	0	D	12	64	90	46008	67	95.71428	33500	1191.46	56.0332	56.79904	14.42925	61.24001	414.6171	55.14	63.26344	1.292999	14.47721	2.071999	1	3	1	0.15	5780	171.6001	189.5081	69.65925	4.827641	212.5651	172.472	1.201903	15.71364	444.9601
9/12/2014 3:57:50 PM	15:57:50	0	D	12	63	90	46008	67	97.14286	34000	1195.712	56.5721	56.79904	14.42925	61.24001	414.7522	54.795	63.26344	1.288	14.47529	2.049999	1	3	1	0.15	5779	170.6001	187.9344	69.76925	4.835265	212.6401	173.1352	1.195457	15.62937	442.5738
9/12/2014 3:58:00 PM	15:58:00	0	D	12	64	91.42857	46738.29	67	97.14286	34000	1201.409	57.24572	56.7905	14.43	61.17999	415.4275	55.02	63.26344	1.243999	14.47572	2.030998	1	3	1	0.15	5781	171.3999	187.9994	69.64001	4.826057	213.0153	173.4786	1.196046	15.63708	442.7921
9/12/2014 3:58:10 PM	15:58:10	7	D	13	64	91.42857	46738.29	67	95.71428	33500	1206.723	58.63788	56.78195	14.43188	60.86501	417.3635	55.19	63.44307	1.315001	14.48139	2.043999	1	3	1	0.15	5781	171.2002	188.6599	69.51188	4.816552	214.0909	174.4339	1.193761	15.60719	441.9458
9/12/2014 3:58:20 PM	15:58:20	17	D	13	64	91.42857	46738.29	67	95.71428	33500	1195.159	58.7277	56.78195	14.43188	60.86501	418.1289	55.00999	63.66762	1.27	14.47817	2.041	1	3	1	0.15	5778	172	189.2222	69.26188	4.799229	214.5161	174.0591	1.188709	15.54115	440.0758
9/12/2014 3:58:30 PM	15:58:30	27	D	13	64	91.42857	46738.29	67	95.71428	33500	1193.544	58.1888	56.7392	14.43037	60.41	417.4536	54.71001	63.80234	1.341	14.47584	2.042	1	3	1	0.15	5782	171	187.8121	69.64038	4.825958	214.1409	174.2909	1.192548	15.59134	441.4968
9/12/2014 3:58:40 PM	15:58:40	37	D	13	64	91.42857	46738.29	67	95.71428	33500	1193.203	57.111	56.70499	14.42925	60.53	417.0484	55.03999	64.07179	1.257999	14.47714	2.041	1	3	1	0.15	5780	170.3999	187.5268	70.02425	4.852938	213.9158	174.0587	1.193153	15.59926	441.721
9/12/2014 3:58:50 PM	15:58:50	47	D	13	64	91.42857	46738.29	67	95.71428	33500	1187.379	56.21283	56.70499	14.42925	60.53	415.9678	54.94	64.07179	1.254999	14.47425	2.036999	1	3	1	0.15	5782	170.7998	187.8121	69.51426	4.817593	213.5406	172.3667	1.190723	15.56748	440.8211
9/12/2014 3:59:00 PM	15:59:00	57	D	13	64	90	46008	67	95.71428	33500	1193.246	55.26976	56.64517	14.43	60.41499	414.8872	55.80499	64.07179	1.238001	14.47593	2.084999	1	3	1	0.15	5778	171.7998	188.7823	69.01501	4.782745	212.7151	170.6474	1.204652	15.74959	445.978
9/12/2014 3:59:10 PM	15:59:10	67	D	13	64	91.42857	46738.29	68	95.71428	33500	1204.47	57.15591	56.62805	14.43038	60.605	416.5081	54.675	63.93707	1.208	14.47624	2.032001	1	3	1	0.15	5779	171.2002	188.375	69.36537	4.8069	213.6156	172.903	1.190964	15.57063	440.9103
9/12/2014 3:59:20 PM	15:59:20	77	D	13	64	91.42857	46738.29	67	95.71428	33500	1202.939	57.78462	56.62805	14.43038	60.605	417.4536	55.315	64.07179	1.233	14.47598	2.021999	1	3	1	0.15	5776	170.6001	187.397	69.53038	4.818335	214.1409	173.7434	1.186126	15.50738	439.1192
9/12/2014 3:59:30 PM	15:59:30	87	D	13	64	91.42857	46738.29	67	95.71428	33500	1202.089	59.04206	56.61096	14.43	60.66499	418.6241	54.74001	64.02689	1.291	14.47608	2.032001	1	3	1	0.15	5779	171.7998	188.815	69.415	4.810464	214.7912	174.624	1.191429	15.57672	441.0828
9/12/2014 3:59:40 PM	15:59:40	97	D	13	64	91.42857	46738.29	67	95.71428	33500	1191.758	57.6499	56.61096	14.43	60.66499	417.7237	55.435	64.34124	1.25	14.47695	2.066002	1	3	1	0.15	5783	170.2002	187.6242	69.96999	4.848925	214.291	174.4211	1.198922	15.67467	443.8565
9/12/2014 3:59:50 PM	15:59:50	107	D	13	64	91.42857	46738.29	67	95.71428	33500	1199.198	57.82953	56.56821	14.43	60.47	417.5436	54.97	64.16161	1.205999	14.47528	2.047001	1	3	1	0.15	5782	172	189.1328	69.585	4.822245	214.1909	173.884	1.193838	15.60821	441.9746
9/12/2014 4:00:00 PM	16:00:00	117	D	13	64	91.42857	46738.29	67	95.71428	33500	1195.627	57.29063	56.52545	14.4315	60.205	417.0034	55.145	64.29633	1.263	14.47465	2.057999	1	3	1	0.15	5776	170.7998	187.8368	69.4615	4.813187	213.8908	173.1829	1.193085	15.59837	441.6959
9/12/2014 4:00:10 PM	16:00:10	127	D	13	64	91.42857	46738.29	67	95.71428	33500	1203.959	57.51517	56.4827	14.43	60.25	417.2285	55.355	64.25143	1.280001	14.47499	2.067001	1	3	1	0.15	5783	171.6001	187.6242	69.06499	4.786209	214.0158	172.6731	1.193163	15.59938	441.7245
9/12/2014 4:00:20 PM	16:00:20	137	D	13	64	91.42857	46738.29	67	95.71428	33500	1200.983	57.91935	56.4827	14.43	60.25	417.9038	54.895	64.25143	1.264999	14.47608	2.033001	1	3	1	0.15	5778	170.3999	188.1221	69.335	4.80492	214.391	173.5103	1.188848	15.54297	440.1272
9/12/2014 4:00:30 PM	16:00:30	147	D	13	64	91.42857	46738.29	68	97.14286	34000	1213.738	59.13187	56.43997	14.43075	60.31	419.3896	54.495	64.25143	1.247	14.47668	2.042	1	3	1	0.15	5784	171.7998	188.3175	69.46075	4.813385	215.2164	174.4288	1.192077	15.58518	441.3224
9/12/2014 4:01:01 PM	16:01:01	0	D	13	64	91.42857	46738.29	68	95.71428	33500	1196.902	57.6499	56.36301	14.43	60.455	418.9393	55.28999	64.47597	1.218	14.47749	2.021	1	3	1	0.15	5782	171	188.032	69.615	4.824324	214.9663	173.7828	1.184553	15.48681	438.5369
9/12/2014 4:01:11 PM	16:01:11	0	D	13	64	91.42857	46738.29	67	95.71428	33500	1191.588	56.61701	56.32025	14.43037	60.57001	417.6787	55.405	64.56578	1.233	14.47558	2.02	1	3	1	0.15	5782	172	188.6926	69.59038	4.822493	214.2659	172.843	1.185267	15.49615	438.8015
9/12/2014 4:01:21 PM	16:01:21	0	D	13	64	91.42857	46738.29	67	95.71428	33500	1206.553	57.29063	56.32025	14.43037	60.57001	418.6241	54.575	64.56578	1.191999	14.47728	2.012001	1	3	1	0.15	5779	170.7998	188.375	69.24037	4.798238	214.7912	172.7935	1.183	15.46651	437.9621
9/12/2014 4:01:31 PM	16:01:31	0	D	13	64	91.42857	46738.29	68	97.14286	34000	1201.791	57.91935	56.31171	14.43	60.91499	419.7948	54.66499	64.52087	1.27	14.47431	2.014999	1	3	1	0.15	5784	171.7998	189.1983	69.43	4.811504	215.4415	173.6819	1.183806	15.47705	438.2607
9/12/2014 4:01:41 PM	16:01:41	0	D	13	63	90	46008	67	95.71428	33500	1195.329	57.42536	56.26895	14.43	61.02	419.5697	55.23	64.70051	1.202	14.47532	2.001999	1	3	1	0.15	5780	170.7998	188.4075	69.14001	4.791407	215.3165	172.7315	1.17983	15.42506	436.7885
9/12/2014 4:01:51 PM	16:01:51	0	D	13	64	91.42857	46738.29	67	95.71428	33500	1196.009	57.6499	56.26895	14.43	61.02	419.9749	55.08	64.74541	1.181	14.47384	1.969	1	3	1	0.15	5782	171.3999	189.1328	68.91	4.775467	215.5416	172.5082	1.170008	15.29666	433.1524
9/12/2014 4:02:01 PM	16:02:01	0	D	13	63	91.42857	46738.29	68	97.14286	34000	1190.44	56.5721	56.26895	14.43038	61.13499	419.0744	54.96001	65.01486	1.184999	14.4719	1.969999	1	3	1	0.15	5784	171.3999	188.5379	69.56537	4.820759	215.0414	172.7592	1.173459	15.34177	434.4298
9/12/2014 4:02:11 PM	16:02:11	0	D	13	64	91.42857	46738.29	68	95.71428	33500	1190.142	55.80866	56.2262	14.43113	61.455	418.5341	55.17	64.88014	1.278999	14.47211	2.023998	1	3	1	0.15	5782	170.3999	187.8121	69.52612	4.81779	214.7412	172.0228	1.185921	15.5047	439.0436
9/12/2014 4:02:21 PM	16:02:21	0	D	13	64	90	46008	67	95.71428	33500	1187.337	55.17994	56.2262	14.43113	61.455	417.4536	54.80499	64.88014	1.278999	14.47796	2.023998	1	3	1	0.15	5783	170.3999	187.8446	69.43613	4.811553	214.1409	171.3183	1.186744	15.51545	439.348
9/12/2014 4:02:31 PM	16:02:31	0	D	13	64	91.42857	46738.29	67	95.71428	33500	1185.764	54.68595	56.21765	14.42962	61.605	416.5531	54.925	64.79032	1.212	14.47603	2.036999	1	3	1	0.15	5783	170.6001	187.6242	69.68463	4.829276	213.6406	171.3501	1.189983	15.55781	440.5473
9/12/2014 4:02:41 PM	16:02:41	0	D	13	64	91.42857	46738.29	67	97.14286	34000	1184.403	54.46141	56.20056	14.43038	61.755	415.6076	54.92	64.65559	1.238001	14.47378	2.025002	1	3	1	0.15	5782	170.2002	187.5917	69.77538	4.835312	213.1153	171.3118	1.186546	15.51288	439.275
9/12/2014 4:02:51 PM	16:02:51	0	D	13	64	91.42857	46738.29	67	95.71428	33500	1203.492	55.89848	56.20056	14.43038	61.755	416.1929	55.12	64.29633	1.240999	14.47374	2.016998	1	3	1	0.15	5778	170.3999	187.9019	69.50038	4.816256	213.4405	172.0605	1.185481	15.49895	438.8806
9/12/2014 4:03:01 PM	16:03:01	0	D	13	64	91.42857	46738.29	67	95.71428	33500	1193.288	56.16792	56.18344	14.4315	61.91499	416.8683	54.545	64.29633	1.263	14.47544	2.025002	1	3	1	0.15	5777	170.7998	187.4295	68.9565	4.778193	213.8157	171.3027	1.187028	15.51917	439.4533
9/12/2014 4:03:11 PM	16:03:11	10	D	14	64	91.42857	46738.29	67	95.71428	33500	1194.224	56.97627	56.16635	14.43	61.74001	417.4085	55.27	64.29633	1.320999	14.47199	2.007	1	3	1	0.15	5781	172.2002	188.8803	69.745	4.833333	214.1159	173.4346	1.185702	15.50183	438.9622
9/12/2014 4:03:21 PM	16:03:21	20	D	14	64	91.42857	46738.29	67	95.71428	33500	1201.791	57.20082	56.16635	14.43	61.74001	417.8138	54.605	64.16161	1.325001	14.4768	2.021	1	3	1	0.15	5780	171.2002	188.4075	69.245	4.798683	214.341	172.7277	1.186072	15.50668	439.0995
9/12/2014 4:03:31 PM	16:03:31	30	D	14	63	91.42857	46738.29	67	95.71428	33500	1196.477	57.24572	56.14923	14.43075	61.595	417.9488	45.53999	64.29633	0.7180004	14.45518	1.591999	1	3	1	0.15	5761	172.3999	189.1041	61.01575	4.228176	214.416	157.2086	1.052372	13.75869	389.6021
9/12/2014 4:03:41 PM	16:03:41	40	D	14	65	92.85714	47468.57	67	95.71428	33500	1211.782	56.48228	56.10651	14.43037	61.425	417.2735	56.74001	64.43106	1.332001	14.47887	2.105	1	3	1	0.15	5791	172	190.0889	70.84038	4.909116	214.0408	174.9593	1.210085	15.82062	447.9893
9/12/2014 4:03:51 PM	16:03:51	50	D	14	64	91.42857	46738.29	67	95.71428	33500	1186.019	56.07811	56.10651	14.43037	61.425	417.0034	55.45	64.43106	1.243999	14.47569	2.050999	1	3	1	0.15	5779	171.2002	188.375	69.60538	4.823533	213.8908	172.4044	1.194426	15.6159	442.1923
9/12/2014 4:04:01 PM	16:04:01	60	D	14	64	91.42857	46738.29	68	97.14286	34000	1195.117	55.62902	56.08939	14.43037	61.37	415.6076	55.45	64.25143	1.229	14.47533	2.030998	1	3	1	0.15	5782	171.6001	189.1328	69.62538	4.824919	213.1153	172.0523	1.188807	15.54243	440.1118
9/12/2014 4:04:11 PM	16:04:11	70	D	14	64	90	46008	67	95.71428	33500	1188.229	55.89848	56.09796	14.43075	61.28	415.9228	55.05499	64.43106	1.246	14.47715	2.018002	1	3	1	0.15	5780	171.3999	187.9669	69.35575	4.806108	213.2905	171.7972	1.186072	15.50667	439.0994
9/12/2014 4:04:21 PM	16:04:21	80	D	14	63	91.42857	46738.29	68	97.14286	34000	1194.266	56.34756	56.09796	14.43075	61.28	416.328	54.69501	64.43106	1.246	14.47484	2.036999	1	3	1	0.15	5784	171.7998	188.7579	69.33575	4.804722	213.5156	172.1487	1.190326	15.56229	440.6744
9/12/2014 4:04:31 PM	16:04:31	90	D	14	64	91.42857	46738.29	67	95.71428	33500	1202.897	56.88646	56.05521	14.43075	61.44	416.1929	55.35001	64.29633	1.224001	14.47368	2.023998	1	3	1	0.15	5778	170.6001	187.9019	70.46575	4.883028	213.4405	174.6403	1.186661	15.51437	439.3174
9/12/2014 4:04:41 PM	16:04:41	100	D	14	64	90	46008	67	95.71428	33500	1190.61	56.30265	56.03809	14.43112	61.72501	416.463	54.89999	64.29633	1.379	14.47738	2.029999	1	3	1	0.15	5783	171.7998	189.1656	69.64612	4.826105	213.5906	172.665	1.188557	15.53917	440.0195
9/12/2014 4:04:51 PM	16:04:51	110	D	14	64	91.42857	46738.29	67	95.71428	33500	1186.741	55.53921	56.03809	14.43112	61.72501	415.2924	55.22501	64.47597	1.226999	14.4772	2.046001	1	3	1	0.15	5781	171.7998	189.1001	69.58612	4.821948	212.9403	171.8978	1.193002	15.59727	441.6649
9/12/2014 4:05:01 PM	16:05:01	120	D	14	63	90	46008	67	97.14286	34000	1186.231	55.13503	56.03809	14.43075	61.96001	414.7522	55.125	64.47597	1.323	14.4773	2.014999	1	3	1	0.15	5783	170.7998	187.6242	70.05575	4.854616	212.6401	172.3919	1.188045	15.53246	439.8297
9/12/2014 4:05:11 PM	16:05:11	130	D	14	63	90	46008	67	97.14286	34000	1198.73	56.16792	56.021	14.43075	62.215	415.0223	55.19501	64.34124	1.304001	14.47379	2.028	1	3	1	0.15	5781	171	187.7796	69.22575	4.7971	212.7902	171.7954	1.187781	15.52902	439.7322
9/12/2014 4:05:21 PM	16:05:21	140	D	14	64	91.42857	46738.29	68	97.14286	34000	1196.265	56.70683	56.021	14.43075	62.215	416.1028	55.09	64.34124	1.216	14.4747	1.999001	1	3	1	0.15	5785	172	189.231	69.36575	4.806801	213.3905	172.5128	1.179049	15.41486	436.4995
9/12/2014 4:05:31 PM	16:05:31	150	D	14	64	91.42857	46738.29	67	95.71428	33500	1198.05	56.43737	56.021	14.43	62.41499	415.9678	54.82001	64.47597	1.23	14.47449	2.030998	1	3	1	0.15	5782	170.7998	187.8121	69.54501	4.819474	213.3155	172.6094	1.188516	15.53863	440.0043
9/12/2014 4:09:13 PM	16:09:13	0	D	14	64	92.85714	47468.57	68	97.14286	34000	1200.601	55.13503	55.8158	14.43113	62.56	416.9583	56.87	64.79032	1.372	14.48118	2.098999	1	3	1	0.15	5773	179.6001	197.8519	71.70113	4.968505	213.8657	175.3002	1.208056	15.79409	447.2382
9/12/2014 4:09:23 PM	16:09:23	0	D	14	65	92.85714	47468.57	67	94.28571	33000	1224.196	54.91049	55.84143	14.43075	62.72	418.8493	57.645	64.52087	1.384001	14.48028	2.16	1	3	1	0.15	5760	185.3999	204.4252	72.57613	5.029138	214.9163	176.6327	1.225944	16.02796	453.8606
9/12/2014 4:09:33 PM	16:09:33	0	D	14	66	92.85714	47468.57	67	95.71428	33500	1235.481	55.09012	55.84143	14.43075	62.72	421.2805	58.47	64.38615	1.469999	14.47947	2.169998	1	3	1	0.15	5759	190.6001	208.9953	72.35075	5.013651	216.267	176.4005	1.228606	16.06276	454.8459
9/12/2014 4:09:43 PM	16:09:43	0	D	14	66	94.28571	48198.86	67	95.71428	33500	1246.88	55.13503	55.82437	14.43113	62.795	423.5768	58.745	64.25143	1.438	14.48421	2.193001	1	3	1	0.15	5754	195.6001	214.2916	73.23112	5.074526	217.5426	177.9647	1.234311	16.13734	456.9579
9/12/2014 4:09:53 PM	16:09:53	0	D	14	65	92.85714	47468.57	67	95.71428	33500	1248.68	55.17994	55.82437	14.43113	62.795	424.7924	59.355	64.1167	1.507	14.4857	2.262001	1	3	1	0.15	5738	201.3999	219.8139	73.99112	5.12719	218.218	179.3129	1.254538	16.4018	464.4465
9/12/2014 4:10:03 PM	16:10:03	0	D	14	66	94.28571	48198.86	67	95.71428	33500	1266.937	55.40448	55.82437	14.43075	62.67999	427.6739	58.50999	64.02689	1.424999	14.48221	2.235001	1	3	1	0.15	5747	201.7998	220.5963	73.50076	5.093343	219.8188	178.6698	1.247416	16.30869	461.8098
9/12/2014 4:10:13 PM	16:10:13	0	D	14	66	94.28571	48198.86	67	95.71428	33500	1265.565	56.52719	55.82437	14.43113	62.675	431.0486	59.015	64.29633	1.429001	14.48454	2.240002	1	3	1	0.15	5750	200.6001	219.8353	73.42113	5.087692	221.6937	179.5136	1.249295	16.33325	462.5052
9/12/2014 4:10:23 PM	16:10:23	0	D	14	66	94.28571	48198.86	67	95.71428	33500	1281.122	55.85357	55.82437	14.43113	62.675	430.6039	59.89999	64.16161	1.478001	14.48479	2.292	1	3	1	0.15	5741	206.7998	225.6125	74.46112	5.159758	221.4466	180.7105	1.262957	16.51186	467.5631
9/12/2014 4:10:33 PM	16:10:33	0	D	14	66	94.28571	48198.86	67	95.71428	33500	1274.308	55.98829	55.84143	14.43038	62.465	433.0498	59.96001	64.02689	1.561001	14.4843	2.278999	1	3	1	0.15	5742	206.3999	224.9958	74.61037	5.170369	222.8055	181.0909	1.257627	16.44218	465.5898
9/12/2014 4:10:43 PM	16:10:43	0	D	14	66	95.71428	48929.14	67	95.71428	33500	1289.778	55.98829	55.82437	14.43188	62.55	434.7842	60.36	63.89216	1.482	14.48681	2.312	1	3	1	0.15	5735	211	229.9631	75.60688	5.238881	223.769	182.7717	1.268857	16.589	469.7473
9/12/2014 4:10:53 PM	16:10:53	0	D	14	66	94.28571	48198.86	67	95.71428	33500	1285.836	56.30265	55.82437	14.43188	62.55	437.2745	60.39	63.84725	1.445999	14.48945	2.317001	1	3	1	0.15	5735	210.3999	229.9631	75.21188	5.211511	225.1525	182.3797	1.270375	16.60885	470.3095
9/12/2014 4:11:03 PM	16:11:03	0	D	14	67	95.71428	48929.14	67	95.71428	33500	1289.264	56.21283	55.82437	14.43075	62.295	438.075	60.95	63.84725	1.49	14.48706	2.32	1	3	1	0.15	5732	211.2002	230.4977	75.56075	5.236094	225.5972	182.9021	1.27108	16.61806	470.5703
9/12/2014 4:11:13 PM	16:11:13	0	D	14	66	95.71428	48929.14	67	95.71428	33500	1291.75	56.79664	55.82437	14.43225	61.94	439.8093	60.825	63.84725	1.666	14.48343	2.32	1	3	1	0.15	5734	210.7998	229.2679	75.59724	5.238077	226.5607	183.4668	1.270938	16.61621	470.5177
9/12/2014 4:11:23 PM	16:11:23	0	D	14	67	95.71428	48929.14	67	95.71428	33500	1283.05	55.80866	55.82437	14.43225	61.94	439.4981	61.22501	63.93707	1.497	14.48729	2.308998	1	3	1	0.15	5736	211.2002	230.6586	75.00725	5.197197	226.3878	181.5925	1.268003	16.57784	469.4312
9/12/2014 4:11:33 PM	16:11:33	0	D	14	66	94.28571	48198.86	67	95.71428	33500	1284.593	55.44939	55.8158	14.4315	61.78	439.0978	60.74001	64.07179	1.495001	14.48723	2.32	1	3	1	0.15	5736	211.7998	231.5321	74.9915	5.196376	226.1655	181.2554	1.270831	16.61481	470.4784
9/12/2014 4:11:43 PM	16:11:43	0	D	14	67	95.71428	48929.14	67	95.71428	33500	1285.622	55.22485	55.80725	14.43075	61.61501	438.92	60.845	63.93707	1.575001	14.48792	2.32	1	3	1	0.15	5737	211.2002	230.2614	75.09075	5.203524	226.1655	181.2325	1.27103	16.61741	470.5518
9/12/2014 4:11:53 PM	16:11:53	0	D	14	67	95.71428	48929.14	66	94.28571	33000	1288.578	55.53921	55.80725	14.43075	61.61501	439.587	60.83501	63.89216	1.582001	14.48597	2.313999	1	3	1	0.15	5735	210.7998	229.9631	74.92075	5.191743	226.4372	181.2209	1.269344	16.59537	469.9276
9/12/2014 4:12:03 PM	16:12:03	0	D	14	67	95.71428	48929.14	67	95.71428	33500	1281.593	55.04522	55.80725	14.4315	61.60001	439.4091	60.535	63.84725	1.485001	14.48658	2.327	1	3	1	0.15	5738	210.7998	229.8647	75.53151	5.233794	226.3384	181.8138	1.272974	16.64283	471.2717
9/12/2014 4:12:13 PM	16:12:13	0	D	14	67	95.71428	48929.14	66	94.28571	33000	1286.736	54.86558	55.82437	14.43037	61.55	438.742	62.00999	63.71252	1.593	14.48661	2.362	1	3	1	0.15	5731	215.7998	235.4766	76.51538	5.302384	225.9678	183.3196	1.286646	16.82158	476.3333
9/12/2014 4:12:23 PM	16:12:23	0	D	14	67	95.71428	48929.14	67	94.28571	33000	1294.578	54.86558	55.82437	14.43037	61.55	440.0317	61.845	63.66762	1.558001	14.48426	2.346001	1	3	1	0.15	5731	216.3999	236.5677	76.11537	5.274664	226.6843	182.6487	1.278232	16.71157	473.2183
9/12/2014 4:12:33 PM	16:12:33	0	D	14	67	95.71428	48929.14	67	95.71428	33500	1293.635	54.59613	55.8158	14.4315	61.55	439.8983	61.575	63.53289	1.587999	14.48744	2.379002	1	3	1	0.15	5730	216	235.4355	76.1315	5.27537	226.6102	182.4272	1.282325	16.76509	474.7337
9/12/2014 4:12:43 PM	16:12:43	0	D	14	67	95.71428	48929.14	67	95.71428	33500	1294.621	54.46141	55.80725	14.43075	61.50999	439.8538	61.13	63.48798	1.583	14.48948	2.391998	1	3	1	0.15	5731	216.3999	236.3498	75.85075	5.256189	226.5855	181.8425	1.291895	16.89021	478.2766
9/12/2014 4:12:53 PM	16:12:53	0	D	14	66	95.71428	48929.14	67	95.71428	33500	1292.393	54.50632	55.80725	14.43075	61.50999	439.2312	61.49001	63.53289	1.575001	14.48836	2.361	1	3	1	0.15	5732	216.2002	235.2997	75.68575	5.244755	226.2396	181.6044	1.284804	16.79749	475.6512
9/12/2014 4:13:03 PM	16:13:03	0	D	14	67	95.71428	48929.14	66	95.71428	33500	1294.321	54.50632	55.79871	14.43113	61.255	439.1868	61.795	63.39816	1.552999	14.48718	2.372002	1	3	1	0.15	5731	216.7998	235.2587	75.85112	5.256078	226.2149	181.8796	1.285713	16.80937	475.9877
9/12/2014 4:13:13 PM	16:13:13	0	D	14	67	95.71428	48929.14	66	94.28571	33000	1294.707	54.50632	55.79016	14.42963	61.38	439.2312	61.95	63.12872	1.613001	14.49023	2.382	1	3	1	0.15	5731	218.6001	237.8774	75.54962	5.23573	226.2396	181.3847	1.28889	16.85092	477.1642
9/12/2014 4:13:23 PM	16:13:23	0	D	14	67	95.71428	48929.14	66	94.28571	33000	1297.664	54.77576	55.79016	14.42963	61.38	439.7649	61.435	63.12872	1.583	14.48568	2.348	1	3	1	0.15	5730	216.6001	235.4355	76.21962	5.282162	226.536	182.7508	1.281127	16.74942	474.29
9/12/2014 4:13:33 PM	16:13:33	0	D	14	67	95.71428	48929.14	67	94.28571	33000	1292.521	54.91049	55.8158	14.43075	61.52499	440.0317	61.48	62.99399	1.576	14.4872	2.375999	1	3	1	0.15	5731	215.2002	235.695	75.98075	5.265198	226.6843	182.4589	1.287306	16.8302	476.5774
9/12/2014 4:13:43 PM	16:13:43	0	D	14	67	95.71428	48929.14	67	95.71428	33500	1294.407	54.68595	55.8158	14.43113	61.31	440.1651	61.25999	62.99399	1.552	14.4875	2.394001	1	3	1	0.15	5732	216.2002	235.5176	75.98112	5.265087	226.7584	182.2573	1.29322	16.90752	478.7669
9/12/2014 4:13:53 PM	16:13:53	0	D	14	67	95.71428	48929.14	67	95.71428	33500	1304.092	54.59613	55.8158	14.43113	61.31	440.9656	62.255	62.99399	1.646	14.4926	2.438	1	3	1	0.15	5723	220.7998	240.5961	76.59113	5.307356	227.0549	183.2005	1.303844	17.04643	482.7003
9/12/2014 4:14:03 PM	16:14:03	0	D	14	67	95.71428	48929.14	67	95.71428	33500	1305.335	54.55122	55.80725	14.43	61.265	441.3658	61.71001	62.85926	1.646	14.4875	2.41	1	3	1	0.15	5726	221.7998	241.3765	76.245	5.283784	227.4255	182.5911	1.296602	16.95174	480.0191
9/12/2014 4:14:13 PM	16:14:13	0	D	14	67	95.71428	48929.14	66	94.28571	33000	1306.621	54.64104	55.82437	14.43	61.45	441.6327	62.59	62.85926	1.65	14.49024	2.415001	1	3	1	0.15	5725	221.7998	241.9884	76.755	5.319127	227.5737	183.5241	1.295652	16.93932	479.6674
9/12/2014 4:14:23 PM	16:14:23	0	D	14	67	95.71428	48929.14	67	94.28571	33000	1303.792	54.68595	55.82437	14.43	61.45	441.7661	61.88	62.72454	1.621	14.48884	2.397999	1	3	1	0.15	5725	224.3999	243.2967	76.82999	5.324324	227.6478	183.6892	1.292279	16.89521	478.4184
9/12/2014 4:14:33 PM	16:14:33	0	D	14	68	97.14286	49659.43	66	94.28571	33000	1320.973	54.86558	55.83289	14.42925	61.39	443.6783	62.39999	62.63472	1.576	14.48899	2.441002	1	3	1	0.15	5718	226.2002	245.8294	77.42925	5.366131	228.7102	184.8527	1.305192	17.06405	483.1992
9/12/2014 4:14:43 PM	16:14:43	0	D	14	68	97.14286	49659.43	67	95.71428	33500	1321.579	54.64104	55.82437	14.42962	61.235	444.7011	62.705	62.58982	1.6	14.48727	2.451	1	3	1	0.15	5720	227	246.3515	77.29463	5.356663	229.2784	184.426	1.307841	17.09867	484.1797
9/12/2014 4:14:53 PM	16:14:53	0	D	14	68	97.14286	49659.43	66	94.28571	33000	1320.065	54.73086	55.82437	14.42962	61.235	445.2792	62.71001	62.63472	1.691	14.48593	2.439999	1	3	1	0.15	5722	226.3999	246.0014	77.50963	5.371562	229.5996	184.8628	1.304804	17.05897	483.0555
9/12/2014 4:15:03 PM	16:15:03	0	D	14	67	95.71428	48929.14	67	94.28571	33000	1318.249	54.91049	55.8671	14.42925	61.33501	445.5905	63.02499	62.54491	1.655001	14.48863	2.439999	1	3	1	0.15	5719	226.7998	246.0905	76.97926	5.334945	229.7725	184.1442	1.306362	17.07935	483.6324
9/12/2014 4:15:13 PM	16:15:13	0	D	14	67	97.14286	49659.43	66	94.28571	33000	1321.925	54.91049	55.8671	14.43037	61.315	446.2576	63.09	62.41018	1.576	14.48921	2.411999	1	3	1	0.15	5716	226.6001	246.8318	77.23038	5.351932	230.1431	184.5523	1.298559	16.97732	480.7434
9/12/2014 4:15:23 PM	16:15:23	9	E	15	67	95.71428	48929.14	67	95.71428	33500	1327.633	55.71884	55.8671	14.43037	61.315	448.1698	62.09	62.45509	1.59	14.48892	2.404999	1	3	1	0.15	5717	227.2002	246.875	77.20038	5.349853	231.2055	185.2213	1.295032	16.93122	479.4378
9/12/2014 4:15:33 PM	16:15:33	19	E	15	68	97.14286	49659.43	66	95.71428	33500	1321.146	55.85357	55.87564	14.43	61.45	448.7035	62.75	62.58982	1.681	14.48739	2.415001	1	3	1	0.15	5716	226.3999	247.0497	77.34499	5.360013	231.5019	185.5853	1.298268	16.97352	480.6357
9/12/2014 4:15:43 PM	16:15:43	29	E	15	68	97.14286	49659.43	67	95.71428	33500	1324.865	55.62902	55.88419	14.43037	61.47501	448.5701	62.845	62.58982	1.628	14.48925	2.417	1	3	1	0.15	5718	225.2002	245.1767	76.94537	5.332181	231.4278	184.7161	1.300476	17.00239	481.4534
9/12/2014 4:15:53 PM	16:15:53	39	E	15	67	95.71428	48929.14	67	94.28571	33000	1317.557	55.13503	55.88419	14.43037	61.47501	448.748	62.765	62.63472	1.612	14.48495	2.425999	1	3	1	0.15	5719	225.3999	245.655	77.25537	5.353664	231.5267	184.7936	1.301023	17.00953	481.6556
9/12/2014 4:16:03 PM	16:16:03	49	E	15	67	97.14286	49659.43	66	94.28571	33000	1318.638	55.17994	55.90985	14.42963	61.38499	448.3477	62.14999	62.63472	1.613001	14.4889	2.374001	1	3	1	0.15	5719	226.3999	246.7439	77.08963	5.342455	231.2302	184.5643	1.290227	16.86839	477.6588
9/12/2014 4:16:13 PM	16:16:13	59	E	15	67	97.14286	49659.43	66	94.28571	33000	1319.027	55.04522	55.90985	14.42962	61.58501	448.4811	62.42999	62.5	1.629999	14.48774	2.426998	1	3	1	0.15	5718	226.3999	246.0474	77.32962	5.359087	231.3784	184.8438	1.301591	17.01697	481.8662
9/12/2014 4:16:23 PM	16:16:23	69	E	15	67	95.71428	48929.14	67	95.71428	33500	1316.863	55.09012	55.90985	14.42962	61.58501	448.2143	63	62.5	1.601999	14.49027	2.404999	1	3	1	0.15	5716	226	245.9613	76.98962	5.335525	231.2302	184.3178	1.295839	16.94177	479.7367
9/12/2014 4:16:33 PM	16:16:33	79	E	15	68	97.14286	49659.43	67	94.28571	33000	1324.606	55.44939	55.93549	14.42925	61.765	449.0592	62.95	62.41018	1.58	14.48747	2.401001	1	3	1	0.15	5717	226.2002	246.4397	77.34925	5.360587	231.5514	185.2393	1.296358	16.94855	479.9287
9/12/2014 4:16:43 PM	16:16:43	89	E	15	68	97.14286	49659.43	66	94.28571	33000	1318.854	55.40448	55.95261	14.42887	61.645	449.326	62.17999	62.67963	1.653	14.488	2.421001	1	3	1	0.15	5717	224.6001	244.2626	77.03888	5.339216	231.8478	184.686	1.299786	16.99337	481.1978
9/12/2014 4:16:53 PM	16:16:53	99	E	15	68	97.14286	49659.43	66	94.28571	33000	1318.984	55.09012	55.95261	14.42887	61.645	448.9703	63.14	62.58982	1.572001	14.48598	2.405998	1	3	1	0.15	5716	226.3999	246.3966	77.63388	5.380453	231.6502	185.3953	1.29579	16.94113	479.7186
9/12/2014 4:17:03 PM	16:17:03	109	E	15	68	97.14286	49659.43	66	94.28571	33000	1320.325	55.22485	55.97824	14.43	61.41	448.7035	63.065	62.32036	1.634001	14.49115	2.412998	1	3	1	0.15	5716	226.2002	245.9613	77.15	5.3465	231.5019	184.7014	1.296885	16.95544	480.1238
9/12/2014 4:17:13 PM	16:17:13	119	E	15	68	97.14286	49659.43	67	95.71428	33500	1319.46	55.04522	55.97824	14.43038	61.42	449.0148	62.75999	62.36527	1.655001	14.486	2.398998	1	3	1	0.15	5714	225.6001	246.0931	77.02538	5.337725	231.6749	184.3308	1.294193	16.92024	479.1272
9/12/2014 4:17:23 PM	16:17:23	129	E	15	68	97.14286	49659.43	67	95.71428	33500	1320.411	55.13503	55.97824	14.43038	61.42	449.4595	62.66	62.54491	1.621	14.48965	2.410999	1	3	1	0.15	5715	225.3999	246.7886	76.37538	5.292681	231.9219	183.324	1.297347	16.96148	480.2949
9/12/2014 4:17:33 PM	16:17:33	139	E	15	68	97.14286	49659.43	67	95.71428	33500	1316.306	54.73086	56.01245	14.42925	61.265	447.903	63.25999	62.45509	1.667999	14.49119	2.429001	1	3	1	0.15	5714	226.2002	246.3103	76.96925	5.334251	231.0572	183.9679	1.308971	17.11345	484.5983
9/12/2014 4:17:43 PM	16:17:43	149	E	15	68	95.71428	48929.14	67	95.71428	33500	1315.92	54.50632	56.02957	14.43075	61.035	447.4138	62.42	62.36527	1.642	14.4894	2.428001	1	3	1	0.15	5715	225.3999	246.3535	77.43075	5.365677	230.7855	184.522	1.302104	17.02367	482.056
9/12/2014 4:17:56 PM	16:17:56	0	E	15	68	97.14286	49659.43	67	95.71428	33500	1318.076	54.91049	56.01245	14.43075	60.535	447.5472	62.905	62.36527	1.554001	14.48991	2.432999	1	3	1	0.15	5715	226.7998	247.0065	77.93575	5.400672	230.8596	185.718	1.306913	17.08655	483.8363
9/12/2014 4:18:06 PM	16:18:06	0	E	15	67	95.71428	48929.14	67	95.71428	33500	1317.034	54.73086	56.01245	14.43075	60.535	447.6806	62.83501	62.36527	1.546	14.49367	2.425999	1	3	1	0.15	5718	226.6001	246.0474	77.08575	5.34177	230.9337	184.1486	1.302553	17.02954	482.2221
9/12/2014 4:18:16 PM	16:18:16	0	E	15	68	97.14286	49659.43	66	94.28571	33000	1315.534	54.55122	56.02957	14.43038	60.39	447.4138	63.03	62.36527	1.517	14.49181	2.424	1	3	1	0.15	5716	225.2002	245.7435	77.22537	5.351584	230.7855	184.2244	1.301681	17.01814	481.8993
9/12/2014 4:18:26 PM	16:18:26	0	E	15	68	95.71428	48929.14	67	95.71428	33500	1316.349	54.28177	56.05521	14.43075	60.16499	447.2804	63.16499	62.36527	1.733999	14.4937	2.431	1	3	1	0.15	5715	225.7998	245.9183	77.69074	5.383694	230.7113	184.7526	1.303089	17.03655	482.4206
9/12/2014 4:18:36 PM	16:18:36	0	E	15	68	97.14286	49659.43	67	95.71428	33500	1315.877	54.64104	56.05521	14.43075	60.16499	448.0809	62.35001	62.23055	1.591999	14.48814	2.403999	1	3	1	0.15	5719	225.7998	246.3084	76.86074	5.326178	231.1561	183.6939	1.297939	16.96922	480.5141
9/12/2014 4:18:46 PM	16:18:46	0	E	15	68	97.14286	49659.43	66	94.28571	33000	1317.506	54.50632	56.02957	14.43	59.895	448.3477	63.045	62.36527	1.653999	14.48945	2.407001	1	3	1	0.15	5717	226	246.4397	77.6	5.377685	231.3043	184.7291	1.297297	16.96083	480.2765
9/12/2014 4:18:56 PM	16:18:56	0	E	15	68	97.14286	49659.43	66	94.28571	33000	1313.177	54.46141	56.05521	14.43113	59.84	448.3922	62.37	62.27546	1.601	14.48714	2.368	1	3	1	0.15	5719	227.3999	247.6148	77.36612	5.361059	231.329	184.3715	1.282243	16.76401	474.703
9/12/2014 4:19:06 PM	16:19:06	0	E	15	68	97.14286	49659.43	66	95.71428	33500	1321.276	54.55122	56.05521	14.43113	59.84	448.3922	62.80499	62.27546	1.639	14.49021	2.41	1	3	1	0.15	5718	226.3999	246.0474	77.29613	5.356209	231.329	184.3353	1.297433	16.96261	480.3268
9/12/2014 4:19:16 PM	16:19:16	0	E	15	67	95.71428	48929.14	67	95.71428	33500	1322.573	55.44939	56.04663	14.43113	60.02	449.5929	62.61501	62.14073	1.573	14.48797	2.404999	1	3	1	0.15	5717	224.7998	245.3511	77.57613	5.375612	231.9961	185.5995	1.296175	16.94615	479.8608
9/12/2014 4:19:26 PM	16:19:26	9	E	16	68	97.14286	49659.43	66	94.28571	33000	1317.12	55.13503	56.04663	14.43113	59.53999	448.9258	62.72501	62.41018	1.580999	14.48783	2.424999	1	3	1	0.15	5718	225.6001	245.8294	77.01613	5.336807	231.6255	184.3885	1.298499	16.97655	480.7214
9/12/2014 4:19:36 PM	16:19:36	19	E	16	68	97.14286	49659.43	66	94.28571	33000	1315.02	54.86558	56.04663	14.43113	59.53999	447.9474	62.59	62.23055	1.573999	14.48982	2.424999	1	3	1	0.15	5718	226.6001	246.7007	77.09612	5.34235	231.0819	184.2823	1.301488	17.01562	481.8278
9/12/2014 4:19:46 PM	16:19:46	29	E	16	68	97.14286	49659.43	66	94.28571	33000	1314.892	54.59613	56.06375	14.43112	59.28999	447.6806	63.2	62.23055	1.554001	14.48822	2.421001	1	3	1	0.15	5719	225.6001	245.655	77.09612	5.34235	230.9337	184.0427	1.300341	17.00063	481.4033
9/12/2014 4:19:56 PM	16:19:56	39	E	16	67	95.71428	48929.14	67	95.71428	33500	1317.249	54.46141	56.02957	14.43	59.27499	447.5028	63.47501	62.18564	1.631001	14.48688	2.405998	1	3	1	0.15	5720	225.3999	245.6979	77.9	5.398475	230.8349	185.2652	1.29633	16.94819	479.9185
9/12/2014 4:20:06 PM	16:20:06	49	E	16	68	97.14286	49659.43	67	95.71428	33500	1318.984	54.64104	56.02957	14.43	59.27499	447.903	63.06	62.18564	1.659	14.48421	2.368	1	3	1	0.15	5722	226.3999	246.4376	77.09499	5.342688	231.0572	184.0908	1.286007	16.81322	476.0966
9/12/2014 4:20:16 PM	16:20:16	59	E	16	68	97.14286	49659.43	67	95.71428	33500	1327.33	54.82067	56.05521	14.43113	59.395	448.2143	63.105	62.09583	1.663	14.4918	2.405998	1	3	1	0.15	5721	226.6001	246.6121	77.15112	5.346161	231.2302	184.3339	1.296677	16.95272	480.0468
9/12/2014 4:20:26 PM	16:20:26	69	E	16	68	95.71428	48929.14	67	95.71428	33500	1322.4	55.40448	56.05521	14.43113	59.395	449.3705	62	61.91619	1.59	14.48949	2.351002	1	3	1	0.15	5722	227.3999	246.8733	77.36111	5.360713	231.8725	185.2025	1.277083	16.69655	472.793
9/12/2014 4:20:36 PM	16:20:36	79	E	16	68	97.14286	49659.43	66	94.28571	33000	1320.541	55.31467	56.03809	14.43037	59.535	449.6374	63.015	62.18564	1.632	14.48943	2.390999	1	3	1	0.15	5722	226.7998	247.5271	76.98038	5.334607	232.0208	184.4953	1.292417	16.89703	478.4698
9/12/2014 4:20:46 PM	16:20:46	89	E	16	68	97.14286	49659.43	66	94.28571	33000	1315.663	54.86558	56.04663	14.43	59.515	449.1037	62.64999	62.18564	1.653999	14.48519	2.398998	1	3	1	0.15	5722	224.7998	245.7838	77.605	5.378032	231.7243	185.1375	1.294377	16.92265	479.1954
9/12/2014 4:20:56 PM	16:20:56	99	E	16	68	97.14286	49659.43	66	94.28571	33000	1319.114	54.73086	56.03809	14.43	59.595	448.7035	62.53	62.05092	1.622999	14.4892	2.409	1	3	1	0.15	5721	225.6001	245.5228	77.79	5.390852	231.5019	185.3237	1.301423	17.01477	481.804
9/12/2014 4:21:06 PM	16:21:06	109	E	16	68	97.14286	49659.43	66	94.28571	33000	1318.076	54.37159	56.03809	14.43	59.595	448.5701	62.86	62.05092	1.683001	14.49155	2.408001	1	3	1	0.15	5724	226.2002	246.9596	77.04	5.338877	231.4278	183.7598	1.297245	16.96014	480.2569
9/12/2014 4:21:16 PM	16:21:16	119	E	16	67	97.14286	49659.43	66	94.28571	33000	1315.963	54.32668	56.02957	14.43	59.655	448.7035	62.69	62.05092	1.65	14.49082	2.429001	1	3	1	0.15	5721	226.6001	246.8301	77.23	5.352045	231.5019	184.0357	1.30283	17.03316	482.3246
9/12/2014 4:21:26 PM	16:21:26	129	E	16	67	95.71428	48929.14	67	95.71428	33500	1317.249	54.37159	56.01245	14.43075	59.73	448.2143	62.49001	62.09583	1.714001	14.49121	2.414001	1	3	1	0.15	5723	226.3999	246.6983	77.19074	5.349046	231.2302	184.0038	1.298784	16.98027	480.8268
9/12/2014 4:21:36 PM	16:21:36	139	E	16	68	97.14286	49659.43	66	95.71428	33500	1319.114	54.55122	56.01245	14.43075	59.73	448.6145	63.075	61.9611	1.552999	14.48868	2.433998	1	3	1	0.15	5722	226.2002	246.2195	77.89075	5.397554	231.4525	185.3234	1.305509	17.06819	483.3165
9/12/2014 4:21:46 PM	16:21:46	149	E	16	68	97.14286	49659.43	67	95.71428	33500	1319.417	54.68595	56.021	14.43038	59.905	448.4811	62.91	61.9611	1.625999	14.48701	2.408001	1	3	1	0.15	5724	226.6001	246.5238	77.62038	5.378957	231.3784	184.9996	1.296346	16.94839	479.9242
9/12/2014 4:22:29 PM	16:22:29	0	E	16	68	97.14286	49659.43	67	95.71428	33500	1316.306	54.37159	56.00391	14.43075	59.845	447.3694	63.25999	62.05092	1.584	14.49154	2.382	1	3	1	0.15	5724	227.3999	247.3954	77.72575	5.38612	230.7608	184.8906	1.292147	16.8935	478.3698
9/12/2014 4:22:39 PM	16:22:39	0	E	16	68	97.14286	49659.43	66	94.28571	33000	1312.406	54.37159	56.00391	14.43	59.78999	447.4583	63.23	62.05092	1.676001	14.48537	2.43	1	3	1	0.15	5724	226.6001	246.3056	77.18501	5.348926	230.8102	184.0009	1.297776	16.96708	480.4535
9/12/2014 4:22:49 PM	16:22:49	0	E	16	68	97.14286	49659.43	66	94.28571	33000	1317.514	54.32668	56.00391	14.43	59.78999	447.7696	63.395	61.78146	1.610001	14.48486	2.407001	1	3	1	0.15	5721	227	247.0477	76.68	5.313929	230.9831	183.1198	1.298898	16.98176	480.869
9/12/2014 4:22:59 PM	16:22:59	0	E	16	68	97.14286	49659.43	67	94.28571	33000	1314.592	54.10214	56.01245	14.43	59.815	448.0364	62.83501	61.64674	1.532	14.48674	2.41	1	3	1	0.15	5723	226.3999	246.4807	76.915	5.330215	231.1314	183.3122	1.29807	16.97093	480.5625
9/12/2014 4:23:09 PM	16:23:09	0	E	16	67	97.14286	49659.43	67	95.71428	33500	1317.334	54.23687	56.01245	14.43	59.815	447.903	62.855	61.64674	1.589001	14.48941	2.409	1	3	1	0.15	5721	226.7998	247.4838	76.68501	5.314276	231.0572	183.0485	1.297913	16.96889	480.5045
9/12/2014 4:23:19 PM	16:23:19	0	E	16	68	95.71428	48929.14	67	95.71428	33500	1314.506	54.32668	56.01245	14.4315	59.965	447.9474	62.155	61.69165	1.551001	14.49435	2.437	1	3	1	0.15	5721	226	246.8301	77.63651	5.379656	231.0819	184.6962	1.307421	17.09319	484.0245
9/12/2014 4:23:29 PM	16:23:29	0	E	16	67	95.71428	48929.14	67	95.71428	33500	1314.892	54.19196	56.00391	14.43075	60.38499	447.5472	62.92999	61.69165	1.650999	14.4902	2.445999	1	3	1	0.15	5721	226.3999	246.3945	77.69575	5.384041	230.8596	184.6808	1.307774	17.0978	484.1551
9/12/2014 4:23:39 PM	16:23:39	0	E	16	67	95.71428	48929.14	67	95.71428	33500	1314.463	54.01233	55.98679	14.43112	60.63	447.1915	62.77499	61.60183	1.591	14.49184	2.437	1	3	1	0.15	5720	226.2002	246.569	77.15112	5.346162	230.6619	183.6151	1.304766	17.05848	483.0415
9/12/2014 4:23:49 PM	16:23:49	0	E	16	67	97.14286	49659.43	66	94.28571	33000	1319.719	54.46141	55.98679	14.43112	60.63	447.2359	63.06	61.64674	1.671	14.48855	2.418999	1	3	1	0.15	5722	226.3999	247.0909	76.91112	5.329531	230.6866	183.615	1.297881	16.96846	480.4924
9/12/2014 4:23:59 PM	16:23:59	0	E	16	67	95.71428	48929.14	67	95.71428	33500	1317.206	54.37159	55.9697	14.43038	60.78999	447.7696	63.27499	61.51202	1.681	14.48831	2.428001	1	3	1	0.15	5723	226	245.8268	77.71037	5.385194	230.9831	184.8685	1.298306	16.97402	480.6499
9/12/2014 4:24:09 PM	16:24:09	3	E	17	68	97.14286	49659.43	66	94.28571	33000	1316.777	54.59613	55.9697	14.43038	60.78999	447.4138	62.205	61.69165	1.655001	14.48603	2.43	1	3	1	0.15	5719	225.6001	246.0905	76.96538	5.333567	230.7855	183.8317	1.30332	17.03958	482.5063
9/12/2014 4:24:19 PM	16:24:19	13	E	17	68	97.14286	49659.43	66	94.28571	33000	1317.034	54.59613	55.98679	14.43075	60.69	447.7696	62.69	61.64674	1.635	14.48872	2.405998	1	3	1	0.15	5720	227.2002	246.787	77.25574	5.35355	230.9831	184.3114	1.296544	16.95098	479.9974
9/12/2014 4:24:29 PM	16:24:29	23	E	17	68	97.14286	49659.43	66	94.28571	33000	1319.374	55.22485	55.97824	14.43075	60.71001	448.0364	62.435	61.51202	1.549999	14.48698	2.396999	1	3	1	0.15	5719	225.7998	245.8725	77.60075	5.377458	231.1314	185.4437	1.296633	16.95214	480.0304
9/12/2014 4:24:39 PM	16:24:39	33	E	17	68	97.14286	49659.43	67	95.71428	33500	1322.011	55.26976	55.97824	14.43075	60.71001	448.4366	63.09	61.64674	1.677	14.48594	2.388	1	3	1	0.15	5721	226.2002	245.5228	77.53075	5.372607	231.3537	185.3676	1.292129	16.89326	478.363
9/12/2014 4:24:49 PM	16:24:49	43	E	17	68	97.14286	49659.43	66	95.71428	33500	1319.46	55.17994	55.94403	14.43	60.78	448.7035	63	61.78146	1.541	14.48753	2.401001	1	3	1	0.15	5720	225.6001	246.569	76.95	5.332641	231.5019	184.3282	1.293376	16.90957	478.8249
9/12/2014 4:24:59 PM	16:24:59	53	E	17	67	95.71428	48929.14	66	94.28571	33000	1318.119	54.91049	55.92697	14.43075	60.8	448.659	62.535	61.73656	1.534	14.48572	2.394001	1	3	1	0.15	5720	225.7998	245.6979	76.88575	5.327911	231.4772	183.975	1.293627	16.91285	478.9177
9/12/2014 4:25:09 PM	16:25:09	63	E	17	68	97.14286	49659.43	66	94.28571	33000	1316.52	54.73086	55.92697	14.43075	60.8	449.1927	62.97	61.73656	1.646999	14.49128	2.388	1	3	1	0.15	5721	226	246.1765	76.57075	5.306082	231.7737	183.2894	1.296556	16.95114	480.0019
9/12/2014 4:25:19 PM	16:25:19	73	E	17	68	97.14286	49659.43	66	94.28571	33000	1315.749	54.59613	55.90131	14.43	60.875	448.659	63.105	61.73656	1.556999	14.4871	2.404999	1	3	1	0.15	5723	225.3999	245.6087	77.09499	5.342688	231.4772	184.0509	1.30117	17.01146	481.7102
9/12/2014 4:25:29 PM	16:25:29	83	E	17	68	97.14286	49659.43	66	95.71428	33500	1316.392	54.32668	55.87564	14.43075	61.005	447.5917	62.69501	61.87128	1.695999	14.48958	2.402	1	3	1	0.15	5720	226.2002	246.3515	77.14574	5.345928	230.8843	183.8891	1.298455	16.97596	480.7048
9/12/2014 4:25:39 PM	16:25:39	93	E	17	68	97.14286	49659.43	67	95.71428	33500	1316.863	54.32668	55.87564	14.43075	61.005	447.9919	62.735	61.73656	1.704	14.48597	2.376999	1	3	1	0.15	5718	226.6001	247.5715	76.93075	5.331029	231.1066	183.5313	1.29175	16.88831	478.2227
9/12/2014 4:25:49 PM	16:25:49	103	E	17	67	97.14286	49659.43	66	94.28571	33000	1321.233	55.09012	55.87564	14.43225	61.045	448.748	62.10001	61.69165	1.506001	14.49058	2.408001	1	3	1	0.15	5718	226.7998	246.0474	77.33725	5.358641	231.5267	184.873	1.297654	16.96549	480.4083
9/12/2014 4:25:59 PM	16:25:59	113	E	17	68	97.14286	49659.43	66	95.71428	33500	1323.914	55.62902	55.85001	14.43	60.815	449.9486	62.82001	61.82637	1.577999	14.48435	2.388	1	3	1	0.15	5716	226	246.1792	76.785	5.321206	232.1937	184.4515	1.289698	16.86148	477.4631
9/12/2014 4:26:09 PM	16:26:09	123	E	17	68	97.14286	49659.43	66	94.28571	33000	1325.384	55.62902	55.85001	14.43	60.815	450.2155	62.47501	61.82637	1.559	14.48934	2.407001	1	3	1	0.15	5717	226.7998	247.5282	76.81499	5.323284	232.3419	184.5017	1.297158	16.959	480.2247
9/12/2014 4:26:19 PM	16:26:19	133	E	17	67	97.14286	49659.43	66	94.28571	33000	1323.654	56.21283	55.85001	14.43113	60.77	451.5941	62.86501	61.87128	1.618	14.48638	2.388	1	3	1	0.15	5714	226.3999	246.3103	77.89113	5.397439	233.1078	186.8021	1.29027	16.86896	477.6749
9/12/2014 4:26:29 PM	16:26:29	143	E	17	67	95.71428	48929.14	67	95.71428	33500	1329.751	56.48228	55.8158	14.43	60.75999	452.6613	62.285	62.00601	1.57	14.48829	2.381001	1	3	1	0.15	5715	225.7998	245.2653	77.40501	5.364172	233.7008	186.2447	1.289923	16.86442	477.5463
9/12/2014 4:26:44 PM	16:26:44	0	E	17	68	97.14286	49659.43	67	95.71428	33500	1320.8	55.53921	55.79871	14.43075	60.71001	451.8164	62.98	62.23055	1.624001	14.48637	2.366001	1	3	1	0.15	5721	227.3999	247.4838	77.11575	5.343849	233.2314	184.9172	1.283617	16.78197	475.2117
9/12/2014 4:26:54 PM	16:26:54	0	E	17	68	97.14286	49659.43	66	94.28571	33000	1314.506	54.91049	55.7645	14.43	60.92999	451.4606	62.82001	62.27546	1.566	14.48414	2.391998	1	3	1	0.15	5720	226.2002	245.4799	76.95	5.332641	233.0337	184.0888	1.293152	16.90664	478.7419
9/12/2014 4:27:04 PM	16:27:04	0	E	17	68	97.14286	49659.43	66	94.28571	33000	1300.107	54.28177	55.7645	14.43	60.92999	450.3933	62.325	62.27546	1.518	14.48515	2.370998	1	3	1	0.15	5725	222	242.2067	76.255	5.284476	232.4408	182.369	1.286752	16.82296	476.3723
9/12/2014 4:27:14 PM	16:27:14	0	E	17	67	95.71428	48929.14	67	95.71428	33500	1306.192	54.19196	55.73883	14.42963	61.015	449.326	62.35001	62.14073	1.618	14.48539	2.365002	1	3	1	0.15	5725	222.3999	242.2067	76.88963	5.328595	231.8478	183.3531	1.281793	16.75813	474.5367
9/12/2014 4:27:24 PM	16:27:24	0	E	17	67	95.71428	48929.14	67	95.71428	33500	1292.393	54.32668	55.72177	14.43038	61.25999	448.659	61.53	62.14073	1.688	14.48802	2.311001	1	3	1	0.15	5736	216.3999	235.682	76.46037	5.298571	231.4772	182.7494	1.268028	16.57817	469.4407
9/12/2014 4:27:34 PM	16:27:34	0	E	17	67	95.71428	48929.14	67	95.71428	33500	1273.579	54.32668	55.72177	14.43038	61.25999	445.8573	60.675	62.14073	1.599001	14.4861	2.287998	1	3	1	0.15	5733	212.2002	231.411	75.15538	5.208138	229.9207	180.5527	1.26436	16.5302	468.0825
9/12/2014 4:27:44 PM	16:27:44	0	E	17	66	94.28571	48198.86	67	95.71428	33500	1284.893	55.04522	55.70465	14.43225	61.675	445.3682	59.455	62.05092	1.4	14.48415	2.221001	1	3	1	0.15	5759	205.6001	226.1009	74.27725	5.146616	229.649	179.6747	1.245851	16.28823	461.2304
9/12/2014 4:27:54 PM	16:27:54	0	E	17	67	95.71428	48929.14	67	95.71428	33500	1274.822	54.86558	55.68756	14.43075	61.61501	442.4331	59.765	62.05092	1.476999	14.48322	2.217999	1	3	1	0.15	5740	207	225.792	74.11575	5.13596	228.0184	179.1351	1.246094	16.2914	461.3203
9/12/2014 4:28:04 PM	16:28:04	0	E	17	66	94.28571	48198.86	67	95.71428	33500	1257.766	54.73086	55.68756	14.43075	61.61501	441.3658	59.38499	62.18564	1.448	14.48232	2.194	1	3	1	0.15	5748	201	220.6346	73.77074	5.112052	227.4255	178.5434	1.235268	16.14986	457.3124
9/12/2014 4:28:14 PM	16:28:14	0	E	17	66	94.28571	48198.86	66	94.28571	33000	1263.08	55.22485	55.67899	14.43037	61.64999	439.3647	59.08	62.05092	1.583	14.48256	2.203999	1	3	1	0.15	5750	199.7998	219.3974	73.61537	5.101418	226.3137	178.713	1.241028	16.22517	459.4448
9/12/2014 4:28:24 PM	16:28:24	0	E	17	66	94.28571	48198.86	67	95.71428	33500	1251.252	55.26976	55.67899	14.43037	61.64999	437.3635	58.845	62.05092	1.450001	14.47884	2.16	1	3	1	0.15	5760	197.7998	216.4889	73.16537	5.070234	225.4984	177.9757	1.228498	16.06135	454.806
9/12/2014 4:28:34 PM	16:28:34	0	E	17	66	94.28571	48198.86	67	95.71428	33500	1248.895	55.40448	55.67899	14.43075	61.97	436.8298	58.375	62.05092	1.414	14.47961	2.175999	1	3	1	0.15	5760	196.2002	214.9536	73.44074	5.089184	224.9055	178.5663	1.230224	16.08392	455.4451
9/12/2014 4:28:44 PM	16:28:44	0	E	17	66	94.28571	48198.86	67	95.71428	33500	1237.538	55.40448	55.63623	14.43	61.99001	435.2289	57.755	62.05092	1.363001	14.48081	2.138	1	3	1	0.15	5766	192.3999	211.0059	72.34	5.013167	224.0161	176.6629	1.222077	15.9774	452.4287
9/12/2014 4:28:54 PM	16:28:54	0	E	17	66	94.28571	48198.86	67	95.71428	33500	1239.124	55.71884	55.59351	14.42963	62.14	434.5618	58.08	62.18564	1.347	14.47964	2.133999	1	3	1	0.15	5765	191	209.4322	72.72963	5.040299	223.6455	177.6196	1.221003	15.96337	452.0315
9/12/2014 4:29:04 PM	16:29:04	0	E	17	66	94.28571	48198.86	67	95.71428	33500	1221.347	55.35957	55.59351	14.42963	62.14	432.4272	57.205	62.18564	1.32	14.47863	2.085999	1	3	1	0.15	5772	186.6001	204.4116	71.55463	4.958869	222.4596	175.2515	1.210961	15.83207	448.3134
9/12/2014 4:29:14 PM	16:29:14	0	E	17	65	92.85714	47468.57	67	95.71428	33500	1211.527	55.44939	55.58496	14.43113	62.255	431.2265	57.045	62.32036	1.332001	14.47525	2.080002	1	3	1	0.15	5766	181	198.4901	71.85612	4.979246	221.7925	175.846	1.20233	15.71923	445.1183
9/12/2014 4:29:24 PM	16:29:24	0	E	17	65	92.85714	47468.57	67	95.71428	33500	1216.033	55.80866	55.55075	14.4315	62.39999	429.2947	56.77	62.41018	1.238001	14.47704	2.056	1	3	1	0.15	5775	177.2002	195.5012	71.3065	4.941032	220.7193	175.189	1.198243	15.66579	443.6052
9/12/2014 4:29:34 PM	16:29:34	0	E	17	64	91.42857	46738.29	68	97.14286	34000	1198.39	55.17994	55.55075	14.4315	62.39999	426.7284	55.53	62.41018	1.329	14.47682	2.013	1	3	1	0.15	5797	171.6001	190.0654	69.7265	4.831549	219.2936	171.8358	1.181294	15.44421	437.3307
9/12/2014 4:29:44 PM	16:29:44	0	E	17	64	91.42857	46738.29	68	95.71428	33500	1181.852	54.68595	55.51657	14.4315	62.59	423.6218	55.075	62.41018	1.236	14.47404	1.988001	1	3	1	0.15	5783	171.3999	188.7253	69.7265	4.831549	217.5677	171.4088	1.178253	15.40445	436.2048
9/12/2014 4:29:54 PM	16:29:54	0	E	17	63	91.42857	46738.29	68	97.14286	34000	1183.595	54.14705	55.48236	14.43075	62.48	421.5957	55.535	62.54491	1.256001	14.47743	1.987	1	3	1	0.15	5784	172.2002	189.1983	69.42151	4.810415	216.4421	170.3971	1.177947	15.40045	436.0914
9/12/2014 4:30:04 PM	16:30:04	0	E	17	64	91.42857	46738.29	67	95.71428	33500	1182.107	53.92251	55.48236	14.43075	62.48	419.7948	54.98	62.5	1.261999	14.47639	2.006001	1	3	1	0.15	5785	170.6001	187.2486	70.54075	4.888225	215.4415	172.2038	1.18353	15.47344	438.1584
9/12/2014 4:30:14 PM	16:30:14	0	E	17	64	91.42857	46738.29	68	95.71428	33500	1187.804	54.37159	55.46524	14.43	62.55	418.7142	55.03999	62.36527	1.290001	14.47503	1.981001	1	3	1	0.15	5783	170.6001	188.0645	69.20499	4.795911	214.8412	170.2152	1.172428	15.32829	434.0481
9/12/2014 4:30:24 PM	16:30:24	0	E	17	64	91.42857	46738.29	67	97.14286	34000	1184.148	54.91049	55.4567	14.43112	62.58501	418.8043	55.77499	62.18564	1.211	14.47493	1.997	1	3	1	0.15	5782	170.7998	188.2523	70.18613	4.863525	214.8913	172.4267	1.181183	15.44276	437.2894
9/12/2014 4:30:34 PM	16:30:34	0	E	17	64	91.42857	46738.29	67	95.71428	33500	1191.035	55.4943	55.4567	14.43112	62.58501	419.1645	55.005	62.14073	1.339001	14.47648	1.973	1	3	1	0.15	5782	171.2002	188.6926	69.85112	4.840311	215.0914	172.3338	1.174214	15.35165	434.7095
9/12/2014 4:30:44 PM	16:30:44	0	E	17	64	90	46008	67	95.71428	33500	1189.25	55.31467	55.42249	14.43113	62.375	418.7592	55.42999	62.41018	1.195	14.47663	1.986	1	3	1	0.15	5782	171	188.6926	69.74112	4.832687	214.8663	171.9816	1.177756	15.39796	436.0208
9/12/2014 4:30:54 PM	16:30:54	0	E	17	64	91.42857	46738.29	67	97.14286	34000	1192.651	55.13503	55.42249	14.43113	62.375	417.9488	54.62	62.27546	1.201	14.47428	1.954	1	3	1	0.15	5786	170.7998	187.942	69.25612	4.799079	214.416	170.9559	1.168342	15.27487	432.5356
9/12/2014 4:31:04 PM	16:31:04	0	E	17	64	91.42857	46738.29	68	97.14286	34000	1189.462	55.35957	55.38831	14.43037	62.255	418.354	54.935	62.27546	1.289	14.47746	1.985001	1	3	1	0.15	5781	171	188.8803	69.53038	4.818335	214.6411	171.6491	1.177656	15.39664	435.9835
9/12/2014 4:31:14 PM	16:31:14	0	E	17	64	90	46008	67	95.71428	33500	1184.148	54.46141	55.37976	14.43113	62.36	417.4986	54.67	62.36527	1.226	14.47504	1.981001	1	3	1	0.15	5784	170.6001	187.8771	69.77612	4.835113	214.1659	171.3066	1.173611	15.34376	434.4862
9/12/2014 4:31:24 PM	16:31:24	5	F	18	64	91.42857	46738.29	67	95.71428	33500	1180.704	54.32668	55.37976	14.43113	62.36	416.6882	54.75	62.36527	1.285999	14.47883	2.002998	1	3	1	0.15	5782	171.7998	189.1328	69.38612	4.808088	213.7157	170.492	1.184967	15.49223	438.6903
9/12/2014 4:31:34 PM	16:31:34	15	F	18	63	90	46008	67	95.71428	33500	1185.253	54.05723	55.3541	14.43038	62.265	415.2024	54.74001	62.36527	1.285	14.47577	1.983999	1	3	1	0.15	5782	171.3999	188.4727	70.21037	4.865457	212.8902	171.7375	1.177198	15.39065	435.8141
9/12/2014 4:31:44 PM	16:31:44	25	F	18	64	91.42857	46738.29	67	95.71428	33500	1182.107	54.05723	55.32843	14.43112	62.45	414.7972	55.14	62.23055	1.309999	14.47651	2.004002	1	3	1	0.15	5782	171	189.1328	69.18112	4.793883	212.6651	169.8914	1.182371	15.45829	437.7293
9/12/2014 4:31:54 PM	16:31:54	35	F	18	64	91.42857	46738.29	67	95.71428	33500	1183.638	53.78778	55.33701	14.43075	62.61501	413.5815	54.91499	62.23055	1.242001	14.47347	2.004002	1	3	1	0.15	5781	171.7998	188.8803	69.53574	4.818582	211.9898	170.2979	1.183142	15.46836	438.0145
9/12/2014 4:32:04 PM	16:32:04	45	F	18	64	91.42857	46738.29	67	95.71428	33500	1184.148	53.78778	55.33701	14.43075	62.61501	413.0413	55.22	62.23055	1.254	14.47542	2.026001	1	3	1	0.15	5781	170.3999	187.7796	69.50076	4.816157	211.6896	170.2353	1.18965	15.55345	440.424
9/12/2014 4:32:14 PM	16:32:14	55	F	18	63	91.42857	46738.29	68	97.14286	34000	1182.363	53.78778	55.31137	14.43112	62.575	412.3659	55.07001	61.9611	1.261	14.47594	2.023998	1	3	1	0.15	5780	170.7998	188.1872	70.18112	4.863178	211.3144	171.4456	1.189407	15.55028	440.3342
9/12/2014 4:32:24 PM	16:32:24	65	F	18	64	91.42857	46738.29	67	95.71428	33500	1186.061	53.60815	55.31137	14.43112	62.575	412.0958	55.11	61.9611	1.218	14.47691	2.014	1	3	1	0.15	5782	170.6001	187.8121	69.38112	4.807742	211.1643	169.8628	1.185934	15.50486	439.0481
9/12/2014 4:32:34 PM	16:32:34	75	F	18	64	91.42857	46738.29	67	95.71428	33500	1185.296	53.65306	55.3028	14.42963	62.64	411.5555	55.215	61.82637	1.282	14.4782	2	1	3	1	0.15	5784	171	188.097	69.77963	4.835858	210.8642	170.627	1.182604	15.46133	437.8155
9/12/2014 4:32:44 PM	16:32:44	85	F	18	64	90	46008	67	95.71428	33500	1184.828	53.65306	55.26859	14.43	62.935	411.3304	54.98	61.87128	1.282	14.47438	2.012001	1	3	1	0.15	5782	171.7998	189.1328	69.70499	4.830561	210.7391	170.4906	1.182706	15.46267	437.8534
9/12/2014 4:32:54 PM	16:32:54	95	F	18	64	91.42857	46738.29	67	95.71428	33500	1188.272	53.92251	55.26859	14.43	62.935	411.3304	55.03	61.73656	1.23	14.47304	1.989	1	3	1	0.15	5783	172.2002	189.1656	69.825	4.838878	210.7391	170.9378	1.179259	15.4176	436.5771
9/12/2014 4:33:04 PM	16:33:04	105	F	18	64	91.42857	46738.29	67	95.71428	33500	1183.936	53.96741	55.26004	14.43	63.11501	411.5105	54.72501	61.78146	1.319	14.47337	2.005001	1	3	1	0.15	5782	171	187.8121	69.49	4.815661	210.8392	170.3777	1.185699	15.5018	438.9614
9/12/2014 4:33:14 PM	16:33:14	115	F	18	63	90	46008	67	97.14286	34000	1185.679	54.01233	55.2515	14.43	63.215	411.6906	55.05499	61.82637	1.354	14.47662	2.007	1	3	1	0.15	5779	171.7998	189.4753	70.14001	4.860707	210.9392	171.5767	1.185472	15.49883	438.8771
9/12/2014 4:33:24 PM	16:33:24	125	F	18	64	91.42857	46738.29	68	97.14286	34000	1192.778	53.96741	55.2515	14.43	63.215	411.5555	54.94501	61.69165	1.268	14.47452	1.993999	1	3	1	0.15	5781	170.7998	188.2198	69.55	4.819819	210.8642	170.4851	1.182015	15.45363	437.5974
9/12/2014 4:33:34 PM	16:33:34	135	F	18	63	90	46008	67	95.71428	33500	1199.07	55.44939	55.23441	14.43037	63.33501	413.0413	55.175	61.69165	1.320999	14.4754	2.011002	1	3	1	0.15	5781	170.7998	188.2198	69.51038	4.816949	211.6896	171.6907	1.185886	15.50424	439.0303
9/12/2014 4:33:44 PM	16:33:44	145	F	18	63	91.42857	46738.29	67	95.71428	33500	1185.891	54.91049	55.23441	14.43037	63.455	412.636	55.50999	61.69165	1.249001	14.47884	1.997999	1	3	1	0.15	5780	171	188.6273	69.29037	4.801703	211.4645	170.8303	1.182197	15.45601	437.6647
9/12/2014 4:33:54 PM	16:33:54	0	F	18	64	91.42857	46738.29	67	95.71428	33500	1186.997	54.55122	55.23441	14.43037	63.455	412.2759	54.42999	61.60183	1.278999	14.47439	1.988001	1	3	1	0.15	5782	170.3999	187.8121	69.65038	4.826651	211.2644	171.1659	1.179186	15.41665	436.5502
9/12/2014 4:34:04 PM	16:34:04	0	F	18	64	91.42857	46738.29	68	97.14286	34000	1189.505	55.04522	55.21729	14.43075	63.58501	412.8612	55.655	61.51202	1.25	14.47936	2.022999	1	3	1	0.15	5780	170.7998	188.4075	69.50076	4.816157	211.5896	171.3212	1.191222	15.574	441.0058
9/12/2014 4:34:14 PM	16:34:14	0	F	18	64	91.42857	46738.29	68	97.14286	34000	1188.91	55.09012	55.20877	14.43113	63.44501	412.546	54.73	61.60183	1.312	14.4772	2.009998	1	3	1	0.15	5782	171.3999	188.4727	69.01613	4.782449	211.4145	170.4848	1.18577	15.50272	438.9875
9/12/2014 4:34:24 PM	16:34:24	0	F	18	64	91.42857	46738.29	67	95.71428	33500	1186.869	55.31467	55.2002	14.43	63.185	413.0863	55.22	61.60183	1.281	14.47619	1.997	1	3	1	0.15	5783	171	188.2849	69.23	4.797644	211.7146	171.0736	1.184545	15.48671	438.5341
9/12/2014 4:34:34 PM	16:34:34	0	F	18	64	90	46008	67	95.71428	33500	1191.673	55.31467	55.2002	14.43	63.185	413.6716	54.55	61.64674	1.226999	14.47369	1.997999	1	3	1	0.15	5786	171.2002	188.3826	69.425	4.811157	212.0398	171.4243	1.182043	15.45401	437.608
9/12/2014 4:34:44 PM	16:34:44	0	F	18	64	91.42857	46738.29	67	95.71428	33500	1188.867	55.58411	55.2002	14.42963	63.05	414.0768	54.78999	61.64674	1.236	14.4757	2.018002	1	3	1	0.15	5779	171	188.5947	69.69463	4.829967	212.2649	172.1441	1.188295	15.53574	439.9223
9/12/2014 4:34:54 PM	16:34:54	0	F	18	63	90	46008	67	97.14286	34000	1188.782	55.71884	55.2002	14.42963	63.05	414.8872	55.27	61.78146	1.278999	14.4769	2.000999	1	3	1	0.15	5782	171	188.2523	69.17963	4.794277	212.7151	171.3347	1.1873	15.52273	439.5539
9/12/2014 4:35:04 PM	16:35:04	0	F	18	63	91.42857	46738.29	68	97.14286	34000	1188.229	54.9554	55.15744	14.43037	63.155	414.1219	54.81	61.82637	1.171	14.47645	2.02	1	3	1	0.15	5780	171.6001	189.0674	69.11037	4.789229	212.2899	170.5451	1.186065	15.50659	439.0969
9/12/2014 4:35:14 PM	16:35:14	2	F	19	64	91.42857	46738.29	67	95.71428	33500	1189.42	55.04522	55.17456	14.42963	63.405	414.1219	54.92	61.69165	1.226999	14.47256	1.995001	1	3	1	0.15	5784	169.6001	186.7758	69.06462	4.786307	212.2899	170.5465	1.181072	15.4413	437.2481
9/12/2014 4:35:24 PM	16:35:24	12	F	19	64	91.42857	46738.29	67	95.71428	33500	1186.104	54.91049	55.17456	14.42963	63.405	414.392	54.59	61.69165	1.187	14.47787	1.987	1	3	1	0.15	5783	172.2002	189.386	69.82962	4.839323	212.44	171.8035	1.180987	15.4402	437.217
9/12/2014 4:35:34 PM	16:35:34	22	F	19	64	91.42857	46738.29	67	95.71428	33500	1187.379	54.32668	55.15744	14.42925	63.58501	413.0863	54.7	61.87128	1.191999	14.47377	1.993	1	3	1	0.15	5783	171.7998	188.7253	69.20425	4.796108	211.7146	170.1815	1.181486	15.44671	437.4014
9/12/2014 4:35:44 PM	16:35:44	32	F	19	63	90	46008	67	97.14286	34000	1187.932	54.46141	55.1489	14.42925	63.75	413.2664	54.42	61.78146	1.336	14.47547	2.004002	1	3	1	0.15	5783	171.7998	189.1656	69.08425	4.787792	211.8147	170.0819	1.18548	15.49894	438.8804
9/12/2014 4:35:54 PM	16:35:54	42	F	19	63	91.42857	46738.29	67	95.71428	33500	1183.638	53.96741	55.1489	14.42925	63.75	412.9062	54.91499	61.82637	1.184	14.47312	1.983999	1	3	1	0.15	5784	172.6001	190.0796	69.60426	4.82383	211.6146	170.5887	1.177692	15.39712	435.9971
9/12/2014 4:36:04 PM	16:36:04	52	F	19	64	91.42857	46738.29	67	95.71428	33500	1183.723	53.51833	55.12323	14.42963	63.98	412.4109	55.48	61.60183	1.205	14.47755	1.993999	1	3	1	0.15	5783	171.2002	188.5054	69.49963	4.816454	211.3394	170.0104	1.181065	15.44122	437.2458
9/12/2014 4:36:14 PM	16:36:14	62	F	19	63	91.42857	46738.29	68	97.14286	34000	1183.808	53.51833	55.12323	14.42925	64.08501	411.9157	55.71001	61.51202	1.33	14.47312	2.014	1	3	1	0.15	5782	171.3999	188.032	69.35925	4.80685	211.0643	169.7623	1.186868	15.51707	439.3939
9/12/2014 4:36:24 PM	16:36:24	72	F	19	63	91.42857	46738.29	68	97.14286	34000	1182.745	53.51833	55.12323	14.42925	64.08501	411.2854	54.645	61.55692	1.290001	14.47692	2.035	1	3	1	0.15	5781	171.3999	188.2198	69.44425	4.812741	210.7141	169.9145	1.191643	15.57951	441.1618
9/12/2014 4:36:34 PM	16:36:34	82	F	19	63	91.42857	46738.29	67	95.71428	33500	1185.976	53.42852	55.12323	14.42887	64.24001	410.7	55.34	61.46711	1.274	14.47712	2.015999	1	3	1	0.15	5783	170.3999	187.6242	70.30388	4.872444	210.3889	171.372	1.186199	15.50834	439.1466
9/12/2014 4:36:44 PM	16:36:44	92	F	19	63	90	46008	67	97.14286	34000	1183.128	53.42852	55.13181	14.42925	64.315	410.2048	55.345	61.4222	1.351999	14.47674	2.022999	1	3	1	0.15	5780	171.2002	188.4075	69.73425	4.832839	210.1138	170.3551	1.184196	15.48214	438.4048
9/12/2014 4:36:54 PM	16:36:54	102	F	19	64	91.42857	46738.29	67	95.71428	33500	1185.041	53.65306	55.12323	14.4285	64.485	409.8446	54.88499	61.33238	1.257999	14.47487	2.018002	1	3	1	0.15	5780	170.2002	186.8664	69.3085	4.803584	209.9137	169.794	1.188329	15.53618	439.935
9/12/2014 4:37:04 PM	16:37:04	112	F	19	63	90	46008	67	97.14286	34000	1185.934	53.83269	55.12323	14.4285	64.485	410.0697	54.925	61.51202	1.167999	14.47284	1.992001	1	3	1	0.15	5783	171	188.5054	69.4335	4.812247	210.0388	170.1731	1.180384	15.43231	436.9937
9/12/2014 4:37:14 PM	16:37:14	122	F	19	64	91.42857	46738.29	67	95.71428	33500	1183.595	53.8776	55.13181	14.43037	64.55	409.9797	55.38	61.46711	1.209	14.47645	2.037998	1	3	1	0.15	5782	170.7998	188.6926	69.91537	4.845015	209.9887	171.0569	1.194081	15.61138	442.0642
9/12/2014 4:37:24 PM	16:37:24	132	F	19	63	91.42857	46738.29	68	97.14286	34000	1184.446	53.47342	55.13181	14.43037	64.55	409.5745	55.41	61.33238	1.313	14.47797	2.019001	1	3	1	0.15	5782	170.6001	188.6926	69.49538	4.815909	209.7636	169.9575	1.185809	15.50324	439.0022
9/12/2014 4:37:34 PM	16:37:34	142	F	19	64	91.42857	46738.29	68	95.71428	33500	1184.913	53.56324	55.13181	14.42925	64.28	409.4394	55.215	61.33238	1.216	14.47536	2.051998	1	3	1	0.15	5780	170.7998	188.8476	70.27926	4.87061	209.6886	171.4417	1.198247	15.66586	443.6069
9/12/2014 4:38:26 PM	16:38:26	0	F	19	63	91.42857	46738.29	67	95.71428	33500	1177.091	53.51833	55.13181	14.42887	63.80499	408.4489	54.25	61.28748	1.228001	14.47051	1.993999	1	3	1	0.15	5792	166.2002	183.2847	68.78387	4.767099	209.1383	168.7315	1.181149	15.44231	437.2769
9/12/2014 4:38:36 PM	16:38:36	0	F	19	63	90	46008	67	95.71428	33500	1170.884	53.69796	55.13181	14.42887	63.80499	407.4134	54.405	61.19766	1.264999	14.47354	1.99	1	3	1	0.15	5787	165.7998	182.4653	68.90388	4.775416	208.563	169.1024	1.180491	15.43371	437.0333
9/12/2014 4:38:46 PM	16:38:46	0	F	19	63	90	46008	68	95.71428	33500	1171.394	53.65306	55.10617	14.42925	63.995	406.6029	54.86	61.19766	1.243999	14.47457	2.000999	1	3	1	0.15	5786	166.3999	183.3149	69.01426	4.782941	208.1127	169.2591	1.18465	15.48809	438.573
9/12/2014 4:38:56 PM	16:38:56	0	F	19	63	90	46008	67	95.71428	33500	1156.684	53.74287	55.11469	14.42887	64.005	405.9276	54.175	61.06293	1.164	14.47203	1.959	1	3	1	0.15	5796	161.7998	178.3348	68.41388	4.741456	207.7375	168.2563	1.167823	15.26809	432.3434
9/12/2014 4:39:06 PM	16:39:06	0	F	19	63	90	46008	67	95.71428	33500	1157.322	53.60815	55.11469	14.42887	64.005	404.892	54.13499	61.10784	1.198	14.4708	1.964001	1	3	1	0.15	5792	160.6001	177.3292	68.59387	4.753931	207.1622	168.4659	1.16802	15.27067	432.4164
9/12/2014 4:39:16 PM	16:39:16	0	F	19	63	90	46008	68	95.71428	33500	1159.235	53.92251	55.12323	14.42925	63.845	404.4868	53.82001	61.10784	1.165001	14.47157	1.947001	1	3	1	0.15	5793	160.7998	177.3598	68.16425	4.724033	206.9371	167.9549	1.167464	15.26339	432.2104
9/12/2014 4:39:26 PM	16:39:26	0	F	19	63	90	46008	68	95.71428	33500	1149.202	53.78778	55.10617	14.42887	63.94501	403.1361	52.435	60.97312	1.157	14.46877	1.879999	1	3	1	0.15	5798	155.6001	171.7728	67.62389	4.686706	206.1868	166.8587	1.147335	15.00023	424.7584
9/12/2014 4:39:36 PM	16:39:36	0	F	19	62	88.57143	45277.71	68	97.14286	34000	1136.405	54.28177	55.10617	14.42887	63.94501	402.1906	51.14	60.97312	1.002001	14.46682	1.794001	1	3	1	0.15	5851	151.6001	168.8868	65.68887	4.552598	205.6615	163.7091	1.120829	14.65369	414.9455
9/12/2014 4:39:46 PM	16:39:46	0	F	19	62	88.57143	45277.71	67	97.14286	34000	1135.555	53.8776	55.10617	14.42887	64.02	400.4348	52.16	60.83839	1.046	14.47119	1.858999	1	3	1	0.15	5807	151.3999	167.3954	66.45888	4.605964	204.686	164.7952	1.142416	14.93591	422.9372
9/12/2014 4:39:56 PM	16:39:56	0	F	19	63	90	46008	68	95.71428	33500	1132.937	54.05723	55.11469	14.42887	63.855	400.0295	52.25	60.83839	1.17	14.46845	1.867001	1	3	1	0.15	5805	150.2002	166.0118	67.12888	4.652399	204.4608	166.1831	1.141078	14.91843	422.4421
9/12/2014 4:40:06 PM	16:40:06	0	F	19	62	88.57143	45277.71	67	95.71428	33500	1116.713	53.96741	55.11469	14.42887	63.855	397.7333	51.42999	60.97312	1.077	14.46968	1.84	1	3	1	0.15	5809	147.7998	163.0289	66.39388	4.601459	203.1852	164.7515	1.135168	14.84116	420.2542
9/12/2014 4:40:16 PM	16:40:16	0	F	19	61	87.14285	44547.43	67	97.14286	34000	1096.432	53.8776	55.11469	14.42925	63.77499	396.3826	50.66499	60.83839	1.045	14.469	1.798	1	3	1	0.15	5798	140	154.3302	65.27926	4.524092	202.4348	162.5969	1.122318	14.67316	415.497
9/12/2014 4:40:26 PM	16:40:26	0	F	19	61	87.14285	44547.43	67	97.14286	34000	1110.629	54.05723	55.12323	14.42925	63.89	393.8163	50.685	60.83839	1.146	14.46557	1.784	1	3	1	0.15	5816	140.6001	155.4739	65.25925	4.522706	201.0091	162.7118	1.117812	14.61425	413.8287
9/12/2014 4:40:36 PM	16:40:36	0	F	19	62	87.14285	44547.43	67	95.71428	33500	1110.713	54.10214	55.12323	14.42925	63.89	392.9158	50.535	60.8833	1.033001	14.46546	1.792999	1	3	1	0.15	5815	143	157.8831	64.79426	4.49048	200.5088	161.8763	1.120578	14.65041	414.8527
9/12/2014 4:40:46 PM	16:40:46	0	F	19	63	90	46008	68	97.14286	34000	1123.304	54.19196	55.11469	14.42887	63.89999	393.4561	52.44501	60.8833	1.096001	14.46791	1.875	1	3	1	0.15	5819	146.6001	163.0884	66.76888	4.627449	200.809	165.6357	1.145869	14.98106	424.2158
9/12/2014 4:40:56 PM	16:40:56	4	F	20	61	87.14285	44547.43	67	97.14286	34000	1106.192	53.74287	55.11469	14.42887	63.83	392.2405	49.925	60.8833	0.9939995	14.46512	1.761999	1	3	1	0.15	5824	140.3999	155.4663	64.56387	4.47463	200.1336	161.141	1.110884	14.52367	411.2637
9/12/2014 4:41:14 PM	16:41:14	0	F	20	62	88.57143	45277.71	68	97.14286	34000	1107.84	53.74287	55.12323	14.4285	64.02	390.7547	51.32001	60.74857	1.096001	14.46919	1.813999	1	3	1	0.15	5813	141.6001	157.1646	65.2135	4.51977	199.3082	162.3658	1.128927	14.75956	417.9434
9/12/2014 4:41:24 PM	16:41:24	0	F	20	63	90	46008	69	97.14286	34000	1137.383	53.83269	55.10617	14.42887	64.21001	391.7002	51.745	60.8833	1.132	14.46823	1.891001	1	3	1	0.15	5849	142.3999	158.138	67.30888	4.664874	199.8335	166.3211	1.150757	15.04496	426.0252
9/12/2014 4:41:34 PM	16:41:34	0	F	20	61	87.14285	44547.43	67	95.71428	33500	1104.249	53.69796	55.10617	14.42887	64.21001	390.6647	50.52499	60.79348	1.039	14.46642	1.785999	1	3	1	0.15	5819	141.7998	157.1051	64.84888	4.494382	199.2582	161.6399	1.118529	14.62362	414.0942
9/12/2014 4:41:44 PM	16:41:44	4	G	20	62	88.57143	45277.71	68	97.14286	34000	1103.742	53.69796	55.12323	14.42925	64.34	389.8542	50.80499	60.65876	1.033001	14.46568	1.809999	1	3	1	0.15	5819	141.7998	157.77	64.90426	4.498103	198.8079	161.7409	1.123303	14.68604	415.8616
9/12/2014 4:41:54 PM	16:41:54	14	G	20	62	87.14285	44547.43	67	95.71428	33500	1110.586	53.38361	55.12323	14.42925	64.34	390.0344	51.08	60.70367	1.107	14.46705	1.818001	1	3	1	0.15	5812	144.3999	160.0149	65.52425	4.541071	198.908	162.6355	1.132287	14.80349	419.1874
9/12/2014 4:42:04 PM	16:42:04	24	G	20	62	88.57143	45277.71	68	97.14286	34000	1130.529	53.51833	55.11469	14.42887	64.35001	391.4301	51.41499	60.74857	1.118999	14.46523	1.85	1	3	1	0.15	5872	141.2002	157.6418	65.96887	4.572004	199.6834	163.5811	1.134004	14.82594	419.8231
9/12/2014 4:42:14 PM	16:42:14	34	G	20	62	87.14285	44547.43	67	95.71428	33500	1102.897	53.56324	55.13181	14.43037	64.07001	389.5391	50.52499	60.61385	1.003	14.46789	1.796	1	3	1	0.15	5812	141.3999	156.2525	65.57538	4.544261	198.6328	162.874	1.118146	14.61861	413.9524
9/12/2014 4:42:24 PM	16:42:24	44	G	20	61	88.57143	45277.71	68	97.14286	34000	1113.755	53.8776	55.13181	14.43037	64.07001	389.314	50.28	60.65876	1.084999	14.46698	1.806	1	3	1	0.15	5818	141.7998	156.8568	65.12038	4.51273	198.5078	162.2896	1.122422	14.67451	415.5352
9/12/2014 4:42:34 PM	16:42:34	54	G	20	62	88.57143	45277.71	68	97.14286	34000	1115.487	53.78778	55.13181	14.43075	63.825	389.1339	51.255	60.74857	1.108	14.47025	1.825001	1	3	1	0.15	5817	142.6001	157.9374	65.47074	4.536891	198.4077	162.8661	1.130826	14.78439	418.6465
9/12/2014 4:42:44 PM	16:42:44	64	G	20	61	87.14285	44547.43	68	97.14286	34000	1113.037	53.78778	55.10617	14.42963	63.505	390.4395	49.25	60.70367	0.9629993	14.46447	1.733	1	3	1	0.15	5844	141.3999	157.3351	63.63963	4.410345	199.1331	159.419	1.101895	14.40614	407.9358
9/12/2014 4:42:54 PM	16:42:54	74	G	20	62	87.14285	44547.43	68	97.14286	34000	1109.192	53.65306	55.10617	14.42963	63.505	388.1434	50.78	60.56894	1.075001	14.46775	1.82	1	3	1	0.15	5815	140.6001	155.8899	64.79962	4.490735	197.8574	161.5029	1.129364	14.76528	418.1053
9/12/2014 4:43:04 PM	16:43:04	84	G	20	62	88.57143	45277.71	68	95.71428	33500	1111.643	53.65306	55.11469	14.42925	63.42999	388.0083	50.72501	60.56894	1.077	14.47074	1.825001	1	3	1	0.15	5819	141.7998	157.3269	65.01925	4.506073	197.7824	161.9189	1.131029	14.78705	418.7219
9/12/2014 4:43:14 PM	16:43:14	94	G	20	62	88.57143	45277.71	68	97.14286	34000	1117.051	53.8776	55.08905	14.43038	63.41	388.8637	52.17999	60.47912	1.149	14.47078	1.891001	1	3	1	0.15	5801	150.3999	165.6763	66.27037	4.592422	198.2576	164.4335	1.1531	15.0756	426.8926
9/12/2014 4:43:24 PM	16:43:24	104	G	20	60	85.71429	43817.14	67	95.71428	33500	1087.94	53.83269	55.08905	14.43038	63.41	389.1339	49.565	60.61385	1.009001	14.46767	1.735001	1	3	1	0.15	5808	139.2002	153.7119	63.67038	4.412247	198.4077	159.5092	1.105906	14.45859	409.4211
9/12/2014 4:43:34 PM	16:43:34	114	G	20	61	88.57143	45277.71	68	97.14286	34000	1107.629	53.96741	55.0976	14.42887	63.3	387.7382	50.60001	60.56894	1.021999	14.467	1.806	1	3	1	0.15	5819	141.6001	156.8838	64.52388	4.471858	197.6323	161.2554	1.125015	14.70841	416.4951
9/12/2014 4:43:44 PM	16:43:44	124	G	20	62	88.57143	45277.71	68	95.71428	33500	1111.896	53.96741	55.08905	14.43	63.21001	387.3329	50.39999	60.43422	1.040001	14.46639	1.809999	1	3	1	0.15	5821	142.6001	157.8241	65.02	4.50589	197.4072	162.1804	1.126365	14.72607	416.9952
9/12/2014 4:43:54 PM	16:43:54	134	G	20	62	90	46008	68	97.14286	34000	1126.557	53.83269	55.08905	14.43	63.21001	388.2784	52.47501	60.56894	1.143	14.47225	1.940001	1	3	1	0.15	5798	153	169.1234	66.915	4.637214	197.9325	165.5884	1.165096	15.23244	431.334
9/12/2014 4:44:04 PM	16:44:04	144	G	20	62	88.57143	45277.71	68	97.14286	34000	1116.206	53.56324	55.08051	14.42887	63.31	388.9088	50.86501	60.52403	1.115	14.46783	1.848	1	3	1	0.15	5810	140	154.6496	65.54887	4.542896	198.2827	162.8373	1.132509	14.8064	419.2698
9/12/2014 4:44:14 PM	16:44:14	0	G	20	62	88.57143	45277.71	68	95.71428	33500	1110.291	54.01233	55.08905	14.43037	63.265	387.1529	50.77	60.52403	1.129	14.46622	1.83	1	3	1	0.15	5820	140	155.1376	65.33037	4.527282	197.3072	162.7974	1.132439	14.80547	419.2436
9/12/2014 4:44:24 PM	16:44:24	0	G	20	62	87.14285	44547.43	67	95.71428	33500	1111.643	53.69796	55.08905	14.43037	63.265	387.0628	50.61	60.47912	1.032	14.4698	1.834999	1	3	1	0.15	5820	142.3999	158.0189	64.47537	4.468032	197.2571	161.0371	1.128615	14.75548	417.8279
9/12/2014 4:44:34 PM	16:44:34	0	G	20	62	88.57143	45277.71	68	97.14286	34000	1133.444	53.51833	55.07196	14.42925	63.13499	388.5486	50.815	60.43422	1.044001	14.46709	1.82	1	3	1	0.15	5884	141.6001	158.86	64.45425	4.466916	198.0826	160.7409	1.128247	14.75068	417.692
9/12/2014 4:44:44 PM	16:44:44	0	G	20	62	87.14285	44547.43	68	97.14286	34000	1107.882	53.56324	55.08905	14.42963	63.14999	386.6576	50.37	60.43422	1.108999	14.46653	1.837	1	3	1	0.15	5817	143.6001	159.2662	64.90962	4.498358	197.032	161.6337	1.130077	14.7746	418.3694
9/12/2014 4:44:54 PM	16:44:54	0	G	20	61	88.57143	45277.71	68	97.14286	34000	1117.727	53.60815	55.08905	14.42963	63.14999	387.1529	51.25	60.38931	1.033001	14.46938	1.839001	1	3	1	0.15	5819	143.7998	159.0997	65.59962	4.546176	197.3072	162.9637	1.135789	14.84927	420.4838
9/12/2014 4:45:04 PM	16:45:04	0	G	20	62	88.57143	45277.71	68	97.14286	34000	1116.037	53.83269	55.07196	14.42963	63.11	387.6031	51.215	60.29949	1.084	14.46873	1.829	1	3	1	0.15	5813	145.2002	161.1492	65.45963	4.536474	197.5573	162.893	1.132486	14.80609	419.2611
9/12/2014 4:45:14 PM	16:45:14	0	G	20	62	88.57143	45277.71	69	98.57143	34500	1123.388	54.77576	55.0463	14.42925	63.19501	390.7097	49.92	60.29949	1.046	14.46564	1.768999	1	3	1	0.15	5884	141.7998	158.412	64.53925	4.472807	199.2832	161.965	1.113715	14.56068	412.3119
9/12/2014 4:45:24 PM	16:45:24	0	G	20	62	88.57143	45277.71	68	97.14286	34000	1127.571	54.59613	55.0463	14.42925	63.19501	390.5746	51.255	60.29949	1.069	14.46593	1.833	1	3	1	0.15	5818	145.2002	160.6231	65.61926	4.547655	199.2081	163.843	1.13359	14.82053	419.67
9/12/2014 4:45:34 PM	16:45:34	0	G	20	62	88.57143	45277.71	67	97.14286	34000	1126.599	54.64104	55.05484	14.42963	63.2	390.7997	51.355	60.38931	1.068001	14.46768	1.844	1	3	1	0.15	5811	146.2002	161.9787	65.48962	4.538553	199.3332	163.6356	1.136334	14.8564	420.6857
9/12/2014 4:45:44 PM	16:45:44	9	G	21	62	88.57143	45277.71	68	97.14286	34000	1123.219	54.59613	55.0463	14.42887	63.285	390.8448	52.78	60.47912	1.153	14.47152	1.919001	1	3	1	0.15	5793	153	168.5359	66.80888	4.630221	199.3582	166.0547	1.159163	15.15486	429.1372
9/12/2014 4:45:54 PM	16:45:54	19	G	21	62	88.57143	45277.71	67	97.14286	34000	1128.543	54.01233	55.0463	14.42887	63.285	390.3045	52.095	60.43422	1.125	14.46975	1.92	1	3	1	0.15	5817	146.7998	162.3676	66.58888	4.614974	199.058	165.1503	1.160063	15.16664	429.4706
9/12/2014 4:46:04 PM	16:46:04	29	G	21	62	88.57143	45277.71	68	95.71428	33500	1122.036	53.83269	55.06339	14.42887	63.49001	390.3045	51.56	60.43422	1.091	14.46581	1.858999	1	3	1	0.15	5813	146	161.3702	65.91888	4.56854	199.058	163.7556	1.141425	14.92297	422.5706
9/12/2014 4:46:14 PM	16:46:14	39	G	21	62	88.57143	45277.71	68	97.14286	34000	1120.769	53.69796	55.05484	14.42887	63.595	390.1694	51.315	60.29949	1.061001	14.46921	1.860001	1	3	1	0.15	5811	147.3999	163.7491	65.25388	4.522451	198.983	162.4001	1.142011	14.93062	422.7874
9/12/2014 4:46:24 PM	16:46:24	49	G	21	62	88.57143	45277.71	67	95.71428	33500	1120.853	53.65306	55.05484	14.42887	63.595	390.3045	51.66	60.43422	1.146	14.47069	1.874001	1	3	1	0.15	5803	151	167.0595	66.17387	4.586212	199.058	164.0761	1.146188	14.98523	424.3336
9/12/2014 4:46:34 PM	16:46:34	59	G	21	62	88.57143	45277.71	67	97.14286	34000	1129.599	53.56324	55.02921	14.4285	63.55	390.1244	52.02	60.38931	1.148001	14.46832	1.879	1	3	1	0.15	5824	146.3999	161.6756	66.12849	4.583186	198.958	163.9187	1.147646	15.0043	424.8737
9/12/2014 4:46:44 PM	16:46:44	69	G	21	62	88.57143	45277.71	67	97.14286	34000	1119.586	53.47342	55.06339	14.42925	63.62	390.7997	50.72	60.38931	1.072001	14.46597	1.827999	1	3	1	0.15	5812	145.3999	161.1215	65.87426	4.565328	199.3332	163.3638	1.13195	14.79909	419.0628
9/12/2014 4:46:54 PM	16:46:54	79	G	21	62	88.57143	45277.71	67	97.14286	34000	1121.403	53.74287	55.06339	14.42925	63.62	391.205	50.785	60.25458	1.055	14.46796	1.833	1	3	1	0.15	5812	147.3999	162.6706	65.35426	4.52929	199.5583	162.6229	1.131879	14.79815	419.0363
9/12/2014 4:47:04 PM	16:47:04	89	G	21	62	88.57143	45277.71	69	95.71428	33500	1140.444	54.01233	55.06339	14.4285	63.83501	392.4206	51.935	60.25458	1.086	14.4697	1.860001	1	3	1	0.15	5842	143.3999	159.7285	66.00349	4.574522	200.2337	164.0689	1.142074	14.93145	422.8109
9/12/2014 4:47:14 PM	16:47:14	99	G	21	62	87.14285	44547.43	67	95.71428	33500	1114.473	53.8776	55.06339	14.4285	63.935	391.8803	50.89	60.25458	1.004999	14.4667	1.795	1	3	1	0.15	5816	141	156.3601	65.35849	4.529819	199.9335	162.7516	1.121923	14.66799	415.3506
9/12/2014 4:47:24 PM	16:47:24	109	G	21	61	87.14285	44547.43	67	97.14286	34000	1114.178	53.83269	55.06339	14.4285	63.935	390.4395	50.63499	60.29949	1.033001	14.46446	1.782	1	3	1	0.15	5819	142.3999	157.3269	65.0835	4.51076	199.1331	162.1981	1.117748	14.6134	413.8048
9/12/2014 4:47:34 PM	16:47:34	119	G	21	61	88.57143	45277.71	68	97.14286	34000	1115.952	54.14705	55.06339	14.42963	64.05	390.5296	51	60.25458	0.9829998	14.46678	1.816	1	3	1	0.15	5811	142.7998	158.4385	65.57463	4.544444	199.1831	163.3749	1.128434	14.75312	417.7611
9/12/2014 4:47:44 PM	16:47:44	129	G	21	63	90	46008	68	97.14286	34000	1141.252	54.64104	55.03775	14.43	63.95	391.6552	51.69501	60.29949	1.086	14.47228	1.891001	1	3	1	0.15	5837	142.3999	158.4804	66.65	4.61885	199.8084	165.7901	1.151549	15.05533	426.3187
9/12/2014 4:47:54 PM	16:47:54	139	G	21	62	88.57143	45277.71	68	97.14286	34000	1117.135	54.59613	55.03775	14.43	63.95	390.6647	50.8	60.25458	1.042	14.46806	1.806999	1	3	1	0.15	5818	141.2002	155.9703	64.78001	4.489259	199.2582	162.2613	1.128178	14.74976	417.6661
9/12/2014 4:48:04 PM	16:48:04	149	G	21	62	88.57143	45277.71	68	97.14286	34000	1112.572	54.37159	55.07196	14.42887	63.92	390.6647	50.355	60.52403	1.033001	14.46588	1.802999	1	3	1	0.15	5818	143.6001	158.4076	65.53888	4.542203	199.2582	163.5053	1.123767	14.6921	416.0332
9/12/2014 4:52:46 PM	16:52:46	0	G	21	58	82.85715	42356.57	58	82.85715	29000	1031.492	53.56324	55.21729	14.42812	64.065	365.8118	44.34	60.07495	0.7630005	14.45328	1.517	1	3	1	0.15	4988	127.3999	121.1835	58.56812	4.059303	185.451	149.284	1.031484	13.4856	381.8691
9/12/2014 4:52:56 PM	16:52:56	0	G	21	58	82.85715	42356.57	58	82.85715	29000	1029.253	53.65306	55.24295	14.4285	64.25	364.5061	43.86	59.98513	0.6749992	14.4573	1.511999	1	3	1	0.15	4934	133.3999	125.3201	58.85849	4.079322	184.7256	149.9415	1.030027	13.46655	381.3295
9/12/2014 4:53:06 PM	16:53:06	0	G	21	58	81.42857	41626.28	57	81.42857	28500	1010.705	53.60815	55.24295	14.4285	64.25	362.435	42.66	59.98513	0.6630001	14.45376	1.421	1	3	1	0.15	4887	124.2002	115.0078	56.5685	3.920609	183.575	145.2202	0.9985435	13.05493	369.6739
9/12/2014 4:53:16 PM	16:53:16	0	G	21	57	81.42857	41626.28	55	80	28000	1013.113	53.74287	55.26004	14.4285	64.515	359.0583	42.235	59.98513	0.7169991	14.45257	1.427	1	3	1	0.15	4799	122	111.4748	56.4585	3.912985	181.6991	145.1015	0.9981624	13.04995	369.5328
9/12/2014 4:53:26 PM	16:53:26	0	G	21	57	81.42857	41626.28	56	80	28000	1013.874	53.8776	55.2515	14.42813	64.58501	356.672	42.32001	60.03004	0.6499996	14.45259	1.436001	1	3	1	0.15	4783	122.2002	111.2855	56.92812	3.945636	180.3734	146.1878	1.000909	13.08586	370.5498
9/12/2014 4:53:36 PM	16:53:36	0	G	21	58	82.85715	42356.57	57	81.42857	28500	1032.76	53.8776	55.2515	14.42813	64.58501	356.4019	44.495	59.89532	0.8069992	14.45433	1.554001	1	3	1	0.15	4867	125.2002	116.205	58.96812	4.087026	180.2233	150.3507	1.045822	13.67305	387.1769
9/12/2014 4:53:46 PM	16:53:46	0	G	21	59	84.28571	43086.86	59	84.28571	29500	1043.661	53.65306	55.27716	14.4285	64.39	359.7787	45.245	60.03004	0.8439999	14.45839	1.58	1	3	1	0.15	5081	126.3999	122.4756	59.60849	4.131302	182.0993	151.5587	1.050506	13.73429	388.9113
9/12/2014 4:53:56 PM	16:53:56	0	G	21	59	84.28571	43086.86	60	85.71429	30000	1048.139	53.74287	55.29425	14.42887	64.2	361.2644	45.38	59.89532	0.7789993	14.45732	1.596001	1	3	1	0.15	5148	129.3999	126.6391	59.65388	4.13434	182.9247	151.6092	1.057881	13.83071	391.6414
9/12/2014 4:54:06 PM	16:54:06	0	G	21	59	84.28571	43086.86	60	85.71429	30000	1047.252	53.83269	55.29425	14.42887	64.2	362.2099	45.46001	59.89532	0.8239994	14.45717	1.584999	1	3	1	0.15	5143	129.7998	127.1033	59.65887	4.134686	183.45	151.6935	1.05589	13.80468	390.9043
9/12/2014 4:54:16 PM	16:54:16	0	G	21	59	84.28571	43086.86	59	84.28571	29500	1044.083	53.74287	55.3028	14.42887	64.05499	362.4801	45.00999	59.89532	0.7929993	14.45905	1.582001	1	3	1	0.15	5118	131.3999	127.655	59.68887	4.136765	183.6001	151.6791	1.053644	13.77531	390.0728
9/12/2014 4:54:26 PM	16:54:26	0	G	21	58	82.85715	42356.57	59	84.28571	29500	1036.732	53.74287	55.3028	14.4285	63.995	362.2099	44.145	59.76059	0.7220001	14.45593	1.511	1	3	1	0.15	5046	125.7998	121.0554	58.6785	4.066847	183.45	149.6521	1.028147	13.44197	380.6336
9/12/2014 4:54:36 PM	16:54:36	0	G	21	58	82.85715	42356.57	58	82.85715	29000	1034.661	54.64104	55.3028	14.4285	63.995	361.2644	43.66499	59.62587	0.7600002	14.45795	1.495001	1	3	1	0.15	4974	125.6001	119.1385	57.7635	4.003431	182.9247	148.5282	1.024605	13.39566	379.3221
9/12/2014 4:54:46 PM	16:54:46	0	G	21	58	82.85715	42356.57	57	81.42857	28500	1030.816	54.59613	55.3028	14.42887	63.81	360.1839	43.63499	59.76059	0.7110004	14.45439	1.476999	1	3	1	0.15	4949	125	117.5974	57.95887	4.016867	182.3244	148.8879	1.018202	13.31195	376.9517
9/12/2014 4:54:56 PM	16:54:56	0	G	21	58	82.85715	42356.57	57	81.42857	28500	1024.901	54.4165	55.31989	14.42887	63.655	358.6981	43.67999	59.89532	0.6900005	14.45421	1.468	1	3	1	0.15	4890	126	117.3129	57.95387	4.016521	181.499	148.7303	1.017378	13.30118	376.6468
9/12/2014 4:55:06 PM	16:55:06	0	G	21	58	82.85715	42356.57	56	80	28000	1021.732	53.92251	55.31989	14.42887	63.655	357.6176	43.32001	59.89532	0.7010002	14.45522	1.486	1	3	1	0.15	4838	124.3999	114.7758	57.94888	4.016174	180.8987	148.3147	1.021174	13.35081	378.0521
9/12/2014 4:55:16 PM	16:55:16	0	G	21	58	82.85715	42356.57	56	80	28000	1025.831	53.83269	55.31989	14.42887	63.715	356.7621	43.41499	59.98513	0.7989998	14.45439	1.486	1	3	1	0.15	4881	125.3999	116.7253	57.88388	4.01167	180.4234	148.1083	1.021064	13.34936	378.0112
9/12/2014 4:55:26 PM	16:55:26	9	G	22	58	82.85715	42356.57	56	80	28000	1026.211	53.78778	55.33701	14.42925	63.34	356.4019	43.60001	59.89532	0.7670002	14.45665	1.5	1	3	1	0.15	4870	125.6001	116.6474	57.86425	4.010205	180.2233	148.0283	1.02635	13.41847	379.9682
9/12/2014 4:55:36 PM	16:55:36	19	G	22	58	82.85715	42356.57	56	81.42857	28500	1025.662	53.8776	55.33701	14.42925	63.34	355.8166	43.7	59.85041	0.7229996	14.45701	1.504	1	3	1	0.15	4868	127	117.5264	58.01426	4.020601	179.8981	148.4081	1.027429	13.43257	380.3675
9/12/2014 4:55:46 PM	16:55:46	29	G	22	58	82.85715	42356.57	57	80	28000	1024.986	53.83269	55.3541	14.42925	63.41	355.5915	43.34	59.76059	0.7600002	14.45495	1.487	1	3	1	0.15	4857	125.7998	116.891	58.19425	4.033075	179.773	148.7378	1.019241	13.32553	377.3364
9/12/2014 4:55:56 PM	16:55:56	39	G	22	58	82.85715	42356.57	56	80	28000	1028.239	53.8776	55.36264	14.4285	63.49001	355.6815	43.64999	59.71568	0.7609997	14.45289	1.486	1	3	1	0.15	4865	126	116.8985	57.67349	3.997193	179.8231	147.718	1.021266	13.352	378.0858
9/12/2014 4:56:06 PM	16:56:06	49	G	22	57	81.42857	41626.28	56	80	28000	1029.084	54.23687	55.36264	14.4285	63.49001	355.6815	43.22501	59.71568	0.6989994	14.45557	1.487	1	3	1	0.15	4849	124.6001	115.2212	57.6535	3.995807	179.8231	147.9715	1.021373	13.35341	378.1257
9/12/2014 4:56:16 PM	16:56:16	59	G	22	58	82.85715	42356.57	56	80	28000	1029.042	54.28177	55.37119	14.42963	63.36	355.6365	43.2	59.8055	0.6739998	14.45496	1.485001	1	3	1	0.15	4850	126	116.1684	57.38463	3.976862	179.7981	147.4471	1.019881	13.33389	377.5732
9/12/2014 4:56:26 PM	16:56:26	69	G	22	58	82.85715	42356.57	56	80	28000	1028.07	54.64104	55.37119	14.42963	63.36	355.9967	43.22501	59.76059	0.6720009	14.45341	1.478001	1	3	1	0.15	4832	125.6001	115.7372	57.48462	3.983791	179.9982	147.9467	1.018505	13.3159	377.0638
9/12/2014 4:56:36 PM	16:56:36	79	G	22	58	82.85715	42356.57	56	80	28000	1030.69	55.00031	55.39685	14.42887	63.235	356.2218	43.42999	59.98513	0.7159996	14.45428	1.495001	1	3	1	0.15	4811	123.3999	113.2193	57.85887	4.009936	180.1232	149.015	1.023098	13.37596	378.7644
9/12/2014 4:56:46 PM	16:56:46	89	G	22	58	81.42857	41626.28	56	80	28000	1029.676	55.13503	55.37119	14.42925	62.705	356.3119	43.72	59.94022	0.6499996	14.45552	1.475	1	3	1	0.15	4841	126.2002	116.3218	57.71925	4.000155	180.1733	148.8363	1.017375	13.30113	376.6454
9/12/2014 4:56:56 PM	16:56:56	99	G	22	58	81.42857	41626.28	57	81.42857	28500	1026.972	54.50632	55.36264	14.43113	62.38	355.8166	43.30499	60.03004	0.7530003	14.45758	1.500999	1	3	1	0.15	4849	126.3999	116.5141	57.93113	4.014318	179.8981	148.7391	1.026231	13.41692	379.9241
9/12/2014 4:57:06 PM	16:57:06	109	G	22	58	82.85715	42356.57	56	81.42857	28500	1027.563	54.55122	55.36264	14.43113	62.38	355.2313	43.66499	59.94022	0.6490002	14.45783	1.481001	1	3	1	0.15	4853	125.7998	116.4252	57.49112	3.983828	179.573	147.8743	1.020188	13.33791	377.687
9/12/2014 4:57:16 PM	16:57:16	119	G	22	58	82.85715	42356.57	57	81.42857	28500	1027.436	54.05723	55.37119	14.43	62.28999	355.0512	43.82001	60.03004	0.6609993	14.45602	1.516001	1	3	1	0.15	4864	126.3999	117.2449	57.87	4.010395	179.4729	148.255	1.031947	13.49164	382.0401
9/12/2014 4:57:26 PM	16:57:26	129	G	22	58	81.42857	41626.28	57	81.42857	28500	1025.239	53.96741	55.37119	14.43	62.28999	354.0607	43.265	60.11986	0.7310009	14.45515	1.499001	1	3	1	0.15	4888	122.6001	114.1007	57.84499	4.008662	178.9226	148.1302	1.025378	13.40577	379.6084
9/12/2014 4:57:36 PM	16:57:36	139	G	22	58	82.85715	42356.57	56	80	28000	1026.845	54.23687	55.3541	14.43188	62.125	353.4754	43.49001	60.07495	0.7390003	14.45822	1.507999	1	3	1	0.15	4864	124.6001	115.5776	58.17188	4.030792	178.5975	149.0028	1.028601	13.44791	380.8016
9/12/2014 4:57:46 PM	16:57:46	149	G	22	58	82.85715	42356.57	57	81.42857	28500	1026.76	54.14705	55.36264	14.42925	61.97501	353.7005	42.97501	60.16476	0.7159996	14.45672	1.518	1	3	1	0.15	4878	127	117.7678	58.05425	4.023373	178.7225	148.7109	1.031839	13.49023	382.0002
9/12/2014 4:57:56 PM	16:57:56	0	G	22	58	82.85715	42356.57	57	81.42857	28500	1026.718	53.8776	55.3541	14.42963	61.91	353.4754	43.155	60.20967	0.7099991	14.45482	1.51	1	3	1	0.15	4890	126.3999	117.3129	58.34962	4.043738	178.5975	149.0874	1.027321	13.43117	380.3277
9/12/2014 4:58:06 PM	16:58:06	0	G	22	58	82.85715	42356.57	57	80	28000	1026.464	53.83269	55.3541	14.42963	61.91	353.0251	43.505	60.03004	0.7310009	14.45456	1.509001	1	3	1	0.15	4859	131.2002	121.3801	57.69463	3.998345	178.3473	147.7153	1.028862	13.45132	380.8983
9/12/2014 4:58:16 PM	16:58:16	0	G	22	58	82.85715	42356.57	57	81.42857	28500	1026.718	54.10214	55.34555	14.42887	62.00999	353.2052	43.825	59.94022	0.6870003	14.45587	1.504999	1	3	1	0.15	4906	126	117.5097	58.15388	4.030382	178.4474	148.8801	1.026275	13.4175	379.9406
9/12/2014 4:58:26 PM	16:58:26	0	G	22	58	82.85715	42356.57	57	81.42857	28500	1027.479	54.10214	55.34555	14.4285	61.925	353.5654	43.48	59.89532	0.6700001	14.45463	1.481001	1	3	1	0.15	4902	127	118.5341	58.0435	4.022837	178.6475	148.6583	1.023543	13.38177	378.929
9/12/2014 4:58:36 PM	16:58:36	0	G	22	58	82.85715	42356.57	57	81.42857	28500	1029.718	54.28177	55.34555	14.4285	61.925	354.1958	43.845	59.85041	0.7259998	14.45568	1.504	1	3	1	0.15	4898	127	118.2507	58.15849	4.030807	178.9977	149.0401	1.02736	13.43168	380.3422
9/12/2014 4:58:46 PM	16:58:46	0	G	22	58	82.85715	42356.57	57	81.42857	28500	1029.633	54.37159	55.36264	14.42887	61.89999	354.4659	43.95	59.98513	0.7719994	14.45703	1.490999	1	3	1	0.15	4913	125.6001	117.4905	58.26887	4.038352	179.1477	149.3355	1.022869	13.37296	378.6794
9/12/2014 4:58:56 PM	16:58:56	0	G	22	58	82.85715	42356.57	57	80	28000	1029.887	54.14705	55.36264	14.4285	62.215	354.2858	43.75	60.07495	0.7290001	14.45647	1.504	1	3	1	0.15	4879	124	115.191	58.17349	4.031847	179.0477	148.96	1.027179	13.42932	380.2752
9/12/2014 4:59:06 PM	16:59:06	0	G	22	58	82.85715	42356.57	57	81.42857	28500	1030.478	54.23687	55.36264	14.4285	62.215	354.0157	43.685	59.94022	0.7399998	14.45672	1.518999	1	3	1	0.15	4925	127	119.0902	57.8685	4.010708	178.8976	148.4115	1.032418	13.49781	382.2148
9/12/2014 4:59:16 PM	16:59:16	5	G	23	58	82.85715	42356.57	57	81.42857	28500	1031.999	54.37159	55.36264	14.43	62.48	354.3759	43.56	59.89532	0.7329998	14.45624	1.506001	1	3	1	0.15	4911	125.7998	117.8167	58.2	4.033264	179.0977	149.1861	1.0304	13.47142	381.4676
9/12/2014 4:59:26 PM	16:59:26	15	G	23	58	82.85715	42356.57	58	82.85715	29000	1029	54.4165	55.36264	14.43	62.48	354.7811	43.52	60.03004	0.6709995	14.45638	1.51	1	3	1	0.15	4922	126.6001	118.4553	58.21	4.033957	179.3228	149.2434	1.029273	13.45669	381.0503
9/12/2014 4:59:36 PM	16:59:36	25	G	23	58	82.85715	42356.57	57	81.42857	28500	1031.788	54.23687	55.37976	14.42963	62.45	354.4209	43.60001	59.94022	0.7310009	14.45666	1.530001	1	3	1	0.15	4927	127.2002	119.1386	57.96463	4.017057	179.1227	148.5987	1.036787	13.55492	383.8319
9/12/2014 4:59:46 PM	16:59:46	35	G	23	58	82.85715	42356.57	57	81.42857	28500	1031.281	54.28177	55.36264	14.42963	62.35001	354.7811	43.75999	59.89532	0.7250004	14.45814	1.502001	1	3	1	0.15	4924	123.7998	116.0658	57.73462	4.001117	179.3228	148.1653	1.02741	13.43233	380.3607
9/12/2014 4:59:56 PM	16:59:56	45	G	23	58	82.85715	42356.57	57	81.42857	28500	1032.168	54.64104	55.37119	14.4285	62.22501	355.1863	43.565	59.89532	0.6870003	14.45553	1.479	1	3	1	0.15	4925	126.7998	118.9025	58.0285	4.021798	179.5479	149.0701	1.022222	13.3645	378.4398
9/12/2014 5:00:06 PM	17:00:06	55	G	23	58	82.85715	42356.57	57	81.42857	28500	1028.197	54.77576	55.37119	14.4285	62.22501	355.5464	43.925	60.11986	0.7420006	14.45662	1.51	1	3	1	0.15	4927	126.2002	118.2005	57.57849	3.990608	179.748	148.2592	1.029176	13.45542	381.0143
9/12/2014 5:00:16 PM	17:00:16	65	G	23	58	82.85715	42356.57	57	81.42857	28500	1032.422	54.77576	55.37119	14.42925	62.16499	355.6365	43.31	60.11986	0.8040009	14.45697	1.489	1	3	1	0.15	4919	126.3999	118.5706	57.78925	4.005007	179.7981	148.6853	1.022711	13.37089	378.6209
9/12/2014 5:00:26 PM	17:00:26	75	G	23	58	82.85715	42356.57	56	81.42857	28500	1033.436	54.9554	55.37119	14.42925	62.16499	356.1768	43.88	60.07495	0.7320004	14.45581	1.493	1	3	1	0.15	4916	126.2002	118.3109	58.15925	4.030649	180.0982	149.5888	1.023399	13.37989	378.8756
9/12/2014 5:00:36 PM	17:00:36	85	G	23	58	82.85715	42356.57	56	81.42857	28500	1032.084	54.82067	55.36264	14.42925	62.375	356.7171	43.61	60.07495	0.7210007	14.45249	1.511	1	3	1	0.15	4875	127.2002	118.2524	58.16425	4.030996	180.3984	149.4883	1.029403	13.45839	381.0985
9/12/2014 5:00:46 PM	17:00:46	95	G	23	58	82.85715	42356.57	57	81.42857	28500	1030.859	55.04522	55.37976	14.42925	62.64999	357.0773	43.67	60.16476	0.6569996	14.45675	1.496	1	3	1	0.15	4928	127	119.1628	57.52425	3.986642	180.5985	148.3622	1.024368	13.39257	379.2346
9/12/2014 5:00:56 PM	17:00:56	105	G	23	58	82.85715	42356.57	57	81.42857	28500	1030.478	55.04522	55.37119	14.42963	62.82001	357.2123	43.53999	60.16476	0.7380009	14.45604	1.493999	1	3	1	0.15	4918	124.7998	117.0482	57.73462	4.001117	180.6735	148.7911	1.023669	13.38342	378.9757
9/12/2014 5:01:06 PM	17:01:06	115	G	23	58	82.85715	42356.57	58	81.42857	28500	1031.704	54.37159	55.37119	14.42963	62.82001	356.8972	43.89999	60.25458	0.7310009	14.45695	1.509001	1	3	1	0.15	4931	126	118.2965	58.06963	4.024333	180.4984	148.9235	1.02871	13.44933	380.8419
9/12/2014 5:01:16 PM	17:01:16	125	G	23	58	82.85715	42356.57	58	81.42857	28500	1029.971	54.32668	55.37976	14.42963	62.505	356.492	43.66499	60.25458	0.8470001	14.45677	1.509001	1	3	1	0.15	4935	126.3999	118.9563	58.23962	4.036115	180.2733	149.2329	1.028724	13.4495	380.8469
9/12/2014 5:01:26 PM	17:01:26	135	G	23	58	82.85715	42356.57	56	81.42857	28500	1031.619	54.01233	55.37976	14.42963	62.505	356.1768	43.785	60.3444	0.7759991	14.45847	1.511	1	3	1	0.15	4906	123.3999	115.268	58.62962	4.063142	180.0982	149.7658	1.029373	13.458	381.0874
9/12/2014 5:01:36 PM	17:01:36	145	G	23	58	82.85715	42356.57	57	81.42857	28500	1027.352	54.01233	55.37976	14.4285	62.38499	356.0417	44.08	60.3444	0.6830006	14.45409	1.525	1	3	1	0.15	4960	125.3999	118.4255	58.23349	4.036005	180.0232	148.9713	1.034618	13.52657	383.0292
9/12/2014 5:02:37 PM	17:02:37	0	G	23	55	78.57143	40165.71	50	71.42857	25000	982.7347	53.8776	55.37976	14.42925	62.28999	326.0291	38.73	60.11986	0.5869999	14.44938	1.298	1	3	1	0.15	4351	109.2002	90.46461	52.90426	3.666459	163.3495	137.6421	0.9531508	12.46147	352.8689
9/12/2014 5:02:47 PM	17:02:47	0	G	23	55	78.57143	40165.71	50	71.42857	25000	982.3967	53.78778	55.4054	14.4285	62.33	324.3276	38.255	60.16476	0.6079998	14.44845	1.297001	1	3	1	0.15	4345	110.3999	91.49798	52.9935	3.672835	162.4043	137.7705	0.9538047	12.47002	353.111
9/12/2014 5:02:57 PM	17:02:57	0	G	23	55	78.57143	40165.71	50	71.42857	25000	982.7769	53.60815	55.43103	14.42963	62.25999	322.268	38.35001	60.11986	0.6630001	14.45127	1.290001	1	3	1	0.15	4340	110.6001	91.55771	52.61462	3.646291	161.26	136.8992	0.9572154	12.51461	354.3737
9/12/2014 5:03:07 PM	17:03:07	0	G	23	55	78.57143	40165.71	50	71.42857	25000	983.4531	53.60815	55.43103	14.42963	62.25999	321.1934	38.36501	59.98513	0.5639992	14.44896	1.309	1	3	1	0.15	4330	113.7998	93.82004	52.72462	3.653915	160.663	137.0319	0.9583592	12.52956	354.7971
9/12/2014 5:03:17 PM	17:03:17	0	G	23	55	78.57143	40165.71	51	72.85714	25500	981.5518	53.69796	55.43103	14.42963	62.31	319.7159	38.465	60.11986	0.5620003	14.45402	1.312	1	3	1	0.15	4353	109.7998	91.00315	52.86963	3.663964	159.9914	137.42	0.9595179	12.54471	355.2261
9/12/2014 5:03:27 PM	17:03:27	0	G	23	55	78.57143	40165.71	50	71.42857	25000	985.2698	53.65306	55.4567	14.43037	62.315	318.7756	37.985	60.11986	0.5480003	14.4487	1.316	1	3	1	0.15	4357	109.7998	91.41893	53.12038	3.68115	159.3198	137.9234	0.9607868	12.5613	355.6958
9/12/2014 5:03:37 PM	17:03:37	0	G	23	55	78.57143	40165.71	50	71.42857	25000	984.8473	53.8776	55.4567	14.43037	62.315	318.0592	38.64	60.20967	0.5330009	14.45108	1.308001	1	3	1	0.15	4354	109.7998	91.35598	52.61037	3.645808	158.9218	136.9916	0.9589734	12.53759	355.0245
9/12/2014 5:03:47 PM	17:03:47	5	I	24	55	78.57143	40165.71	50	71.42857	25000	987.2133	54.14705	55.43103	14.43075	62.33	317.6562	38.2	60.07495	0.5699997	14.45012	1.322001	1	3	1	0.15	4344	110.2002	90.81499	52.81574	3.659945	158.6979	137.6526	0.9630419	12.59078	356.5307
9/12/2014 5:03:57 PM	17:03:57	15	I	24	55	78.57143	40165.71	50	71.42857	25000	985.7346	54.14705	55.42249	14.42963	62.00999	316.5816	38.755	60.20967	0.4880009	14.44994	1.316	1	3	1	0.15	4356	111	92.06129	52.49963	3.638322	158.1009	136.9702	0.9607313	12.56058	355.6753
9/12/2014 5:04:07 PM	17:04:07	25	I	24	55	78.57143	40165.71	50	71.42857	25000	988.0584	54.10214	55.42249	14.42963	62.00999	316.1339	38.92	60.16476	0.5230007	14.44914	1.318001	1	3	1	0.15	4329	110	90.66642	52.64462	3.648371	157.8522	137.2518	0.9614719	12.57026	355.9495
9/12/2014 5:04:17 PM	17:04:17	35	I	24	56	80	40896	51	72.85714	25500	989.3682	54.23687	55.41397	14.43113	62.095	316.0891	38.89	60.11986	0.4500008	14.45107	1.316999	1	3	1	0.15	4388	109.6001	91.40075	53.20113	3.686554	157.8273	138.5603	0.9655908	12.62411	357.4743
9/12/2014 5:04:27 PM	17:04:27	45	I	24	56	78.57143	40165.71	52	74.28571	26000	987.6359	54.14705	55.43961	14.42963	62.235	316.313	39.08501	60.20967	0.6399994	14.45048	1.35	1	3	1	0.15	4421	112.2002	94.27678	53.13963	3.682676	157.9517	138.3669	0.9712501	12.6981	359.5695
9/12/2014 5:04:37 PM	17:04:37	55	I	24	55	80	40896	51	72.85714	25500	990.7202	54.19196	55.43961	14.42963	62.235	316.1787	38.545	60.20967	0.6149998	14.44958	1.351	1	3	1	0.15	4420	112.3999	94.42393	53.26962	3.691684	157.877	138.685	0.9733885	12.72606	360.3612
9/12/2014 5:04:47 PM	17:04:47	65	I	24	55	78.57143	40165.71	52	72.85714	25500	997.1	54.77576	55.43103	14.43113	62.2	316.5369	39.33	60.16476	0.6580009	14.45447	1.382	1	3	1	0.15	4448	112.7998	95.69945	54.39612	3.769361	158.076	141.5688	0.9867768	12.90109	365.3177
9/12/2014 5:04:57 PM	17:04:57	75	I	24	56	80	40896	51	74.28571	26000	994.6917	54.82067	55.43961	14.43	62.105	318.0144	39.77499	60.16476	0.6639996	14.45309	1.385	1	3	1	0.15	4464	118.3999	100.4636	54.15501	3.752946	158.8969	141.0974	0.9852992	12.88178	364.7707
9/12/2014 5:05:07 PM	17:05:07	85	I	24	56	80	40896	52	74.28571	26000	1001.241	54.68595	55.43961	14.43	62.105	319.2681	39.355	60.20967	0.6170006	14.45385	1.370001	1	3	1	0.15	4503	113.2002	97.05442	53.93501	3.7377	159.5934	140.5162	0.9828008	12.84911	363.8457
9/12/2014 5:05:17 PM	17:05:17	95	I	24	56	80	40896	53	74.28571	26000	1000.227	55.22485	55.42249	14.43	62.06	319.9397	39.36501	60.20967	0.5750008	14.44973	1.381001	1	3	1	0.15	4505	113.6001	97.61185	53.67001	3.719335	159.9665	140.3777	0.9840845	12.8659	364.321
9/12/2014 5:05:27 PM	17:05:27	105	I	24	56	80	40896	52	75.71429	26500	996.1283	55.35957	55.4054	14.42963	62.02	320.9695	39.99001	60.29949	0.6110001	14.45044	1.384001	1	3	1	0.15	4509	113.7998	97.69851	54.25462	3.759947	160.5387	141.7482	0.9850808	12.87892	364.6898
9/12/2014 5:05:37 PM	17:05:37	115	I	24	56	80	40896	52	75.71429	26500	994.6072	54.77576	55.4054	14.42963	62.02	321.1934	39.86	60.25458	0.7080002	14.45243	1.365999	1	3	1	0.15	4515	115.7998	99.37614	53.71962	3.72287	160.663	140.1272	0.9787945	12.79673	362.3625
9/12/2014 5:05:47 PM	17:05:47	125	I	24	56	80	40896	52	74.28571	26000	995.8325	54.59613	55.41397	14.43	61.99001	321.0143	39.42	60.3444	0.6650009	14.45168	1.375	1	3	1	0.15	4503	114.2002	97.91179	53.96999	3.740124	160.5635	140.5192	0.9822626	12.84208	363.6465
9/12/2014 5:05:57 PM	17:05:57	135	I	24	56	80	40896	52	75.71429	26500	991.3116	54.32668	55.41397	14.42963	62.02	321.1039	39.63499	60.43422	0.6130009	14.4533	1.382	1	3	1	0.15	4516	112.6001	96.99033	54.00462	3.742621	160.6133	140.3799	0.9804381	12.81822	362.971
9/12/2014 5:06:07 PM	17:06:07	145	I	24	56	80	40896	53	74.28571	26000	996.593	54.19196	55.41397	14.42963	62.02	321.1039	39.72	60.56894	0.5869999	14.4494	1.389999	1	3	1	0.15	4535	113	97.57127	54.07962	3.747818	160.6133	140.4325	0.9869354	12.90317	365.3764
9/12/2014 5:06:22 PM	17:06:22	0	I	24	56	80	40896	52	74.28571	26000	994.3538	53.8776	55.4054	14.43	61.985	321.6412	39.58	60.56894	0.5949993	14.45038	1.386	1	3	1	0.15	4540	114.6001	99.06199	54.25001	3.759529	160.9118	140.5415	0.9855371	12.88488	364.8587
9/12/2014 5:06:32 PM	17:06:32	0	I	24	56	80	40896	53	75.71429	26500	995.1143	53.8776	55.42249	14.42963	61.895	321.3277	39.91	60.43422	0.6630001	14.45362	1.372999	1	3	1	0.15	4536	114.3999	98.45644	54.29463	3.762719	160.7376	140.6399	0.9811653	12.82773	363.2403
9/12/2014 5:06:42 PM	17:06:42	0	I	24	55	80	40896	52	74.28571	26000	993.6355	53.60815	55.41397	14.42962	61.825	321.3277	40.105	60.25458	0.6630001	14.45268	1.386	1	3	1	0.15	4522	115	98.84118	54.18463	3.755096	160.7376	140.1876	0.9859199	12.88989	365.0005
9/12/2014 5:06:52 PM	17:06:52	0	I	24	56	80	40896	52	74.28571	26000	996.5085	53.96741	55.41397	14.42962	61.825	321.3277	39.80499	60.25458	0.5960007	14.45301	1.388	1	3	1	0.15	4534	112.7998	97.54975	54.31963	3.764452	160.7376	140.7658	0.9866524	12.89947	365.2716
9/12/2014 5:07:02 PM	17:07:02	0	I	24	56	80	40896	52	74.28571	26000	994.396	53.92251	55.41397	14.42963	61.87	321.5964	39.995	60.25458	0.6229992	14.45341	1.382	1	3	1	0.15	4542	114.7998	99.10563	54.11963	3.750591	160.8869	140.3015	0.9845309	12.87173	364.4862
9/12/2014 5:07:12 PM	17:07:12	0	I	24	56	80	40896	53	74.28571	26000	994.903	54.23687	55.43961	14.43	61.88499	321.6859	39.11501	60.20967	0.6130009	14.45205	1.354	1	3	1	0.15	4533	113.7998	98.21853	53.79501	3.727998	160.9366	139.8537	0.974538	12.74108	360.7867
9/12/2014 5:07:22 PM	17:07:22	0	I	24	56	80	40896	53	75.71429	26500	997.1	55.17994	55.43961	14.43	61.88499	322.3575	39.45	60.3444	0.6200008	14.45201	1.385	1	3	1	0.15	4523	113.2002	97.48548	54.29501	3.762648	161.3098	141.6871	0.9854667	12.88397	364.8327
9/12/2014 5:07:32 PM	17:07:32	0	I	24	56	80	40896	52	74.28571	26000	995.4945	54.64104	55.41397	14.43	61.84	322.2232	39.71001	60.3444	0.5960007	14.45179	1.365	1	3	1	0.15	4546	112.7998	97.80793	53.93999	3.738045	161.2351	140.4908	0.9783407	12.7908	362.1945
9/12/2014 5:07:42 PM	17:07:42	4	I	25	56	80	40896	53	75.71429	26500	993.4666	54.28177	55.42249	14.43	61.92999	321.9546	40.005	60.3444	0.625	14.45197	1.382	1	3	1	0.15	4549	114	98.7386	54.34499	3.766112	161.0859	141.0703	0.9843785	12.86974	364.4298
9/12/2014 5:07:52 PM	17:07:52	14	I	25	56	80	40896	53	75.71429	26500	992.4525	54.19196	55.42249	14.43	61.92999	321.8203	39.72	60.3444	0.6819992	14.45497	1.35	1	3	1	0.15	4549	114.3999	98.7386	53.805	3.72869	161.0113	139.8392	0.9730638	12.72181	360.241
9/12/2014 5:08:02 PM	17:08:02	24	I	25	56	78.57143	40165.71	53	75.71429	26500	992.1989	54.05723	55.41397	14.43	62.14	321.5516	39.41	60.20967	0.5569992	14.4506	1.361	1	3	1	0.15	4528	112.7998	97.24806	53.73499	3.723839	160.862	139.5801	0.9769887	12.77312	361.694
9/12/2014 5:08:12 PM	17:08:12	34	I	25	56	80	40896	52	74.28571	26000	993.7623	54.19196	55.43103	14.43	62.28999	320.88	39.53999	60.20967	0.5340004	14.45132	1.358	1	3	1	0.15	4504	112.3999	96.38967	53.3	3.693693	160.4889	138.7479	0.975942	12.75944	361.3065
9/12/2014 5:08:22 PM	17:08:22	44	I	25	56	78.57143	40165.71	52	74.28571	26000	994.2693	54.28177	55.43103	14.43	62.28999	320.6113	39.495	60.20967	0.618	14.45273	1.370001	1	3	1	0.15	4507	111.7998	96.2825	53.84	3.731116	160.3396	139.9868	0.9777896	12.7836	361.9905
9/12/2014 5:08:32 PM	17:08:32	54	I	25	56	80	40896	52	74.28571	26000	991.9455	54.59613	55.43103	14.43	62.545	320.477	39.02	60.20967	0.5849991	14.45244	1.365999	1	3	1	0.15	4505	112	96.23978	53.59499	3.714137	160.265	139.7107	0.9788359	12.79727	362.3779
9/12/2014 5:08:42 PM	17:08:42	64	I	25	56	80	40896	52	74.28571	26000	994.5651	54.73086	55.41397	14.43038	62.455	320.6113	39.05499	60.3444	0.5160007	14.4534	1.355	1	3	1	0.15	4503	112.3999	96.19705	53.68037	3.719957	160.3396	140.0004	0.9748014	12.74453	360.8842
9/12/2014 5:08:52 PM	17:08:52	74	I	25	56	80	40896	53	74.28571	26000	993.72	54.82067	55.41397	14.43038	62.455	320.7457	39.5	60.3444	0.5580006	14.45293	1.344	1	3	1	0.15	4516	111.3999	95.44279	53.55537	3.711294	160.4143	139.8023	0.9708332	12.69265	359.4151
9/12/2014 5:09:02 PM	17:09:02	84	I	25	56	80	40896	52	74.28571	26000	993.551	54.64104	55.42249	14.43	62.455	320.6113	39.25999	60.3444	0.6009998	14.45295	1.333	1	3	1	0.15	4525	112	96.66703	53.95499	3.739085	160.3396	140.5231	0.9690438	12.66925	358.7527
9/12/2014 5:09:12 PM	17:09:12	94	I	25	55	80	40896	52	74.28571	26000	991.2695	54.55122	55.42249	14.43	62.455	320.3427	39.78	60.47912	0.6149998	14.45071	1.356001	1	3	1	0.15	4514	111.6001	95.91628	53.715	3.722453	160.1904	139.9339	0.9749492	12.74646	360.939
9/12/2014 5:09:22 PM	17:09:22	104	I	25	55	78.57143	40165.71	53	74.28571	26000	994.8185	54.23687	55.43103	14.43	62.50999	320.074	39.16499	60.3444	0.6219997	14.45277	1.339001	1	3	1	0.15	4508	111.2002	95.61695	53.505	3.7079	160.0411	139.2279	0.9679618	12.65511	358.3521
9/12/2014 5:09:32 PM	17:09:32	114	I	25	56	80	40896	52	74.28571	26000	994.3115	54.59613	55.44815	14.42963	62.675	320.477	39.48	60.3444	0.6499996	14.44976	1.344999	1	3	1	0.15	4516	111.6001	96.13049	53.61462	3.715593	160.265	139.7561	0.9732431	12.72415	360.3073
9/12/2014 5:09:42 PM	17:09:42	124	I	25	56	80	40896	52	75.71429	26500	994.9875	54.32668	55.4567	14.42925	62.645	320.2084	39.45	60.47912	0.6730003	14.4492	1.353001	1	3	1	0.15	4535	111.6001	96.3625	53.79925	3.728485	160.1158	139.9411	0.9738377	12.73193	360.5275
9/12/2014 5:09:52 PM	17:09:52	134	I	25	55	80	40896	52	74.28571	26000	993.044	54.32668	55.4567	14.42925	62.645	320.2084	39.125	60.47912	0.5860004	14.4496	1.348	1	3	1	0.15	4524	113.2002	97.67906	53.74426	3.724674	160.1158	139.8226	0.9720457	12.7085	359.864
9/12/2014 5:10:02 PM	17:10:02	144	I	25	55	78.57143	40165.71	53	74.28571	26000	992.2834	54.50632	55.4567	14.42963	62.58	320.3427	39.52	60.61385	0.5690002	14.45026	1.349001	1	3	1	0.15	4535	112.3999	97.0531	53.92462	3.737077	160.1904	140.3524	0.9722916	12.71171	359.9551
9/12/2014 5:11:53 PM	17:11:53	0	I	25	52	75.71429	38705.14	45	64.28571	22500	966.0457	54.05723	55.46524	14.42887	61.58501	281.5403	33.47501	60.47912	0.3460007	14.44333	1.132	1	3	1	0.15	3880	94.6001	69.73799	47.64888	3.302328	138.6335	125.901	0.8908502	11.64695	329.8044
9/12/2014 5:12:03 PM	17:12:03	0	I	25	52	74.28571	37974.86	45	64.28571	22500	969.2144	53.8776	55.4567	14.43	61.745	281.2757	33.605	60.47912	0.3729992	14.44438	1.129999	1	3	1	0.15	3901	95	70.56117	47.79501	3.312197	138.4865	126.0955	0.8900743	11.63681	329.5172
9/12/2014 5:12:13 PM	17:12:13	0	I	25	53	75.71429	38705.14	45	64.28571	22500	970.6087	53.92251	55.44815	14.42925	61.84	281.2757	33.75	60.47912	0.4419994	14.44421	1.148001	1	3	1	0.15	3925	96.7998	72.3403	48.19926	3.340385	138.4865	127.0809	0.8967143	11.72362	331.9754
9/12/2014 5:12:23 PM	17:12:23	0	I	25	53	75.71429	38705.14	46	65.71429	23000	970.4819	53.92251	55.44815	14.42925	61.84	281.408	34.08501	60.3444	0.3920002	14.44345	1.159	1	3	1	0.15	3960	96.2002	72.53329	48.25925	3.344543	138.56	127.2207	0.9014874	11.78602	333.7424
9/12/2014 5:12:33 PM	17:12:33	0	I	25	53	75.71429	38705.14	46	65.71429	23000	972.848	53.83269	55.44815	14.42963	62.105	281.8049	34.08	60.3444	0.4190006	14.44528	1.163	1	3	1	0.15	3972	96.6001	72.90411	48.23462	3.342749	138.7805	127.0904	0.9034929	11.81224	334.4849
9/12/2014 5:12:43 PM	17:12:43	2	J	26	53	75.71429	38705.14	46	65.71429	23000	974.6226	54.01233	55.47379	14.42963	62.325	281.8049	33.455	60.3444	0.4370003	14.44415	1.16	1	3	1	0.15	3969	96.7998	73.15126	48.09962	3.333394	138.7805	126.9157	0.9011194	11.78121	333.6062
9/12/2014 5:12:53 PM	17:12:53	12	J	26	53	75.71429	38705.14	46	65.71429	23000	972.8903	54.37159	55.47379	14.42963	62.325	281.6726	33.72	60.3444	0.4230003	14.44553	1.16	1	3	1	0.15	3991	94.2002	71.58133	48.54962	3.364579	138.707	128.2429	0.9019378	11.79191	333.9092
9/12/2014 5:13:03 PM	17:13:03	22	J	26	53	75.71429	38705.14	46	65.71429	23000	969.9327	54.10214	55.47379	14.42887	62.41499	281.408	33.605	60.3444	0.4200001	14.44413	1.179001	1	3	1	0.15	4020	95.3999	72.71364	48.09387	3.333168	138.56	126.9781	0.9092131	11.88703	336.6026
9/12/2014 5:13:13 PM	17:13:13	32	J	26	53	75.71429	38705.14	46	65.71429	23000	974.1155	54.23687	55.46524	14.42925	62.53999	281.1434	33.875	60.3444	0.4239998	14.44418	1.166	1	3	1	0.15	4012	97	74.09669	48.28925	3.346622	138.413	127.5356	0.9003386	11.771	333.3171
9/12/2014 5:13:23 PM	17:13:23	42	J	26	53	75.71429	38705.14	46	65.71429	23000	972.8903	54.37159	55.46524	14.42925	62.53999	281.1434	34.2	60.3444	0.3929996	14.44353	1.174	1	3	1	0.15	4010	96	73.14342	48.63926	3.370879	138.413	128.4536	0.9072852	11.86182	335.8888
9/12/2014 5:13:33 PM	17:13:33	52	J	26	54	77.14286	39435.43	48	67.14285	23500	980.8757	54.4165	55.49091	14.42925	62.645	283.1351	35.465	60.20967	0.5039997	14.44681	1.256001	1	3	1	0.15	4128	97.6001	76.71073	50.22425	3.480725	138.854	132.1186	0.938555	12.27064	347.4653
9/12/2014 5:13:43 PM	17:13:43	62	J	26	54	77.14286	39435.43	50	71.42857	25000	979.9884	54.55122	55.49091	14.42887	62.49001	286.4932	36.28999	60.3444	0.4969997	14.44709	1.285999	1	3	1	0.15	4268	100.2002	81.42526	51.19387	3.548016	141.3851	134.4085	0.9543152	12.47669	353.3
9/12/2014 5:13:53 PM	17:13:53	72	J	26	54	77.14286	39435.43	50	71.42857	25000	977.1154	54.19196	55.49091	14.42887	62.49001	287.7021	36.33	60.3444	0.5529995	14.44695	1.283001	1	3	1	0.15	4294	104	84.86425	50.76887	3.518561	142.0567	133.1723	0.9484529	12.40005	351.1297
9/12/2014 5:14:03 PM	17:14:03	82	J	26	55	77.14286	39435.43	50	71.42857	25000	976.2281	54.19196	55.49091	14.43	62.5	288.8215	36.27	60.38931	0.5319996	14.44796	1.289	1	3	1	0.15	4293	102.6001	83.86386	50.48	3.498268	142.6786	132.5134	0.9506543	12.42883	351.9447
9/12/2014 5:14:13 PM	17:14:13	92	J	26	54	77.14286	39435.43	50	71.42857	25000	977.5802	54.05723	55.49091	14.43	62.5	289.8961	36.48	60.25458	0.5119991	14.44811	1.263	1	3	1	0.15	4298	100	81.9976	50.535	3.502079	143.2756	132.5309	0.9437705	12.33883	349.3962
9/12/2014 5:14:23 PM	17:14:23	102	J	26	54	77.14286	39435.43	49	70	24500	981.6784	54.59613	55.49091	14.42925	62.59	291.5079	36.02499	60.25458	0.4729996	14.44512	1.278	1	3	1	0.15	4271	102.7998	83.75929	50.22425	3.480725	144.1711	132.2602	0.9466162	12.37603	350.4497
9/12/2014 5:14:33 PM	17:14:33	112	J	26	54	77.14286	39435.43	50	71.42857	25000	976.3549	54.4165	55.49091	14.42925	62.58501	291.8214	35.83	60.43422	0.4890003	14.44985	1.233	1	3	1	0.15	4278	101.2002	82.59324	50.25425	3.482804	144.3452	132.1865	0.9298606	12.15697	344.2466
9/12/2014 5:14:43 PM	17:14:43	122	J	26	54	77.14286	39435.43	49	71.42857	25000	977.5802	54.14705	55.48236	14.43	62.44	292.3587	35.85001	60.43422	0.4899998	14.44912	1.257	1	3	1	0.15	4249	101.3999	82.19531	50.245	3.481982	144.6437	131.9473	0.938814	12.27403	347.5612
9/12/2014 5:14:53 PM	17:14:53	132	J	26	54	77.14286	39435.43	49	70	24500	976.3126	54.14705	55.48236	14.43	62.44	291.8214	35.5	60.29949	0.5	14.44915	1.247	1	3	1	0.15	4250	99.6001	80.59626	50.305	3.48614	144.3452	132.0829	0.9351931	12.22669	346.2207
9/12/2014 5:15:03 PM	17:15:03	142	J	26	54	77.14286	39435.43	49	71.42857	25000	976.3971	53.92251	55.48236	14.42925	62.28999	292.09	35.44	60.43422	0.5189991	14.44971	1.275	1	3	1	0.15	4251	100.7998	81.58625	50.36926	3.490774	144.4945	132.0568	0.9399382	12.28873	347.9774
9/12/2014 5:16:50 PM	17:16:50	0	J	26	54	77.14286	39435.43	50	71.42857	25000	972.7213	53.74287	55.4567	14.42963	62.23	290.1647	35.755	60.65876	0.4669991	14.44687	1.264	1	3	1	0.15	4293	97.2002	79.45006	50.08463	3.470958	143.4249	131.2686	0.9411219	12.3042	348.4156
9/12/2014 5:17:00 PM	17:17:00	8	J	27	54	77.14286	39435.43	49	70	24500	972.8057	53.65306	55.4567	14.42963	62.22501	289.0453	36.13	60.61385	0.4650002	14.44705	1.261	1	3	1	0.15	4308	98.2002	80.5479	50.06462	3.469572	142.803	131.1525	0.9400683	12.29043	348.0256
9/12/2014 5:17:10 PM	17:17:10	18	J	27	54	77.14286	39435.43	50	71.42857	25000	973.4396	53.83269	55.4567	14.42963	62.22501	288.9558	35.735	60.52403	0.4619999	14.44773	1.268999	1	3	1	0.15	4309	97.6001	80.07426	50.12463	3.473731	142.7532	131.43	0.9431454	12.33066	349.1648
9/12/2014 5:17:20 PM	17:17:20	28	J	27	54	77.14286	39435.43	50	71.42857	25000	976.6083	54.14705	55.4567	14.43	62.21001	288.911	35.44	60.47912	0.4449997	14.44811	1.256001	1	3	1	0.15	4310	98.2002	80.5853	49.91	3.458766	142.7284	131.1876	0.9353701	12.229	346.2863
9/12/2014 5:17:30 PM	17:17:30	38	J	27	53	77.14286	39435.43	49	70	24500	978.1717	54.46141	55.43103	14.43	61.87	289.2692	35.41	60.43422	0.5580006	14.45006	1.264	1	3	1	0.15	4287	98.2002	80.15527	49.91	3.458766	142.9274	131.435	0.9414357	12.30831	348.5318
9/12/2014 5:17:40 PM	17:17:40	48	J	27	54	77.14286	39435.43	50	71.42857	25000	978.2562	54.68595	55.43103	14.43	61.87	289.0006	35.55499	60.56894	0.4610004	14.44746	1.243999	1	3	1	0.15	4321	94.6001	77.99342	49.585	3.436244	142.7781	130.7646	0.9337671	12.20805	345.6928
9/12/2014 5:17:50 PM	17:17:50	58	J	27	53	77.14286	39435.43	50	71.42857	25000	978.2139	54.73086	55.43103	14.43	61.67	288.9558	35.71001	60.52403	0.5459995	14.44702	1.264999	1	3	1	0.15	4318	97.7998	80.24151	49.885	3.457034	142.7532	131.5902	0.9416217	12.31074	348.6006
9/12/2014 5:18:00 PM	17:18:00	68	J	27	54	77.14286	39435.43	50	71.42857	25000	978.4675	54.86558	55.4054	14.43075	61.62	289.4483	35.77	60.61385	0.4470005	14.44842	1.257999	1	3	1	0.15	4282	96	78.26797	49.77575	3.449284	143.0269	131.4412	0.9389781	12.27618	347.622
9/12/2014 5:18:10 PM	17:18:10	78	J	27	54	77.14286	39435.43	50	71.42857	25000	974.0734	54.50632	55.4054	14.43075	61.62	288.911	35.84	60.74857	0.5	14.44824	1.268999	1	3	1	0.15	4315	97.2002	79.85721	49.83575	3.453441	142.7284	131.2954	0.9425851	12.32333	348.9574
9/12/2014 5:18:20 PM	17:18:20	88	J	27	54	77.14286	39435.43	51	72.85714	25500	975.3831	54.14705	55.4054	14.43	61.55	288.911	35.905	60.61385	0.5009995	14.4463	1.264999	1	3	1	0.15	4385	97	80.98555	50.275	3.484061	142.7284	132.0151	0.939657	12.28505	347.8734
9/12/2014 5:18:30 PM	17:18:30	98	J	27	53	77.14286	39435.43	50	71.42857	25000	974.5803	53.96741	55.37119	14.43037	61.61501	289.0006	35.62	60.70367	0.5349998	14.44996	1.271999	1	3	1	0.15	4314	98.6001	81.31703	50.46037	3.496817	142.7781	132.289	0.9441438	12.34371	349.5344
9/12/2014 5:18:40 PM	17:18:40	108	J	27	54	77.14286	39435.43	49	70	24500	979.5237	54.46141	55.37119	14.43037	61.61501	289.4931	35.345	60.65876	0.448	14.44881	1.25	1	3	1	0.15	4292	96.6001	78.77756	50.02037	3.466325	143.0517	131.6829	0.9374893	12.25671	347.0708
9/12/2014 5:18:50 PM	17:18:50	118	J	27	54	75.71429	38705.14	50	71.42857	25000	976.0168	54.64104	55.37119	14.43075	61.59	289.0901	35.27	60.79348	0.4729996	14.446	1.254999	1	3	1	0.15	4319	98	80.42432	50.35575	3.489476	142.8279	132.5813	0.9365135	12.24395	346.7096
9/12/2014 5:19:00 PM	17:19:00	128	J	27	54	77.14286	39435.43	49	70	24500	975.4254	55.00031	55.36264	14.42963	61.465	289.5826	35.57001	60.74857	0.5400009	14.44668	1.250999	1	3	1	0.15	4291	95.6001	78.26892	50.04962	3.468532	143.1015	132.1796	0.9361992	12.23984	346.5932
9/12/2014 5:19:10 PM	17:19:10	138	J	27	54	77.14286	39435.43	49	70	24500	977.4534	55.00031	55.36264	14.42963	61.465	289.4483	35.28	60.8833	0.5209999	14.44853	1.257999	1	3	1	0.15	4292	98.6001	80.90234	49.30463	3.416903	143.0269	130.4776	0.9387564	12.27328	347.5399
9/12/2014 5:19:20 PM	17:19:20	148	J	27	54	77.14286	39435.43	50	71.42857	25000	981.0024	55.35957	55.3541	14.43113	61.47501	289.5379	35.015	60.83839	0.5189991	14.44869	1.247999	1	3	1	0.15	4285	96	78.48615	49.85112	3.454417	143.0766	131.9987	0.939918	12.28846	347.97
9/12/2014 5:19:30 PM	17:19:30	0	J	27	53	75.71429	38705.14	50	71.42857	25000	980.1575	55.40448	55.33701	14.43113	61.435	289.4931	32.875	60.92821	0.3409996	14.44605	1.129999	1	3	1	0.15	4298	94	76.92375	47.23113	3.272865	143.0517	125.9427	0.8874025	11.60188	328.528
9/12/2014 5:19:40 PM	17:19:40	0	J	27	50	71.42857	36514.29	43	62.85714	22000	950.6662	55.58411	55.33701	14.43113	61.435	281.9372	28.16499	61.01802	0.2049999	14.4372	0.9179993	1	3	1	0.15	3729	85.2002	60.63396	42.45113	2.941637	138.854	114.2057	0.8058002	10.53501	298.3178
9/12/2014 5:19:50 PM	17:19:50	0	J	27	47	67.14285	34323.43	38	54.28572	19000	916.6606	55.35957	55.3028	14.43075	61.495	272.1026	24.31	61.10784	5.500031E-02	14.43321	0.7870007	1	3	1	0.15	3255	73.6001	45.86157	39.20075	2.716474	133.3903	105.5811	0.7438468	9.725035	275.3819
9/12/2014 5:20:00 PM	17:20:00	0	J	27	45	64.28571	32862.86	34	48.57143	17000	902.2986	55.26976	55.27716	14.43037	61.49001	262.6649	22.345	61.06293	-3.000259E-03	14.42868	0.6940002	1	3	1	0.15	2930	64.2002	35.81543	36.40038	2.522483	128.1472	97.72463	0.6946563	9.081919	257.1709
9/12/2014 5:20:10 PM	17:20:10	0	J	27	44	62.85714	32132.57	31	44.28571	15500	898.5704	55.31467	55.27716	14.43037	61.49001	251.8159	20.66	61.19766	-0.0529995	14.42846	0.6569996	1	3	1	0.15	2706	59.3999	30.60411	35.19037	2.438632	122.1199	94.25542	0.6788203	8.874878	251.3081
9/12/2014 5:20:20 PM	17:20:20	0	J	27	42	60	30672	29	41.42857	14500	886.2419	54.68595	55.2515	14.42963	61.455	244.2304	19.545	61.28748	-0.1259995	14.42706	0.6189995	1	3	1	0.15	2534	56.6001	27.308	33.70963	2.33614	117.9058	89.41263	0.6583137	8.606776	243.7164
9/12/2014 5:20:30 PM	17:20:30	0	J	27	42	60	30672	28	40	14000	890.4785	54.68595	55.24295	14.42963	61.53999	237.3506	19.13499	61.28748	-0.125	14.4276	0.6049995	1	3	1	0.15	2502	52.6001	25.15277	33.88963	2.348615	114.0837	89.95479	0.653001	8.537317	241.7495
9/12/2014 5:20:40 PM	17:20:40	0	J	27	42	60	30672	28	40	14000	889.3346	54.05723	55.24295	14.42963	61.53999	231.0321	19.205	61.24257	-6.900024E-02	14.42605	0.6159992	1	3	1	0.15	2486	52.7998	24.89739	33.56963	2.326438	110.5734	88.54688	0.6567179	8.585913	243.1256
9/12/2014 5:20:50 PM	17:20:50	0	J	27	42	60	30672	29	41.42857	14500	889.8853	53.74287	55.22583	14.43037	61.66	227.2064	18.955	61.19766	-0.1200008	14.4277	0.6089993	1	3	1	0.15	2471	54	25.40579	33.34038	2.310431	108.448	87.62595	0.6530573	8.538054	241.7704
9/12/2014 5:21:00 PM	17:21:00	0	J	27	42	60	30672	29	38.57143	13500	891.6647	53.74287	55.20877	14.42963	61.75	223.3373	19.08	61.10784	-4.800034E-02	14.42829	0.6110001	1	3	1	0.15	2436	51.7998	24.11831	33.51463	2.322627	106.2985	88.1593	0.650468	8.504201	240.8118
9/12/2014 5:21:10 PM	17:21:10	0	J	27	42	60	30672	29	41.42857	14500	893.0204	54.14705	55.20877	14.42963	61.75	220.9463	19.295	60.92821	-8.099937E-02	14.42507	0.6070004	1	3	1	0.15	2505	50.6001	24.13378	33.49963	2.321587	104.9701	88.39832	0.6526527	8.532764	241.6206
9/12/2014 5:21:20 PM	17:21:20	0	J	27	43	60	30672	29	41.42857	14500	895.4777	54.46141	55.19165	14.43113	61.985	219.2073	19.39	60.8833	-0.1380005	14.4248	0.6200008	1	3	1	0.15	2495	53.6001	25.46258	33.64113	2.331151	104.0041	89.03703	0.6590749	8.616728	243.9982
9/12/2014 5:21:30 PM	17:21:30	0	J	27	43	61.42857	31402.29	29	41.42857	14500	893.1899	54.46141	55.16599	14.43037	61.74001	217.9031	19.38	61.01802	-4.800034E-02	14.42737	0.6310005	1	3	1	0.15	2526	51.3999	24.72076	34.02538	2.3579	103.2795	90.19828	0.6621873	8.657419	245.1504
9/12/2014 5:21:40 PM	17:21:40	0	J	27	44	62.85714	32132.57	31	44.28571	15500	914.7119	54.46141	55.16599	14.43	61.75	216.9467	21.03	61.10784	-4.400063E-02	14.43063	0.6830006	1	3	1	0.15	2647	55.7998	28.12243	35.30537	2.446601	102.7482	93.98264	0.6906505	9.029548	255.6879
9/12/2014 5:21:50 PM	17:21:50	0	J	27	43	61.42857	31402.29	30	42.85714	15000	894.7151	54.05723	55.16599	14.43	61.75	217.4684	20.39999	61.10784	-0.0170002	14.4257	0.6679993	1	3	1	0.15	2649	56.6001	28.54732	34.755	2.408524	103.038	92.08302	0.6839278	8.941654	253.199
9/12/2014 5:22:00 PM	17:22:00	0	J	27	43	61.42857	31402.29	31	44.28571	15500	896.1132	53.96741	55.15744	14.43	61.87	216.8163	20.35001	60.97312	-5.400085E-02	14.42848	0.6679993	1	3	1	0.15	2644	55.7998	28.09056	34.865	2.416147	102.6757	92.34309	0.6784359	8.869853	251.1658
9/12/2014 5:22:10 PM	17:22:10	0	J	27	44	62.85714	32132.57	31	44.28571	15500	898.8246	53.74287	55.15744	14.43	61.87	216.2511	20.71001	60.79348	-4.800034E-02	14.43007	0.6760006	1	3	1	0.15	2664	54.6001	27.69452	35.035	2.427927	102.3618	92.68228	0.6883143	8.999003	254.823
9/12/2014 5:22:20 PM	17:22:20	0	J	27	44	62.85714	32132.57	32	45.71429	16000	904.1203	53.78778	55.1489	14.43075	62.105	216.512	21.235	60.79348	6.100082E-02	14.43332	0.7040005	1	3	1	0.15	2764	56.3999	29.68128	35.81574	2.481905	102.5067	94.97836	0.7054607	9.223174	261.1708
9/12/2014 5:22:30 PM	17:22:30	0	J	27	44	62.85714	32132.57	32	45.71429	16000	909.0348	54.55122	55.10617	14.43113	62.22501	217.5553	21.22	60.79348	2.499962E-02	14.43217	0.7059994	1	3	1	0.15	2818	56.2002	30.15401	36.11112	2.502308	103.0863	96.37358	0.7034618	9.197042	260.4308
9/12/2014 5:22:40 PM	17:22:40	0	J	27	44	64.28571	32862.86	33	45.71429	16000	908.3569	55.17994	55.10617	14.43113	62.22501	218.164	21.535	60.8833	-0.0340004	14.43369	0.7040005	1	3	1	0.15	2799	58.6001	31.22967	36.07613	2.499883	103.4244	96.72481	0.7039301	9.203163	260.6041
9/12/2014 5:22:50 PM	17:22:50	2	K	28	44	62.85714	32132.57	33	45.71429	16000	903.7814	54.68595	55.11469	14.43	62.125	218.2509	21.38499	60.97312	-2.000046E-02	14.4292	0.7110004	1	3	1	0.15	2845	56.3999	30.5511	36.06001	2.498961	103.4727	96.3316	0.7057126	9.226467	261.264
9/12/2014 5:23:00 PM	17:23:00	12	K	28	44	62.85714	32132.57	32	45.71429	16000	903.1883	54.05723	55.10617	14.43	62.095	217.8596	21.795	61.10784	-6.000519E-03	14.43011	0.7070007	1	3	1	0.15	2824	58.2002	31.29358	36.06499	2.499307	103.2554	95.89429	0.7036842	9.199947	260.5131
9/12/2014 5:23:10 PM	17:23:10	22	K	28	44	62.85714	32132.57	33	47.14286	16500	906.5352	54.19196	55.10617	14.43	62.095	217.2076	21.465	60.97312	-3.99971E-03	14.4292	0.7110004	1	3	1	0.15	2843	57.6001	31.2874	36.085	2.500693	102.8931	96.0485	0.7047255	9.213562	260.8986
9/12/2014 5:23:20 PM	17:23:20	32	K	28	44	62.85714	32132.57	34	47.14286	16500	908.1451	54.50632	55.08051	14.43	62.23	217.1641	21.34	60.92821	3.100014E-02	14.42924	0.7150002	1	3	1	0.15	2859	59.3999	32.44347	35.85	2.484407	102.8689	95.59779	0.7092263	9.272407	262.5649
9/12/2014 5:23:30 PM	17:23:30	42	K	28	44	62.85714	32132.57	33	47.14286	16500	905.01	54.32668	55.06339	14.43075	62.2	216.8598	21.765	60.8833	-2.700043E-02	14.43039	0.7220001	1	3	1	0.15	2843	57	30.96282	36.07075	2.499575	102.6999	96.09903	0.7082842	9.260089	262.2161
9/12/2014 5:23:40 PM	17:23:40	52	K	28	44	62.85714	32132.57	33	47.14286	16500	905.8574	54.19196	55.06339	14.43075	62.2	216.7294	21.55499	60.74857	-3.800011E-02	14.42927	0.7049999	1	3	1	0.15	2829	57.3999	30.91792	35.95574	2.491606	102.6274	95.67161	0.7028956	9.189638	260.2211
9/12/2014 5:23:50 PM	17:23:50	62	K	28	45	64.28571	32862.86	32	47.14286	16500	905.0947	54.28177	55.0463	14.43038	62.245	216.5989	21.42	60.74857	-6.999969E-02	14.43005	0.7199993	1	3	1	0.15	2821	60	32.33458	36.00038	2.494764	102.555	95.8672	0.7103677	9.287329	262.9874
9/12/2014 5:24:00 PM	17:24:00	72	K	28	45	64.28571	32862.86	33	47.14286	16500	906.4081	54.28177	55.02921	14.43	62.37	216.2077	21.63	60.8833	0.0340004	14.42892	0.7189999	1	3	1	0.15	2829	57.6001	31.02575	36.02	2.496188	102.3376	95.9263	0.7097262	9.278941	262.7499
9/12/2014 5:24:10 PM	17:24:10	82	K	28	45	64.28571	32862.86	33	47.14286	16500	907.5096	54.4165	55.02921	14.43	62.37	216.1642	21.41	60.83839	-7.99942E-03	14.42837	0.7159996	1	3	1	0.15	2841	57.7998	31.26539	35.785	2.479903	102.3134	95.34568	0.7082872	9.260128	262.2172
9/12/2014 5:24:20 PM	17:24:20	92	K	28	45	64.28571	32862.86	33	45.71429	16000	903.3578	54.05723	55.03775	14.43037	62.41499	215.9034	21.72	60.83839	-2.799988E-02	14.43135	0.7220001	1	3	1	0.15	2845	57.7998	31.41785	35.99037	2.494071	102.1685	95.67724	0.707378	9.248241	261.8806
9/12/2014 5:24:30 PM	17:24:30	102	K	28	44	62.85714	32132.57	33	47.14286	16500	902.5104	53.78778	55.02921	14.43	62.52	215.7729	21.595	60.83839	2.199936E-02	14.43007	0.7189999	1	3	1	0.15	2888	57.6001	31.56273	36.15	2.505198	102.0961	95.87991	0.7127432	9.318387	263.8669
9/12/2014 5:24:40 PM	17:24:40	112	K	28	45	62.85714	32132.57	33	47.14286	16500	903.6543	53.74287	55.02921	14.43	62.52	215.4686	21.58501	60.79348	-2.400017E-02	14.42946	0.7169991	1	3	1	0.15	2853	55.7998	30.20254	36.03001	2.496882	101.927	95.56809	0.7088404	9.267361	262.422
9/12/2014 5:24:50 PM	17:24:50	122	K	28	45	64.28571	32862.86	33	47.14286	16500	903.9085	53.38361	55.02921	14.43	62.485	215.2078	21.69	60.65876	-4.100037E-02	14.43054	0.7329998	1	3	1	0.15	2889	58.6001	32.23384	35.995	2.494456	101.7821	95.20957	0.7167805	9.371171	265.3616
9/12/2014 5:25:00 PM	17:25:00	132	K	28	45	62.85714	32132.57	34	48.57143	17000	903.5272	53.42852	55.01208	14.43037	62.48	215.0774	21.63499	60.79348	-4.700089E-02	14.43106	0.7180004	1	3	1	0.15	2881	56.2002	30.71832	36.13538	2.504119	101.7096	95.64167	0.7093656	9.274227	262.6164
9/12/2014 5:25:10 PM	17:25:10	0	K	28	44	62.85714	32132.57	33	47.14286	16500	903.3154	53.51833	55.01208	14.43037	62.48	214.7731	21.63499	60.47912	-2.000809E-03	14.43045	0.7250004	1	3	1	0.15	2861	57.6001	31.3767	35.87038	2.485755	101.5406	94.94526	0.7105547	9.289773	263.0566
9/12/2014 5:25:20 PM	17:25:20	0	K	28	45	64.28571	32862.86	32	47.14286	16500	901.2818	53.42852	54.995	14.43037	62.57001	214.4253	21.66	60.52403	-6.599998E-02	14.43012	0.7140007	1	3	1	0.15	2865	56.6001	30.87507	36.16037	2.505851	101.3474	95.71322	0.7100271	9.282876	262.8613
9/12/2014 5:25:30 PM	17:25:30	0	K	28	44	64.28571	32862.86	33	47.14286	16500	901.9173	53.51833	55.00357	14.43113	62.73	214.2514	21.575	60.47912	-2.899933E-02	14.42917	0.7290001	1	3	1	0.15	2874	57.6001	31.51927	35.81113	2.48152	101.2508	94.76917	0.7149377	9.347077	264.6793
9/12/2014 5:25:40 PM	17:25:40	0	K	28	44	64.28571	32862.86	33	47.14286	16500	902.4681	53.42852	55.00357	14.43113	62.73	214.121	21.66499	60.47912	6.000519E-03	14.43069	0.7369995	1	3	1	0.15	2853	57.2002	31.07173	36.06612	2.49919	101.1783	95.43781	0.7188551	9.398293	266.1296
9/12/2014 5:25:50 PM	17:25:50	0	K	28	44	64.28571	32862.86	33	47.14286	16500	903.6543	53.42852	54.96936	14.43075	62.67	213.9905	21.67	60.47912	-4.299927E-02	14.43032	0.7240009	1	3	1	0.15	2870	59.2002	32.24038	36.17075	2.506505	101.1059	95.74021	0.7115313	9.302541	263.4182
9/12/2014 5:26:00 PM	17:26:00	0	K	28	44	62.85714	32132.57	33	48.57143	17000	903.2307	53.56324	54.95224	14.4315	62.66	213.8601	21.595	60.3444	-2.400017E-02	14.4307	0.7250004	1	3	1	0.15	2872	57.2002	31.27866	36.1665	2.506081	101.0334	95.81956	0.7160332	9.3614	265.0849
9/12/2014 5:26:10 PM	17:26:10	0	K	28	45	62.85714	32132.57	33	47.14286	16500	903.8661	53.3387	54.95224	14.4315	62.66	213.8167	21.435	60.16476	-2.499962E-02	14.43081	0.7280006	1	3	1	0.15	2868	57.7998	31.45347	35.7965	2.480443	101.0093	94.5956	0.714694	9.34389	264.5891
9/12/2014 5:26:20 PM	17:26:20	0	K	28	45	64.28571	32862.86	33	47.14286	16500	907.8485	54.01233	54.95224	14.43113	62.91499	213.9471	21.67	60.16476	5.200005E-02	14.42997	0.7250004	1	3	1	0.15	2860	58.2002	31.5835	35.94112	2.490528	101.0817	95.4979	0.7131854	9.324167	264.0306
9/12/2014 5:26:30 PM	17:26:30	0	K	28	45	62.85714	32132.57	33	47.14286	16500	908.9924	54.50632	54.95224	14.43075	62.89999	214.2079	21.39999	60.16476	-9.994507E-04	14.43234	0.7240009	1	3	1	0.15	2875	57.7998	31.74915	35.85075	2.48433	101.2266	95.59457	0.7127734	9.318781	263.8781
9/12/2014 5:26:40 PM	17:26:40	9	K	29	44	62.85714	32132.57	33	47.14286	16500	907.2978	54.77576	54.95224	14.43075	62.89999	214.4253	21.395	60.25458	-0.0170002	14.42974	0.7220001	1	3	1	0.15	2859	56.7998	30.81041	35.94575	2.490913	101.3474	96.0619	0.7082064	9.259072	262.1873
9/12/2014 5:26:50 PM	17:26:50	19	K	29	44	62.85714	32132.57	33	45.71429	16000	907.0012	54.64104	54.96936	14.43075	62.89999	214.5557	21.39999	60.38931	-1.399994E-02	14.42717	0.7220001	1	3	1	0.15	2861	57	31.04981	35.85075	2.48433	101.4198	95.69118	0.7124909	9.315087	263.7735
9/12/2014 5:27:00 PM	17:27:00	29	K	29	44	62.85714	32132.57	33	45.71429	16000	907.9756	54.50632	54.91803	14.4315	62.92999	214.5122	21.48	60.3444	-3.899956E-02	14.43078	0.7199993	1	3	1	0.15	2855	58	31.52828	35.85651	2.4846	101.3957	95.6058	0.7106223	9.290658	263.0817
9/12/2014 5:27:10 PM	17:27:10	39	K	29	45	64.28571	32862.86	33	47.14286	16500	906.3234	54.19196	54.91803	14.4315	62.92999	214.2514	21.69501	60.47912	-5.699921E-02	14.42966	0.7269993	1	3	1	0.15	2893	57.7998	31.72765	35.9115	2.48841	101.2508	95.53883	0.7139457	9.334107	264.312
9/12/2014 5:27:20 PM	17:27:20	49	K	29	44	62.85714	32132.57	34	48.57143	17000	905.0524	54.01233	54.90097	14.43075	62.91499	213.8601	21.605	60.47912	-4.899979E-02	14.42854	0.7159996	1	3	1	0.15	2872	57.7998	31.49734	35.73574	2.476361	101.0334	94.9083	0.7085387	9.263416	262.3103
9/12/2014 5:27:30 PM	17:27:30	59	K	29	44	64.28571	32862.86	33	47.14286	16500	906.0692	54.37159	54.87531	14.43037	62.94	214.0775	21.42999	60.43422	-3.300095E-02	14.42947	0.7169991	1	3	1	0.15	2872	57.2002	31.27866	35.95038	2.491299	101.1542	95.78782	0.7085735	9.263871	262.3232
9/12/2014 5:27:40 PM	17:27:40	69	K	29	45	62.85714	32132.57	34	48.57143	17000	904.8406	54.73086	54.87531	14.43037	62.94	214.034	21.55	60.52403	2.000809E-03	14.43095	0.7280006	1	3	1	0.15	2855	58	31.52828	35.86537	2.485408	101.13	95.80053	0.7144713	9.34098	264.5067
9/12/2014 5:27:50 PM	17:27:50	79	K	29	45	64.28571	32862.86	33	47.14286	16500	904.1203	54.68595	54.88385	14.43225	62.98	214.1644	21.56	60.52403	-2.700043E-02	14.43109	0.7159996	1	3	1	0.15	2879	56.3999	30.91621	35.87225	2.485562	101.2025	95.77473	0.7095433	9.27655	262.6822
9/12/2014 5:28:00 PM	17:28:00	89	K	29	44	62.85714	32132.57	33	47.14286	16500	912.5935	55.89848	54.85818	14.43037	63.05	214.5122	21.41	60.47912	-2.599907E-02	14.43001	0.7220001	1	3	1	0.15	2869	57.3999	31.24599	35.77037	2.478825	101.3957	96.3629	0.7110227	9.295892	263.2299
9/12/2014 5:28:10 PM	17:28:10	99	K	29	44	62.85714	32132.57	33	45.71429	16000	910.5176	55.80866	54.85818	14.43037	63.05	214.6426	21.53999	60.61385	-2.300072E-02	14.42857	0.7150002	1	3	1	0.15	2825	57	30.65911	36.11537	2.502733	101.4681	97.29484	0.7079186	9.25531	262.0807
9/12/2014 5:28:20 PM	17:28:20	109	K	29	45	62.85714	32132.57	33	47.14286	16500	912.0004	55.71884	54.87531	14.43075	63.17999	214.7296	21.255	60.70367	-2.000046E-02	14.42995	0.7110004	1	3	1	0.15	2860	56.2002	30.71218	35.81574	2.481905	101.5164	96.36287	0.7079293	9.255448	262.0847
9/12/2014 5:28:30 PM	17:28:30	119	K	29	45	64.28571	32862.86	33	47.14286	16500	913.9492	56.52719	54.84109	14.43037	63.02499	214.9904	21.53999	60.83839	-4.899979E-02	14.42839	0.7169991	1	3	1	0.15	2853	57.2002	31.07173	35.84537	2.484022	101.6613	97.03097	0.7092406	9.272593	262.5702
9/12/2014 5:28:40 PM	17:28:40	129	K	29	44	62.85714	32132.57	33	47.14286	16500	918.8935	57.51517	54.84109	14.43037	63.02499	215.6425	21.32001	61.10784	-4.199982E-02	14.42813	0.7210007	1	3	1	0.15	2842	55.7998	30.19416	35.66537	2.471549	102.0236	97.216	0.7105568	9.289801	263.0574
9/12/2014 5:30:17 PM	17:30:17	0	K	29	-1	0	0	0	0	0	557.4307	55.40448	54.78979	14.43113	63.19501	172.8214	-0.2100067	61.60183	-0.6700001	14.40814	4.500008E-02	0	1	1	0.15	-1	2.600098	-5.330819E-04	14.22112	0.9854476	78.2341	11.82795	0.1755365	2.29496	64.98592
9/12/2014 5:30:41 PM	17:30:41	0	K	29	-1	0	0	0	0	0	555.912	55.89848	54.75562	14.43037	62.75999	166.996	-0.2200012	61.51202	-0.6480007	14.40685	4.899979E-02	0	1	1	0.15	-1	2.600098	-4.950577E-04	14.20537	0.9844075	74.99776	12.01676	0.1852075	2.421398	68.56624
9/12/2014 5:30:51 PM	17:30:51	0	K	29	-1	0	0	0	0	0	551.1826	55.09012	54.75562	14.43037	62.75999	165.1701	-0.2200012	61.51202	-0.6389999	14.40703	4.800034E-02	0	1	1	0.15	-1	2.799805	-5.330819E-04	14.20537	0.9844075	73.98338	11.56964	0.1833173	2.396686	67.86647
